ECMWFFLT1_sfc_dewp_072.txt.gz
Dewpoint
59 58 58 57 57 59 58 58 58 57 58 59 59 59 59 59 57 57 58 58 58 58 60 58 59 58 59 60 60 60 59 60 59 59 58 58 59 58 58 57 58 57 55 55 57 56 54 53 55 58 59 60 59 59 58 57 56 56 56 55 54 54 54
57 57 57 58 57 57 56 56 56 55 54 55 56 57 57 58 60 57 57 57 58 58 59 57 57 58 59 59 59 59 59 59 59 59 59 58 58 58 57 56 56 55 55 55 55 56 55 54 54 55 56 58 57 56 55 54 53 53 54 54 54 53 54
57 56 56 56 56 56 55 54 54 53 53 54 54 56 57 57 57 57 56 56 57 58 58 56 56 56 57 58 59 59 58 58 58 59 59 58 57 57 57 57 55 54 54 54 54 55 55 56 54 55 56 55 54 54 53 52 51 51 51 52 52 52 52
55 55 55 55 55 55 55 53 52 52 53 53 54 55 56 56 56 57 56 56 57 59 56 54 54 54 55 55 55 56 57 57 57 57 57 57 57 57 57 57 55 55 54 53 53 54 55 55 55 55 55 54 54 53 51 51 50 48 49 51 50 50 50
55 55 55 55 55 55 54 52 52 52 52 52 53 54 55 55 56 56 56 55 55 53 53 53 53 52 52 52 52 52 52 52 54 56 56 56 57 57 57 56 55 54 53 54 54 54 56 55 55 54 54 53 51 49 48 49 47 46 46 46 48 50 50
55 55 54 54 54 54 53 52 52 52 51 52 53 54 53 54 55 53 53 53 53 53 53 52 52 52 51 51 50 49 49 50 52 54 56 56 57 57 57 55 55 54 54 54 54 55 56 55 55 53 52 51 51 49 50 48 46 46 46 45 45 45 46
55 54 54 54 53 53 53 52 52 52 51 52 52 53 53 54 54 54 53 52 52 53 52 52 51 51 50 49 49 49 49 48 49 51 52 52 54 54 55 56 55 55 55 54 54 55 55 54 53 52 51 50 50 47 45 47 45 41 44 47 46 45 45
55 54 54 54 53 53 52 52 52 52 52 51 52 52 54 53 53 52 52 52 52 52 52 51 51 51 52 50 50 51 50 49 49 50 49 51 51 53 55 56 55 55 54 54 54 55 55 54 53 52 49 47 46 46 46 42 43 45 44 45 47 45 47
55 54 54 53 53 53 52 52 52 51 52 52 52 52 52 52 52 52 52 51 50 50 51 50 51 50 50 49 49 49 49 51 48 48 48 49 49 51 53 54 55 54 54 54 54 54 54 55 53 52 49 46 44 44 45 46 45 44 45 44 44 46 46
54 53 53 52 52 52 52 52 51 52 52 52 51 51 51 51 52 51 50 49 50 50 50 50 50 49 49 48 48 48 48 49 50 48 48 48 48 49 52 54 55 54 54 54 53 53 53 54 53 53 50 48 47 45 44 44 44 46 44 42 43 44 48
54 53 52 52 52 52 51 52 52 52 51 52 51 51 51 51 52 53 49 49 49 50 50 50 49 48 48 48 48 49 48 49 48 48 49 48 48 49 50 51 54 54 54 53 53 53 53 53 53 52 49 49 48 45 44 43 43 44 45 42 43 43 47
54 53 52 52 52 51 51 52 52 51 51 52 52 51 51 51 50 49 49 49 49 49 49 49 49 49 48 49 49 48 48 48 47 48 49 49 49 49 49 48 49 51 52 53 52 52 52 52 52 49 47 48 48 48 45 45 42 44 45 45 43 41 46
54 52 52 52 51 51 51 51 51 51 51 52 50 51 50 49 49 48 49 49 48 49 49 49 49 49 48 48 48 47 47 48 47 48 48 49 48 48 48 47 48 49 51 52 52 52 51 51 51 48 47 46 46 47 47 45 42 42 45 45 43 40 46
54 52 52 52 51 51 51 52 51 51 51 50 51 50 50 49 48 49 48 49 48 49 49 49 49 49 48 47 48 48 48 48 47 48 50 49 49 49 49 47 47 47 50 52 51 51 51 50 50 49 46 45 45 46 45 44 42 42 43 46 46 42 45
53 52 52 52 51 51 51 51 51 51 50 51 51 50 49 49 49 49 48 49 49 49 49 50 50 49 48 49 49 49 48 48 48 48 49 49 49 49 49 48 48 48 47 50 50 49 50 49 48 47 45 44 44 45 46 45 43 43 42 44 44 43 43
53 52 52 52 51 51 51 51 52 51 50 51 52 51 50 50 50 50 49 49 49 49 50 51 50 49 49 49 50 50 50 49 48 49 49 49 49 49 49 50 49 49 48 49 49 49 50 49 48 47 46 44 43 44 44 45 44 43 42 43 45 42 45
54 53 52 52 51 51 51 51 52 51 51 51 51 52 51 51 51 50 50 50 50 50 52 52 51 50 50 51 51 52 51 50 50 50 50 50 50 50 49 50 50 49 49 48 48 48 48 49 49 47 46 45 45 43 46 45 45 45 45 43 47 41 45
54 54 53 53 52 51 51 51 51 51 51 51 51 52 52 51 51 51 51 50 51 51 52 52 52 52 52 52 53 53 52 52 51 51 51 51 53 51 51 50 50 49 49 49 49 48 48 48 46 47 45 44 44 45 47 46 46 45 43 44 47 47 47
54 53 53 53 52 52 52 51 51 52 51 51 51 52 52 52 51 51 51 51 51 52 53 53 53 53 53 54 54 54 53 53 53 53 53 53 52 52 52 51 50 49 49 49 49 49 49 48 47 47 46 45 45 47 47 47 46 46 44 46 47 46 47
55 54 54 54 53 53 52 52 51 51 52 51 51 51 52 52 52 51 52 53 53 53 54 54 54 54 54 54 54 54 53 53 53 53 52 53 52 52 53 52 51 50 50 49 49 49 49 49 49 48 48 48 47 47 47 47 46 46 47 47 46 47 46
54 55 54 54 54 53 53 52 52 52 53 51 51 51 51 52 52 52 53 53 54 55 54 54 54 54 54 54 54 54 54 53 53 53 53 53 53 53 53 53 52 51 51 50 50 49 50 50 50 49 49 49 48 48 47 48 48 47 47 46 46 45 45
55 55 54 54 54 54 54 53 53 53 53 52 52 51 52 52 52 52 53 54 55 55 55 55 55 54 54 54 53 54 53 53 53 53 53 52 52 52 52 52 52 52 54 52 51 50 50 50 50 49 49 49 48 48 48 48 48 47 47 47 45 45 45
55 55 54 54 54 54 54 54 54 53 53 53 52 52 52 52 52 52 53 54 55 55 55 54 54 51 51 54 54 53 53 53 53 53 53 52 52 52 52 51 55 56 54 52 49 46 45 46 48 50 49 49 48 48 47 47 47 47 47 46 45 44 44
54 54 54 54 53 53 53 54 54 54 54 53 53 53 52 52 53 53 53 54 54 55 54 54 49 46 47 49 53 54 54 53 53 53 52 52 52 52 51 50 51 54 52 50 46 42 42 42 43 43 44 46 48 48 47 47 47 48 47 46 45 45 44
51 53 52 53 53 53 52 52 52 53 53 53 53 53 53 53 53 54 54 54 54 54 53 51 46 45 45 46 49 54 53 53 53 53 53 52 52 52 51 50 49 49 49 48 46 45 43 41 40 40 40 40 40 40 43 47 47 46 46 45 45 45 44
51 51 51 51 51 51 52 52 51 51 52 53 53 52 53 53 53 54 54 53 53 53 52 48 44 43 43 42 43 50 53 53 53 53 53 52 52 52 50 50 49 50 50 50 47 45 45 44 42 41 42 42 41 40 38 40 43 48 47 46 45 44 44
51 50 51 50 50 50 49 50 50 50 51 52 52 51 51 52 52 52 52 52 52 51 51 47 42 43 43 43 42 45 53 53 53 53 53 53 53 52 51 50 49 50 48 47 46 46 46 46 46 45 44 43 43 43 41 40 40 41 44 46 45 44 44
52 52 50 50 49 50 48 48 49 49 50 51 50 49 50 51 51 51 51 51 51 50 50 43 43 43 43 42 41 42 53 53 53 52 52 52 52 52 51 50 50 49 47 46 46 46 46 46 45 44 42 41 41 40 41 43 45 46 46 46 46 45 44
53 53 52 50 49 50 48 48 49 49 49 48 47 47 48 49 50 50 50 50 50 50 47 40 41 42 42 42 41 50 53 53 52 52 52 52 52 52 51 51 49 48 46 46 44 41 43 46 44 42 40 40 39 38 38 38 38 41 44 45 45 44 43
49 50 51 50 49 49 49 50 49 48 50 48 49 49 48 48 49 50 49 49 49 48 46 42 41 41 41 40 43 50 52 51 51 51 51 52 52 52 51 50 49 47 46 45 42 39 39 42 43 42 40 39 38 37 36 37 37 36 36 36 36 36 36
38 39 40 42 45 48 49 48 48 48 49 48 49 48 48 49 48 49 49 48 49 48 48 43 39 40 40 39 44 50 51 50 49 49 49 50 51 51 51 49 49 47 47 46 39 39 38 41 42 40 39 38 38 36 36 37 38 39 37 36 36 35 35
36 37 36 37 40 42 45 48 49 49 49 49 48 47 48 49 48 47 48 48 50 48 48 47 40 40 40 39 42 48 50 50 49 48 48 47 47 49 49 49 48 46 46 44 38 38 38 41 41 40 40 39 38 37 36 38 39 39 39 39 39 37 36
37 37 36 36 37 39 41 43 45 49 49 49 49 47 48 48 49 48 47 47 48 47 47 47 43 39 39 39 39 46 49 49 49 47 47 48 47 46 46 46 45 41 41 39 38 38 38 39 41 41 40 39 38 37 38 39 40 39 39 39 38 38 37
37 37 37 36 37 37 38 39 40 43 46 46 46 46 46 47 47 47 46 46 47 46 48 48 45 39 39 39 39 40 47 47 47 48 47 47 47 47 45 45 44 41 39 38 38 38 38 38 38 41 41 39 40 39 39 40 39 38 39 39 38 38 37
37 38 38 37 36 36 37 37 38 40 42 43 42 43 42 43 44 45 44 46 47 47 48 48 46 40 38 38 38 38 43 45 48 48 47 46 45 46 46 44 43 40 38 38 38 38 38 38 38 41 41 37 36 36 40 39 38 37 37 36 36 35 35
35 37 37 38 36 36 36 36 37 38 38 38 39 40 42 41 42 43 43 43 43 44 44 44 42 43 39 38 37 37 38 41 42 47 46 44 46 47 43 43 42 39 38 38 38 38 38 38 39 40 36 36 36 36 36 37 36 36 35 35 35 34 34
34 35 36 37 37 36 36 35 35 37 38 38 38 38 41 41 42 42 43 42 42 42 41 41 39 39 39 37 37 38 38 38 40 46 46 45 44 44 42 41 40 37 37 38 38 38 38 38 38 35 35 35 35 36 37 36 36 35 34 33 34 34 34

ECMWFFLT1_sfc_dewp_075.txt.gz
Dewpoint
62 62 63 64 64 64 64 64 65 65 65 65 65 64 65 65 65 65 66 66 65 63 63 63 64 65 65 65 65 64 64 63 63 62 62 61 61 60 61 61 62 62 62 60 58 55 55 55 56 59 59 60 59 59 59 58 58 59 59 59 58 59 59
63 63 63 63 63 64 64 64 64 64 64 64 64 65 65 64 65 65 65 65 65 64 62 61 63 63 65 66 65 64 64 64 64 64 63 62 62 61 60 61 61 59 58 60 59 58 56 54 55 56 56 58 58 57 57 56 56 58 58 59 58 59 59
62 62 62 63 63 64 64 64 64 63 63 63 64 63 64 63 63 64 63 64 65 63 61 62 63 64 65 65 65 65 65 65 65 64 64 63 63 62 61 61 59 59 57 57 57 56 57 56 54 55 56 56 55 55 56 56 57 57 58 58 58 58 59
62 63 62 63 63 63 62 62 62 61 62 62 63 63 63 62 63 62 63 63 63 63 61 62 63 62 64 64 64 64 65 64 63 64 64 64 63 62 62 60 59 58 58 56 56 56 56 56 55 56 55 54 55 54 54 53 53 53 55 57 57 57 56
62 62 62 62 62 62 62 60 60 60 60 61 62 62 62 62 63 63 63 63 62 62 62 62 62 61 62 62 62 63 63 64 64 63 64 63 63 62 62 61 60 60 59 58 56 58 57 56 56 54 53 53 52 51 51 52 50 50 51 52 53 54 50
62 62 63 62 62 61 60 59 59 59 59 60 61 61 62 63 62 62 62 61 61 61 60 60 60 60 61 60 61 62 62 62 62 63 62 63 63 62 62 61 60 58 58 59 58 58 58 57 55 53 52 53 52 51 51 52 50 47 47 46 46 44 41
60 60 60 60 60 60 60 60 60 59 59 61 61 62 61 61 61 62 62 61 60 59 59 60 59 58 59 56 58 58 59 59 61 63 63 64 63 63 62 60 59 58 58 59 59 59 57 57 54 53 53 53 53 50 49 49 48 47 44 42 42 41 40
60 60 60 60 60 60 60 61 60 60 59 59 59 61 60 61 61 60 61 60 59 59 58 58 57 57 57 53 53 56 56 56 59 61 61 62 62 62 62 60 60 59 59 58 59 59 57 57 56 54 52 50 50 51 49 48 46 46 42 40 39 39 41
60 60 59 59 60 60 61 60 60 60 60 59 60 60 60 59 59 59 58 58 57 57 57 56 56 54 56 56 54 57 55 54 59 60 60 62 62 63 62 61 59 58 59 58 58 58 56 58 57 56 53 51 48 47 49 46 45 42 40 38 39 38 38
60 60 59 59 59 60 61 61 59 58 60 60 59 59 59 58 59 58 57 57 57 57 57 57 56 55 56 56 56 56 56 55 56 56 58 60 61 61 62 61 59 58 58 60 59 59 59 58 56 54 50 50 50 47 45 43 43 41 39 33 30 36 37
60 61 60 59 59 58 59 59 59 58 58 58 58 58 58 58 57 57 57 57 57 57 57 56 53 54 55 54 55 54 54 56 55 56 57 58 60 61 61 60 59 57 59 59 59 60 59 57 55 53 51 51 50 46 45 42 41 40 38 43 35 33 37
60 59 59 58 58 58 57 58 58 58 58 57 57 58 58 57 56 57 57 55 56 56 56 56 55 54 55 54 55 52 54 55 54 55 56 58 59 60 60 60 59 58 59 59 59 59 59 57 54 51 51 51 52 49 45 41 39 44 42 40 41 35 35
57 57 58 58 57 57 57 57 57 58 57 57 57 57 56 55 55 56 55 54 55 54 53 54 53 54 55 55 54 51 53 54 52 53 53 55 54 59 60 59 58 57 57 57 58 58 56 56 55 51 52 51 50 52 47 42 40 40 47 44 40 39 39
58 57 57 58 58 58 58 57 57 58 56 57 57 57 56 55 53 54 53 52 52 53 53 54 55 55 53 53 54 53 52 52 50 52 53 54 54 56 57 56 57 57 57 57 57 57 55 54 54 53 51 49 49 50 47 46 41 42 46 49 45 39 41
57 56 58 58 58 57 57 57 58 56 57 56 56 55 54 55 54 53 51 51 53 51 51 52 53 54 51 53 54 55 54 52 51 52 54 51 54 54 57 56 54 56 55 55 57 54 54 53 50 48 48 48 46 48 50 43 41 41 44 46 45 46 46
57 57 57 57 57 56 57 58 56 57 56 55 56 55 55 54 53 52 51 52 51 52 50 51 54 54 54 52 50 53 56 54 52 53 53 52 48 51 54 56 56 56 56 56 57 55 55 53 50 47 48 47 46 47 44 44 44 43 43 44 47 43 44
57 57 57 56 57 56 56 57 56 56 55 55 54 56 55 53 53 53 52 51 51 51 52 53 52 51 49 50 49 49 51 54 53 52 51 49 49 52 53 54 55 56 56 57 56 55 55 55 54 51 50 50 50 48 49 49 45 45 44 43 44 40 44
58 57 57 57 57 56 56 56 56 54 56 55 55 54 54 54 53 51 53 50 50 51 51 51 51 52 53 53 51 52 51 51 54 53 55 54 56 53 54 54 52 53 56 56 56 55 54 55 52 53 52 48 48 49 49 46 45 46 45 44 46 46 47
58 57 57 57 56 56 56 56 56 56 54 54 55 55 53 53 51 50 50 49 49 50 50 51 49 49 50 53 55 56 55 54 54 54 55 54 52 54 54 54 55 53 53 54 55 56 55 55 53 53 52 49 47 48 49 48 46 46 45 45 46 46 47
59 57 57 57 56 55 55 56 55 54 55 55 55 54 54 52 54 51 50 52 51 52 52 52 54 55 53 53 54 54 57 57 56 57 57 55 56 57 55 54 56 56 54 53 54 54 55 56 55 54 53 53 49 49 50 47 44 45 47 47 45 45 46
59 58 57 56 56 56 55 56 55 56 55 55 55 53 52 52 54 53 54 52 53 55 56 55 55 56 55 56 57 57 57 58 57 57 59 58 59 58 57 56 56 55 55 54 54 55 55 54 54 54 54 53 52 51 50 49 48 45 45 46 45 45 44
58 58 56 55 55 55 55 56 55 55 56 56 57 54 54 54 53 53 53 55 55 57 56 57 59 59 58 57 59 58 57 56 57 57 58 58 59 59 58 59 58 57 59 55 52 53 53 53 54 53 54 53 52 51 51 49 47 45 45 46 46 47 45
59 59 58 56 56 56 56 56 56 55 55 54 55 56 55 55 54 54 54 55 58 59 58 58 55 52 53 57 58 59 59 59 57 57 58 58 59 59 59 59 60 57 54 52 50 47 46 47 49 53 54 53 52 51 50 49 47 46 46 46 45 46 44
58 58 58 57 58 56 56 58 57 55 56 55 56 55 56 54 55 55 54 56 58 59 59 58 50 47 47 49 57 59 58 58 58 58 58 59 58 59 58 56 58 56 54 51 50 43 44 44 45 46 47 49 50 52 51 51 48 49 45 45 47 46 45
55 55 55 55 56 56 57 57 57 56 57 57 56 56 56 55 55 56 56 56 58 59 59 49 45 45 45 45 49 59 59 58 58 57 57 57 58 58 58 58 57 58 57 55 53 51 46 41 41 41 42 42 43 43 45 52 52 51 50 48 49 48 49
55 55 55 56 55 55 56 57 57 57 57 57 57 56 56 57 57 57 57 56 57 57 57 45 44 43 44 43 42 48 57 59 58 58 57 57 57 58 58 57 57 57 53 52 51 52 51 48 41 41 41 42 41 40 40 42 43 54 52 51 50 50 49
55 55 56 56 56 56 56 56 56 57 58 58 58 57 57 58 58 57 58 57 57 57 56 45 43 42 43 42 42 44 57 59 59 58 58 58 58 58 58 57 56 56 55 53 53 53 52 51 50 50 51 51 50 47 43 42 42 43 49 53 52 51 51
55 54 54 55 55 55 55 55 55 54 57 58 58 58 58 57 57 57 58 58 58 58 55 41 42 42 42 41 41 40 56 58 58 58 59 59 59 59 58 58 57 56 55 54 53 52 52 52 52 52 51 51 50 50 50 50 52 52 52 54 53 53 51
49 52 54 55 55 55 54 54 54 54 55 56 56 57 57 57 57 57 57 57 57 57 54 40 41 41 41 41 40 51 55 57 57 57 57 58 58 58 57 57 56 56 55 54 48 44 47 51 52 51 49 49 48 47 44 39 39 41 53 53 52 50 50
43 45 48 50 52 53 54 54 54 55 56 56 56 57 56 56 56 56 56 57 57 57 56 45 40 41 41 40 44 54 55 55 56 57 58 57 57 57 57 56 56 55 54 53 44 40 42 45 51 50 49 50 49 46 43 41 37 37 37 37 37 37 36
38 40 42 45 48 52 53 54 54 55 56 56 56 55 55 56 55 55 56 56 56 57 57 49 39 40 40 39 45 54 54 55 56 56 56 56 56 56 56 53 53 54 53 52 40 39 40 48 51 50 48 47 45 44 42 42 39 38 36 36 36 36 36
39 39 39 41 43 46 49 51 53 55 55 55 55 55 55 55 55 54 55 55 52 55 56 49 39 40 40 39 46 52 53 54 55 56 55 55 55 52 54 52 49 50 52 49 39 39 39 46 52 50 49 47 46 43 42 42 42 39 39 39 39 39 39
40 39 39 40 41 42 43 45 48 50 50 50 50 51 52 54 54 54 54 54 54 54 54 54 46 38 40 39 40 51 53 52 53 55 54 54 53 54 54 54 50 43 43 40 38 38 38 43 51 50 48 48 46 43 43 43 42 41 41 41 42 42 42
41 40 40 40 41 41 42 43 45 46 47 48 48 49 50 51 52 52 52 53 53 54 53 53 50 40 39 39 38 41 52 53 54 54 54 52 53 54 53 52 53 45 40 39 38 38 38 40 43 49 49 48 47 44 41 44 43 41 43 42 41 40 40
41 41 41 41 41 40 41 42 43 44 44 46 48 48 49 50 51 52 52 53 53 53 51 47 51 40 38 38 38 38 48 52 52 53 52 51 52 53 54 54 53 47 40 38 37 37 38 38 39 47 53 37 36 38 44 43 43 43 41 40 39 38 38
39 39 40 41 40 40 40 41 42 43 44 43 45 45 46 47 47 47 49 49 51 51 51 49 40 45 38 38 38 38 39 44 40 50 51 51 52 52 53 52 52 43 38 37 37 37 37 37 39 46 35 36 36 38 40 42 41 42 40 39 40 39 38
37 37 38 39 39 39 40 40 40 41 42 41 39 39 39 42 41 40 40 44 47 48 49 49 40 38 41 37 37 37 37 37 39 49 51 51 51 49 49 50 47 38 37 37 37 37 37 37 43 36 35 36 36 37 41 41 42 41 39 38 39 38 38

ECMWFFLT1_sfc_dewp_078.txt.gz
Dewpoint
61 62 64 65 66 65 65 65 66 66 65 64 65 65 66 65 66 66 66 66 65 64 64 64 64 64 64 64 65 63 63 63 63 61 60 60 60 60 63 62 63 63 62 61 58 56 55 56 58 60 60 61 61 61 60 59 60 60 61 61 60 60 60
63 63 63 64 64 65 65 65 64 63 63 63 62 63 63 62 63 64 65 66 65 62 60 60 64 64 65 66 65 64 64 63 63 63 63 62 61 61 62 61 59 58 58 60 59 58 54 55 56 58 58 59 59 59 59 60 59 61 60 61 60 58 59
63 63 63 63 63 65 65 65 63 62 62 63 63 62 62 61 62 62 61 61 62 59 57 57 59 62 65 66 65 64 64 63 63 63 62 62 61 62 59 59 59 58 57 57 57 56 56 57 54 56 57 58 56 57 59 60 60 60 60 60 60 59 55
64 64 63 64 64 65 63 62 62 61 61 61 62 63 62 60 61 60 60 59 60 60 57 56 59 57 60 63 65 66 65 64 63 64 63 62 61 61 60 59 58 58 56 55 55 55 55 55 55 55 57 55 55 56 56 57 58 58 58 60 59 56 49
63 63 64 64 64 63 61 60 60 60 60 60 61 60 61 61 62 61 61 60 59 60 59 59 58 56 59 59 61 63 65 65 64 64 65 63 63 61 62 60 62 62 59 56 55 57 57 56 55 53 55 55 54 54 54 56 56 56 57 57 53 48 45
64 63 63 64 63 61 60 60 60 58 58 59 59 60 61 62 61 61 61 59 59 60 60 58 59 58 59 59 60 61 62 63 64 64 62 64 63 62 61 61 59 59 58 58 57 56 57 57 55 53 54 53 53 54 54 53 52 52 53 51 46 42 40
64 64 63 63 63 62 60 60 59 58 58 60 59 59 60 60 60 60 61 60 60 60 60 60 60 60 60 56 59 60 61 63 64 64 64 65 64 64 63 61 60 59 58 59 59 58 57 57 54 54 54 53 53 52 53 51 48 46 46 44 41 40 40
66 64 63 63 63 62 62 61 59 58 57 58 58 60 60 61 61 61 60 59 59 60 60 60 59 60 60 54 55 58 58 59 62 63 62 64 64 64 64 62 61 60 59 57 59 57 55 56 55 56 54 53 53 53 52 51 49 46 42 40 39 40 42
63 63 63 64 64 63 61 59 59 59 58 58 60 61 61 61 60 59 58 58 58 59 59 58 57 55 56 55 54 57 56 55 60 62 61 63 64 65 64 63 60 58 60 59 58 56 55 56 57 57 55 53 51 51 53 51 49 44 40 38 38 40 42
64 63 63 63 63 62 61 59 58 58 60 60 60 61 61 61 60 59 57 57 58 57 57 56 55 54 55 56 56 57 57 58 57 56 58 59 64 64 64 63 60 60 59 61 58 58 58 58 56 56 52 51 52 50 50 48 47 46 41 38 35 38 41
63 63 63 63 63 63 62 60 60 60 59 60 60 61 61 61 61 58 56 56 57 57 57 54 52 52 55 53 55 55 56 57 56 56 57 58 62 63 63 62 61 59 60 61 60 61 60 59 54 51 50 51 50 48 48 47 47 46 43 41 37 36 40
60 60 60 61 62 61 61 60 59 58 60 60 59 60 60 59 59 57 56 54 56 56 56 56 53 53 52 52 52 52 55 54 52 53 57 59 60 61 62 61 60 59 61 61 61 60 59 55 51 49 48 50 50 50 48 46 45 44 42 39 37 37 38
59 58 59 60 61 60 59 59 59 60 59 58 58 59 58 58 57 56 54 53 53 53 53 54 53 52 52 51 50 49 51 51 48 52 55 57 54 59 60 59 57 59 60 59 59 57 55 53 52 46 48 49 49 50 48 46 44 43 43 40 37 37 39
60 58 59 61 60 60 59 59 58 58 57 57 58 58 57 56 54 54 51 50 49 51 52 53 53 53 52 51 49 48 48 46 46 50 54 57 54 55 53 54 55 57 59 57 55 56 52 52 51 48 47 44 47 49 46 46 45 45 47 45 40 37 39
61 59 61 61 60 58 59 58 59 57 56 57 58 56 55 55 54 52 49 47 48 47 49 51 51 51 49 50 51 48 48 46 48 50 53 51 55 54 56 52 50 55 55 53 54 50 50 49 46 43 43 43 41 46 47 43 44 45 46 46 41 39 41
61 62 61 60 59 57 58 58 58 56 55 55 56 56 55 55 53 50 48 47 46 47 47 48 51 49 48 48 46 49 49 48 49 50 51 50 48 51 54 55 54 56 55 55 55 51 52 49 46 42 44 43 42 45 42 41 41 42 44 43 43 40 42
61 61 61 59 59 58 57 57 56 55 54 54 53 56 55 53 52 50 47 45 46 47 47 48 48 45 45 45 46 47 48 49 48 49 48 46 46 49 51 53 55 56 56 55 53 51 51 50 48 46 45 47 46 44 47 46 44 45 43 43 45 39 42
61 61 60 59 60 59 58 57 56 54 55 54 53 55 54 53 51 48 48 44 45 46 46 46 45 46 48 47 46 47 46 46 48 48 49 49 53 49 50 50 50 52 55 54 55 52 50 52 47 48 47 44 44 45 46 45 44 44 44 44 45 43 43
61 61 60 60 61 59 58 57 57 56 53 53 53 53 53 52 49 46 43 42 43 44 44 45 45 45 47 48 49 48 48 48 47 46 47 47 47 49 50 49 50 50 52 53 53 54 52 53 49 50 49 46 44 47 47 45 45 45 44 44 45 44 46
60 59 60 60 60 58 57 57 55 54 53 53 52 51 52 51 50 46 43 43 43 45 45 45 47 48 48 49 50 51 52 52 51 51 50 48 48 48 47 48 50 51 49 49 49 51 53 55 53 53 51 52 49 49 49 46 43 44 45 45 44 46 45
59 59 58 58 57 58 58 57 55 54 53 52 52 49 49 50 50 47 46 44 45 47 48 47 48 49 49 51 52 52 53 53 53 54 55 53 54 53 52 50 49 48 48 48 50 50 52 51 50 52 52 52 52 50 49 49 48 45 45 45 45 44 44
58 58 57 57 56 57 56 56 56 55 54 53 53 50 49 49 49 48 46 48 48 50 50 52 52 52 53 52 53 53 53 52 53 54 54 55 55 55 54 55 54 53 62 59 52 54 53 53 53 49 51 53 53 52 51 49 48 47 45 45 45 45 43
57 58 59 59 56 56 56 57 56 55 54 53 53 51 49 50 48 49 47 48 49 53 54 56 59 52 52 55 55 55 55 55 54 55 55 55 55 55 55 56 58 58 54 54 51 47 46 47 49 56 58 54 54 52 52 50 48 47 47 45 43 44 44
57 58 59 61 58 56 55 55 54 53 54 54 54 52 52 51 51 49 48 50 53 54 55 59 47 47 48 47 56 57 56 56 56 56 56 56 55 56 56 54 58 59 56 52 54 44 44 44 44 44 45 47 50 59 52 51 51 49 46 45 44 44 44
57 58 57 56 55 56 56 55 54 54 54 55 55 53 53 51 52 52 52 52 54 55 57 46 43 45 46 45 45 60 57 56 56 55 55 55 55 56 56 56 57 59 57 56 55 56 50 43 42 43 43 43 43 43 43 57 56 50 49 44 44 45 45
54 55 56 57 57 56 57 58 57 57 57 57 55 55 54 55 54 54 54 52 53 54 57 41 43 41 43 42 42 49 55 57 56 56 56 56 56 57 57 57 58 59 56 57 55 54 55 55 42 40 42 43 43 43 41 41 41 56 56 47 47 46 46
54 53 54 54 56 57 57 58 58 59 59 57 57 56 56 56 54 54 53 53 53 54 57 43 42 40 41 41 41 45 56 57 58 57 57 56 57 57 58 58 57 58 58 59 56 54 55 56 55 53 54 53 53 51 41 42 42 42 46 55 52 50 49
54 55 55 55 55 54 56 57 57 59 59 60 59 57 56 56 57 57 57 55 55 57 58 40 41 41 41 41 40 41 57 59 58 58 58 58 57 58 58 58 58 57 58 58 57 55 55 55 55 55 54 54 55 55 54 54 53 53 53 55 56 58 56
55 55 55 55 55 55 55 56 57 58 59 60 60 58 58 57 57 57 57 57 56 57 56 39 40 40 40 40 40 56 57 58 58 56 56 58 59 58 58 59 59 58 57 58 53 48 50 57 55 54 54 54 55 55 52 41 39 40 53 58 56 56 57
54 54 55 56 55 56 56 56 56 57 56 57 58 58 57 57 57 57 57 57 57 56 57 44 39 40 40 38 44 56 57 56 55 56 57 57 57 58 58 58 58 56 55 56 51 44 45 46 54 54 54 54 54 53 51 47 39 37 38 38 38 38 37
49 52 53 54 55 56 56 56 57 57 56 57 56 57 57 56 56 57 57 57 57 57 56 44 39 38 40 39 43 55 56 56 56 56 56 58 58 57 57 56 55 56 55 59 41 42 42 49 53 54 54 54 54 52 50 47 45 41 36 36 36 36 36
44 47 49 51 53 53 55 56 56 56 56 56 56 56 56 56 56 56 57 56 53 58 55 46 39 39 39 39 46 55 55 54 55 56 56 56 58 57 57 56 52 53 54 55 39 40 41 46 53 54 54 54 53 52 50 47 46 45 45 43 42 42 43
43 42 43 45 47 48 50 52 53 53 54 53 53 53 53 54 55 56 55 56 56 56 56 54 47 38 39 40 39 52 54 53 53 54 55 54 55 57 57 57 53 44 42 42 39 39 40 41 52 54 55 54 53 52 50 48 47 46 45 46 43 43 43
43 43 42 42 44 44 46 47 49 50 50 51 51 51 54 54 54 54 55 55 56 55 56 55 50 39 39 39 40 41 54 55 54 54 54 53 54 54 55 55 54 46 42 42 39 38 39 39 39 54 55 54 55 54 46 47 45 42 46 45 45 44 43
43 43 43 43 43 42 43 44 45 45 45 47 48 49 50 50 49 50 52 53 54 54 52 49 53 41 38 39 38 38 51 54 52 54 53 53 53 54 54 54 54 44 40 41 38 38 38 38 39 53 55 40 39 41 52 46 46 45 45 44 42 41 41
40 41 42 42 42 42 42 42 43 44 44 44 45 45 46 46 47 47 48 48 49 52 53 49 42 48 38 38 38 38 38 45 42 55 53 52 53 52 53 54 52 41 40 39 38 37 38 38 39 50 36 38 40 41 45 51 50 48 44 43 42 42 42
37 38 39 39 39 41 41 41 39 41 41 40 39 40 39 42 42 42 42 43 47 46 48 49 41 39 45 38 37 37 37 37 39 51 53 51 51 51 51 52 48 39 38 38 37 37 37 38 47 37 37 38 39 41 47 46 48 46 43 42 42 42 41

ECMWFFLT1_sfc_dewp_081.txt.gz
Dewpoint
64 64 64 65 65 64 64 64 65 65 64 64 64 62 63 63 64 65 65 65 64 64 62 64 63 64 63 63 64 64 64 63 64 63 61 60 61 60 61 62 62 61 63 62 58 57 56 55 58 60 61 61 61 60 61 60 60 60 61 64 64 60 59
64 64 63 64 65 64 67 65 63 64 64 64 63 63 63 63 64 65 64 64 65 65 60 62 66 61 64 64 65 64 64 64 63 64 63 61 60 61 60 61 61 58 58 60 61 59 57 56 56 56 58 60 59 60 60 60 60 60 61 60 58 57 57
64 63 65 64 65 66 65 65 66 65 64 65 65 64 64 63 64 65 66 65 64 63 59 60 62 64 65 64 64 64 64 63 64 64 63 63 64 62 63 60 58 57 56 56 56 59 59 57 55 55 57 57 56 58 59 59 59 60 60 59 58 56 54
63 63 64 63 65 64 63 64 65 63 63 62 64 63 63 61 61 61 61 61 60 60 57 57 59 62 64 65 65 65 65 64 64 64 64 63 63 61 61 62 59 58 57 56 56 56 56 56 54 54 56 56 55 56 58 58 59 59 58 57 53 51 50
63 63 63 62 62 63 62 63 63 60 60 61 62 61 62 61 61 60 60 60 59 59 57 57 57 56 58 62 64 64 64 65 64 64 64 64 63 62 62 62 64 61 60 59 55 56 58 56 56 54 55 54 53 53 54 57 58 57 56 52 45 44 42
63 63 63 63 64 65 63 62 60 59 60 60 60 61 61 61 60 60 60 58 59 59 58 57 57 57 57 58 59 63 63 62 62 63 64 63 62 63 59 63 62 58 59 61 59 57 59 62 56 56 55 53 53 53 52 55 57 55 53 46 42 38 36
64 64 63 63 63 64 64 61 59 60 59 60 59 60 60 59 58 59 59 59 59 59 59 59 59 58 59 56 59 59 62 62 63 64 63 63 64 62 63 63 59 57 61 62 60 58 58 58 57 54 54 54 54 51 51 51 52 50 47 43 41 38 36
64 65 64 64 64 64 63 60 59 59 58 58 58 60 59 59 59 59 59 59 58 60 60 60 59 60 59 56 56 59 59 62 63 63 62 63 62 61 61 61 64 62 63 64 63 58 58 57 55 55 54 53 54 53 50 47 48 47 43 41 41 40 39
63 64 64 64 65 65 60 59 59 59 58 58 59 59 59 59 59 58 57 57 58 59 59 58 58 57 57 55 55 58 57 55 62 62 62 64 64 64 63 63 60 63 61 58 58 59 56 57 57 56 56 54 52 51 50 47 46 43 41 40 41 41 39
64 63 63 65 64 62 60 60 58 57 59 60 59 59 59 58 58 57 56 57 58 59 58 57 56 56 56 56 56 56 56 57 57 56 58 62 64 64 62 61 61 59 59 60 58 58 59 58 57 57 55 54 54 51 50 48 46 43 40 41 40 41 40
63 63 64 63 62 61 60 59 59 58 58 59 58 59 59 59 59 57 57 56 58 58 57 56 54 54 55 54 55 55 55 57 57 57 57 58 62 63 61 60 59 58 59 58 61 59 58 58 57 56 55 54 55 56 52 47 45 44 41 43 42 40 39
62 63 62 61 61 60 58 58 59 58 59 58 58 58 59 58 58 56 55 54 56 57 56 55 54 53 53 54 54 54 55 55 54 55 56 57 59 62 61 61 60 59 59 60 59 59 60 57 54 53 53 53 54 55 52 49 46 45 44 43 42 40 37
59 60 58 61 60 59 57 57 57 58 59 58 58 58 57 57 57 55 53 53 55 56 55 53 52 52 53 53 52 51 53 51 49 51 53 55 53 58 61 60 59 59 60 59 59 58 54 53 53 50 50 50 51 54 52 48 46 44 44 41 41 39 38
60 58 60 59 59 58 57 57 57 58 57 58 58 57 57 57 54 53 50 50 51 53 54 53 53 53 52 50 50 50 47 47 46 49 52 54 53 55 55 55 57 59 60 58 55 54 50 49 49 49 49 48 49 50 48 49 45 43 44 44 42 39 39
59 58 58 58 57 57 57 57 58 57 57 56 57 55 56 55 53 51 48 47 48 49 50 51 51 51 49 50 50 47 47 46 49 50 52 51 53 51 55 53 53 58 55 52 53 48 48 47 43 40 41 46 45 48 48 46 44 44 43 43 41 40 40
60 59 59 58 57 56 57 57 56 57 55 56 57 56 55 54 52 49 47 47 45 46 48 50 51 51 50 49 47 48 49 50 52 52 51 51 49 50 51 53 55 56 53 53 52 51 49 46 42 38 40 41 43 44 43 46 45 45 45 42 42 38 40
62 59 58 57 57 57 57 57 56 55 54 55 56 56 55 52 51 49 46 44 43 45 47 49 49 48 46 46 47 47 47 50 50 50 50 48 47 49 51 52 53 53 53 53 51 50 48 48 47 42 41 43 44 43 45 45 44 46 45 42 41 35 39
61 58 57 56 57 56 57 57 55 52 54 55 54 55 53 52 51 47 47 43 43 45 46 46 45 45 46 48 47 47 46 47 49 48 49 49 53 49 49 50 50 50 52 52 52 50 49 49 44 45 43 41 40 44 46 44 43 43 43 43 42 40 41
62 59 57 56 56 55 56 56 54 54 51 52 54 55 53 52 49 45 42 42 43 43 42 43 42 42 43 46 48 48 48 48 49 48 47 47 47 48 50 48 50 51 51 52 52 51 52 50 46 48 45 43 40 44 47 45 45 45 43 42 43 43 44
62 62 61 59 57 56 55 56 54 53 53 52 53 53 52 52 49 45 42 43 43 42 42 43 44 46 44 44 46 46 47 48 47 48 47 46 46 48 47 47 49 50 50 51 52 51 52 52 51 50 50 50 47 46 47 46 42 43 45 45 43 45 43
61 60 60 61 56 56 55 55 54 53 53 53 52 50 51 51 49 45 43 42 43 44 44 44 45 47 47 49 50 50 50 51 50 50 51 49 49 48 49 48 48 48 48 49 52 51 54 51 51 51 51 51 51 50 49 47 46 43 44 45 44 44 43
58 58 58 58 57 55 55 55 53 52 53 53 51 49 50 50 47 44 42 44 43 46 47 49 50 51 52 52 52 52 52 51 52 53 53 52 53 51 50 50 48 55 59 57 51 52 52 53 58 51 51 51 51 50 50 49 48 45 44 44 44 45 44
58 58 58 57 57 55 54 55 54 52 51 51 50 49 48 49 46 47 44 44 46 50 50 58 52 46 46 54 54 54 54 54 52 53 54 54 55 54 54 54 58 59 56 54 50 46 45 46 48 53 54 56 53 50 49 48 47 47 47 45 43 43 44
58 59 58 58 59 55 55 55 54 52 52 51 51 50 49 48 47 49 45 47 50 53 56 57 43 43 44 43 58 57 54 55 55 56 55 55 55 55 55 52 56 60 58 54 56 43 44 44 44 44 44 46 48 56 57 52 48 49 46 47 47 45 44
57 57 57 57 57 57 57 53 52 52 53 53 52 52 50 49 48 49 48 48 52 52 56 41 43 42 43 42 44 57 56 55 55 55 54 54 54 55 54 55 56 58 55 53 52 56 50 44 43 43 44 44 43 43 44 54 56 56 57 53 48 47 47
57 57 57 57 56 56 56 56 58 58 58 57 53 51 50 50 50 50 50 49 52 52 57 41 41 40 41 43 40 47 54 56 54 54 54 54 54 54 54 56 58 58 54 58 56 55 55 55 44 43 43 43 43 43 42 41 42 54 57 56 54 57 52
56 56 57 57 58 58 57 58 59 58 59 59 57 56 54 53 52 51 51 51 52 53 57 42 40 40 41 41 41 43 54 56 56 55 54 54 56 60 59 59 59 61 59 58 56 56 53 54 57 56 55 54 53 54 43 40 40 41 49 53 54 54 56
55 54 54 55 56 58 57 57 59 60 61 61 58 57 56 56 58 56 56 54 53 58 52 40 39 40 40 40 40 41 56 56 56 56 57 57 57 56 57 59 60 60 61 61 59 53 54 53 55 56 56 55 54 53 55 55 54 53 52 54 53 54 58
57 54 53 53 54 55 55 56 56 58 60 60 60 61 61 59 58 57 57 56 57 56 50 38 39 40 40 41 40 56 56 56 55 54 54 54 54 55 57 59 59 60 59 59 54 48 50 57 53 54 55 55 54 54 56 42 39 41 47 52 55 58 57
58 57 57 54 53 54 55 56 56 57 57 58 59 61 59 61 60 59 57 56 56 56 53 42 39 40 40 40 42 56 55 52 51 52 52 53 51 52 56 58 58 58 59 58 52 46 47 49 53 52 52 53 54 54 57 49 40 37 37 37 37 37 38
57 56 55 55 57 57 58 57 56 57 57 58 58 57 57 58 59 59 58 57 56 57 53 45 39 39 41 41 42 56 57 55 53 53 53 54 53 53 55 58 58 58 59 58 47 43 44 52 54 53 53 52 52 54 55 52 49 45 38 38 39 40 40
51 52 54 55 56 56 56 58 58 58 59 60 59 58 58 59 59 59 59 57 56 56 54 46 39 40 40 39 46 55 55 54 54 54 54 52 57 55 57 56 54 56 55 50 38 42 42 48 55 54 53 53 55 54 58 52 50 48 48 48 48 48 48
49 49 50 53 54 57 58 59 58 57 59 58 59 59 59 59 58 59 59 59 58 57 57 55 48 38 39 39 40 49 54 53 53 54 54 56 54 55 57 59 55 44 42 41 40 39 40 41 53 55 54 56 57 56 52 51 51 49 48 47 47 47 48
46 46 47 47 49 51 52 53 57 58 55 54 57 56 57 56 56 58 57 58 57 56 57 56 49 39 40 39 38 40 54 55 56 53 54 52 53 54 58 56 57 41 41 41 41 39 38 39 39 50 54 55 57 56 48 50 51 44 50 48 48 47 47
45 46 45 45 46 46 47 47 48 49 48 50 52 54 55 55 54 53 54 54 54 54 53 51 53 42 39 39 39 38 47 52 47 52 53 52 52 53 53 53 55 46 41 42 41 40 39 39 39 48 53 45 40 42 52 50 49 50 50 49 48 49 44
41 42 43 44 45 44 44 45 46 47 47 47 47 47 47 48 48 49 50 49 52 51 50 50 44 49 38 40 38 37 36 41 38 51 53 53 53 52 53 53 48 40 41 40 39 39 38 38 39 47 42 38 41 43 46 49 48 49 48 49 49 49 49
38 39 39 40 40 42 42 42 41 43 42 42 42 42 42 44 44 43 43 44 47 47 49 48 42 44 43 36 37 36 36 36 37 45 48 52 50 49 48 47 42 36 37 37 37 37 37 38 44 40 38 38 40 42 48 49 48 48 46 47 47 46 47

ECMWFFLT1_sfc_dewp_084.txt.gz
Dewpoint
64 63 64 65 66 66 66 66 67 68 67 66 66 64 65 65 65 67 66 66 65 65 65 66 66 66 65 65 65 65 66 66 64 62 62 60 61 62 63 63 63 64 62 62 58 58 56 55 57 60 60 61 61 61 62 62 62 63 63 64 64 64 64
65 64 64 64 65 66 65 66 65 65 66 66 66 66 64 65 65 67 65 66 66 65 63 65 68 64 65 65 65 66 65 65 65 65 63 62 61 61 62 62 62 62 62 62 61 59 56 55 56 57 57 59 60 60 60 61 61 63 62 62 65 59 58
64 64 64 65 65 65 63 64 65 65 66 65 65 64 64 64 66 66 67 66 67 65 64 65 66 65 65 65 65 65 65 65 65 65 64 64 64 63 64 63 62 60 60 61 60 59 58 57 55 56 57 57 56 58 60 60 61 62 60 61 60 55 55
63 64 63 63 64 63 63 64 63 63 64 65 65 66 66 66 66 66 66 65 65 65 62 63 65 66 66 66 65 65 65 65 65 64 64 63 64 63 62 64 63 60 59 58 58 59 58 57 56 56 56 55 56 57 59 60 59 59 56 58 55 50 51
64 63 63 63 62 64 64 64 65 64 64 64 65 65 65 63 64 64 64 63 63 65 62 62 63 64 65 66 66 68 65 65 65 65 64 63 63 63 64 64 63 62 62 61 60 61 58 59 56 55 55 54 54 55 57 60 62 56 53 47 45 47 48
64 63 63 63 63 64 64 63 63 62 63 63 64 63 64 64 64 64 64 64 65 68 65 63 63 62 63 64 64 65 65 64 64 64 64 63 63 62 63 64 63 62 62 62 61 61 61 59 56 54 54 53 53 54 56 58 58 55 45 41 41 42 44
64 64 63 62 64 65 64 63 64 62 62 63 63 63 63 62 64 64 64 64 64 63 64 64 63 63 62 59 62 63 65 65 65 64 64 64 64 64 65 63 63 62 64 63 61 61 60 59 56 54 54 53 53 53 55 59 54 48 41 37 37 38 40
64 64 64 65 65 65 65 64 64 64 62 62 62 63 63 63 64 63 63 63 64 64 63 64 62 63 62 60 60 63 64 64 65 65 64 64 64 64 64 63 64 62 63 62 63 59 59 60 57 55 54 53 53 52 53 53 50 44 40 36 35 35 37
64 64 64 65 66 66 65 64 63 63 63 63 62 62 63 62 62 62 62 62 62 63 63 62 62 61 63 61 60 62 61 62 63 63 64 65 64 65 64 64 62 62 63 62 62 61 59 60 59 57 56 53 51 50 50 50 46 40 39 38 36 35 35
64 64 64 65 65 64 63 64 65 63 63 63 63 64 63 62 62 62 61 62 64 63 63 62 62 62 62 60 60 62 61 60 61 61 61 65 65 66 64 64 63 63 62 62 61 62 61 60 60 59 56 56 54 49 48 47 46 41 40 40 36 35 37
63 64 64 65 64 63 64 64 63 62 62 62 62 63 63 63 62 61 60 63 63 63 63 61 57 61 61 60 61 59 60 61 60 60 62 63 63 64 64 63 63 61 61 62 62 62 61 60 59 59 58 58 58 52 49 46 44 46 44 42 39 37 38
63 64 64 65 65 64 63 63 62 62 61 62 61 63 62 61 61 59 60 61 62 62 61 62 60 60 60 60 61 59 60 60 60 60 61 62 64 64 63 62 62 61 61 62 62 61 61 60 59 58 57 58 59 59 53 48 44 47 47 45 41 38 36
62 63 63 63 63 62 62 61 61 61 61 60 62 61 60 59 59 57 58 59 61 61 59 59 59 60 59 60 58 58 60 58 55 57 57 59 58 63 64 62 60 60 62 61 61 60 59 59 58 56 56 57 58 58 55 50 46 45 49 47 41 37 36
62 61 62 62 62 61 61 60 61 62 60 62 61 61 59 58 56 56 56 56 57 60 59 59 60 59 58 58 62 54 55 55 52 56 57 58 56 58 58 59 60 61 62 60 59 58 56 55 56 56 54 55 56 56 54 52 48 45 50 48 43 37 37
62 61 61 60 60 58 59 59 61 60 61 60 61 59 57 58 56 55 53 53 56 55 57 58 58 58 57 59 56 57 56 56 54 53 57 55 57 57 60 58 60 60 59 56 57 51 52 52 48 49 52 53 53 54 53 51 47 46 46 45 44 40 40
60 60 59 59 59 56 59 59 59 59 59 60 60 60 58 57 55 54 53 54 52 54 55 56 58 59 58 56 53 56 59 57 56 57 56 55 52 55 58 58 59 59 58 56 57 55 54 52 45 42 47 49 49 51 50 49 46 46 43 45 46 40 41
63 58 57 58 58 59 59 59 59 58 57 58 57 61 58 55 56 55 54 51 51 52 54 57 57 54 54 54 54 55 56 56 57 57 56 54 51 54 56 58 58 58 57 56 57 54 52 53 53 46 45 48 50 50 51 51 47 46 45 44 43 39 43
63 62 60 60 60 60 60 59 59 56 59 59 58 58 58 56 55 52 55 48 48 51 51 53 55 54 56 55 56 55 55 55 56 57 58 54 57 54 55 55 55 56 57 56 56 53 51 54 48 50 46 43 45 51 51 51 48 47 47 45 45 45 43
63 62 63 60 60 60 59 58 59 58 57 57 58 57 57 56 51 47 47 47 48 49 49 52 49 49 52 55 56 56 56 56 56 54 52 53 52 55 57 55 56 55 55 56 56 55 54 51 51 50 47 40 41 46 50 49 49 47 47 47 42 48 41
61 61 64 60 60 58 58 58 56 55 58 58 59 57 58 56 58 49 50 50 49 50 48 49 51 52 51 54 55 56 56 56 56 55 54 54 54 55 54 54 55 57 56 55 56 55 55 57 57 55 54 53 51 49 53 51 47 46 46 46 42 45 44
60 61 63 60 58 58 58 57 57 56 57 57 58 55 53 53 57 53 54 50 50 53 53 50 49 51 50 54 56 55 57 57 55 55 57 55 55 55 56 55 56 56 56 56 56 55 57 58 58 54 57 55 55 54 50 50 51 50 46 48 44 44 47
61 61 62 61 59 58 58 60 57 56 57 57 57 56 56 53 55 51 52 53 49 54 55 57 55 55 58 53 56 57 56 56 56 56 56 56 56 54 56 55 57 54 55 54 50 51 51 55 59 58 57 55 55 53 53 53 52 50 49 48 48 47 47
59 60 60 59 58 57 59 60 57 56 56 54 58 56 56 54 53 54 50 51 53 56 56 54 48 46 47 54 57 58 59 57 58 58 57 57 58 58 56 58 57 55 54 52 49 45 44 46 50 55 54 54 56 56 54 52 51 50 51 50 48 47 46
59 58 58 59 59 56 57 59 56 56 56 55 58 57 57 54 56 56 49 54 54 57 54 51 42 41 42 45 54 59 57 57 57 58 58 57 57 57 58 58 58 58 58 57 55 43 43 43 43 43 45 48 52 56 55 57 54 55 54 51 50 48 47
59 58 58 57 57 58 58 58 57 57 58 57 59 58 58 55 55 58 55 55 56 54 51 41 40 41 41 41 45 56 59 58 60 58 56 58 58 57 58 58 58 58 58 58 58 56 52 44 43 43 43 42 43 45 49 53 54 54 56 54 53 53 53
57 57 57 57 57 57 57 57 58 58 57 57 58 57 56 56 56 57 57 54 55 54 50 41 40 41 41 41 41 52 55 59 58 59 58 58 58 58 58 57 57 57 59 59 59 59 58 57 48 43 43 44 43 41 41 43 45 54 56 57 55 54 53
56 56 57 57 57 56 56 56 57 57 58 59 58 58 57 57 57 56 56 56 54 52 49 42 40 41 41 40 39 47 56 58 60 59 58 58 58 58 59 59 57 57 60 59 58 58 59 58 58 56 53 53 53 52 42 40 41 42 48 53 54 54 56
56 56 57 57 57 57 57 58 57 57 59 60 59 58 57 57 58 57 56 56 54 50 47 40 40 41 41 40 39 47 58 60 59 60 60 59 58 59 57 59 57 59 59 59 58 58 59 58 57 57 57 56 56 54 55 52 50 51 50 52 53 53 54
55 55 56 57 57 57 57 57 57 58 59 59 59 59 59 58 57 57 57 56 53 51 48 39 40 40 40 40 40 56 59 59 58 58 57 58 58 59 59 59 60 59 58 59 55 49 52 58 57 56 56 55 55 55 48 44 40 39 45 48 47 47 46
57 55 55 55 55 56 56 57 58 58 58 58 58 59 59 60 60 58 57 56 55 53 50 41 39 40 40 39 46 56 59 56 56 56 55 56 56 56 57 58 59 58 58 58 51 46 45 50 57 56 56 55 55 56 53 50 40 38 38 38 38 39 40
57 57 55 54 55 57 57 57 57 57 57 57 57 58 58 58 58 58 58 57 56 53 51 44 40 40 40 39 43 54 55 56 56 56 56 57 57 57 58 57 58 58 57 57 46 42 42 50 55 55 55 55 53 54 54 53 48 45 39 39 40 41 42
57 57 57 57 57 57 58 57 58 59 58 58 58 58 58 58 58 57 57 57 54 54 53 48 41 40 40 39 44 50 53 54 55 56 55 55 57 57 58 56 54 55 56 50 39 40 40 47 55 55 55 54 54 54 55 55 51 48 49 49 48 49 48
55 54 54 55 56 57 57 58 59 58 58 58 58 59 59 58 58 58 58 58 58 56 53 50 44 39 40 39 40 48 53 55 53 54 54 54 54 55 57 57 49 39 42 41 40 39 39 40 50 53 54 54 54 54 53 52 52 51 50 49 49 49 50
47 50 54 56 56 56 56 57 58 58 58 58 58 57 57 57 58 57 57 57 57 57 55 51 46 39 39 39 40 44 51 50 49 51 53 53 54 55 56 56 50 40 40 39 40 39 39 39 39 48 52 52 53 55 50 51 50 48 50 49 48 48 47
44 45 45 47 48 50 54 56 56 57 57 56 56 56 56 56 57 57 57 58 56 55 54 51 50 40 39 39 39 41 48 48 45 49 52 53 51 50 51 51 46 40 38 38 37 38 38 39 38 45 50 44 42 45 51 51 50 50 49 48 47 46 46
41 41 43 44 44 46 46 47 50 54 55 55 55 55 55 55 55 54 54 53 51 50 51 51 46 46 39 40 38 37 39 43 39 51 50 51 50 49 48 48 45 39 37 37 38 38 38 37 38 44 36 37 38 40 43 50 49 49 49 48 48 46 45
39 40 40 41 41 42 43 44 43 44 45 49 49 52 54 54 54 54 53 52 50 50 50 50 44 44 41 36 36 36 36 37 39 47 50 51 50 48 47 46 43 38 38 38 37 36 37 38 40 36 36 37 37 39 47 50 49 50 48 47 46 46 45

ECMWFFLT1_sfc_dewp_087.txt.gz
Dewpoint
63 63 63 64 64 65 65 65 65 64 65 65 65 63 64 65 65 65 65 64 65 65 65 64 62 64 63 63 63 63 63 63 62 61 61 62 61 60 61 60 60 60 60 58 58 57 56 55 57 59 60 60 60 60 61 62 62 62 62 62 62 62 61
63 63 63 64 64 64 63 64 64 64 64 64 65 64 64 64 64 64 64 64 64 65 65 65 64 63 63 62 62 62 62 62 62 61 61 61 60 60 60 59 60 60 60 58 59 57 56 56 56 56 57 60 60 60 60 61 61 61 61 61 62 59 58
63 63 63 63 63 63 63 62 62 62 63 62 63 64 63 64 64 64 65 64 63 64 64 64 64 64 64 62 63 63 63 63 62 62 61 61 61 60 61 60 59 57 58 58 58 57 57 57 55 56 57 57 57 58 59 59 61 61 61 61 58 57 57
63 63 62 62 62 61 61 61 61 62 62 61 62 63 63 64 63 63 64 64 64 64 63 64 64 63 63 63 64 64 63 63 62 62 61 61 62 61 61 60 59 57 57 56 57 57 56 56 56 56 57 56 57 57 58 59 60 60 60 58 55 55 54
63 63 62 61 61 61 61 61 61 61 62 61 62 63 63 64 63 64 63 63 63 63 62 63 64 63 64 64 63 64 63 63 62 62 61 61 61 61 60 60 59 58 58 57 58 58 57 57 56 56 55 56 56 56 58 59 60 59 54 52 53 53 52
63 62 62 61 61 62 62 62 61 61 61 61 62 61 62 62 62 61 61 61 61 62 61 63 63 64 64 63 63 63 63 62 62 62 61 60 61 61 60 60 61 61 60 59 60 58 57 57 56 55 55 56 55 56 57 57 56 52 48 49 50 51 50
62 62 61 61 62 63 63 62 61 62 61 61 61 60 62 62 62 62 62 61 60 61 61 62 63 63 63 62 62 63 63 62 63 61 61 61 61 61 61 61 60 60 59 59 59 59 57 56 55 54 54 54 55 55 56 57 55 41 42 45 47 48 48
62 62 61 62 63 62 62 61 61 61 61 62 61 62 62 62 62 62 61 60 60 59 60 60 61 62 61 61 62 61 63 63 63 62 61 61 61 61 60 60 60 59 60 60 60 59 57 56 55 54 54 53 53 53 53 55 54 39 38 40 42 44 46
62 62 62 63 63 63 62 62 61 61 61 61 61 61 61 61 60 60 60 60 60 60 59 58 58 58 60 61 62 62 62 62 62 62 61 61 61 60 60 60 61 60 60 60 59 59 59 57 56 55 54 54 53 52 53 53 47 35 36 35 37 42 44
61 63 63 63 62 61 61 61 61 61 61 60 61 61 60 59 59 59 58 59 59 59 59 59 59 59 59 59 60 61 61 62 62 61 61 62 62 61 61 60 60 60 59 59 60 59 58 57 56 56 54 54 53 50 50 49 40 35 35 35 34 37 41
63 63 63 62 61 61 60 60 61 61 60 60 61 60 59 59 60 60 59 59 60 59 59 60 58 58 57 58 59 60 60 61 60 59 60 61 60 61 61 61 60 59 60 60 59 59 57 56 56 56 56 55 53 51 50 47 38 38 36 38 37 37 39
63 63 62 61 61 61 60 60 60 60 60 60 59 59 59 58 57 58 58 58 58 58 59 57 57 58 57 58 57 58 59 59 59 59 59 61 60 61 60 60 59 59 59 59 59 58 58 57 57 56 57 57 53 52 47 43 40 42 39 39 41 37 37
63 63 62 61 61 60 61 61 59 58 58 59 59 58 57 56 56 56 57 57 58 57 55 55 57 57 56 56 55 56 57 58 59 59 60 60 63 61 60 60 59 59 59 59 58 58 58 58 57 56 57 57 56 53 46 45 42 42 44 40 39 36 36
62 62 61 61 61 60 60 59 58 58 58 59 59 58 56 55 55 56 57 57 57 54 54 56 56 55 54 55 56 55 56 57 56 57 58 58 60 60 60 59 59 60 59 58 58 57 57 56 55 56 56 56 55 51 45 45 43 45 43 41 39 36 34
62 61 60 60 60 60 59 59 59 58 58 59 59 57 55 55 55 55 55 57 56 55 56 54 53 53 54 53 52 53 52 54 55 55 56 57 57 58 58 59 59 59 58 58 58 56 56 56 55 54 55 55 54 53 50 46 45 44 40 41 40 36 35
61 60 60 59 59 59 58 58 58 58 58 58 59 57 56 55 54 54 55 55 55 54 54 53 55 53 51 49 51 55 55 53 54 55 55 55 56 58 58 58 58 58 57 56 56 54 54 54 52 53 54 54 53 53 51 46 45 43 39 39 39 35 36
60 60 59 58 58 58 58 58 58 58 58 58 58 56 54 54 54 52 53 53 53 54 54 54 53 50 51 52 53 54 54 54 54 53 54 54 56 57 57 57 56 56 55 54 54 53 50 52 50 51 53 53 52 52 51 47 45 43 41 40 38 35 38
60 59 58 58 58 58 58 57 57 57 57 57 58 54 54 55 51 51 52 51 52 52 52 53 51 50 52 53 52 52 52 52 53 55 54 54 58 56 56 56 55 55 54 53 53 49 49 51 50 49 51 51 51 52 52 47 45 43 42 40 40 40 40
59 58 57 58 58 57 57 56 56 57 57 57 55 54 54 52 49 48 48 49 51 50 51 52 49 50 52 52 51 52 54 54 52 52 53 54 54 55 54 55 55 54 55 53 53 53 54 52 52 51 45 45 48 51 49 46 44 43 42 41 41 42 41
59 59 58 58 57 56 56 56 56 56 57 55 53 54 55 50 47 47 48 49 50 50 51 49 49 49 51 52 53 53 52 51 52 53 51 52 53 54 55 55 54 54 54 54 53 53 53 52 52 52 53 51 48 47 47 46 44 43 42 42 42 42 40
59 59 58 57 56 55 55 55 55 56 56 55 55 54 52 49 46 47 49 48 49 52 51 50 49 49 51 52 51 53 52 50 51 52 52 53 54 53 52 51 51 52 52 53 54 54 55 54 53 52 54 53 52 50 48 47 45 45 44 43 41 42 39
59 59 57 56 56 55 55 54 54 55 55 55 55 54 53 53 51 49 50 53 52 52 51 51 52 52 51 51 51 52 52 52 54 54 55 55 55 55 54 53 53 53 54 53 49 49 51 54 53 49 51 54 54 52 49 50 47 46 45 44 41 44 41
59 58 57 56 55 56 56 54 54 54 54 54 54 54 51 51 50 50 53 52 51 50 50 49 48 48 52 54 55 55 55 55 55 55 55 55 56 56 57 57 58 58 55 52 48 44 43 45 49 51 51 50 52 53 52 51 50 48 48 47 44 43 43
57 57 57 56 55 56 55 54 54 53 52 53 54 53 50 49 50 52 52 49 49 48 48 47 43 42 45 50 55 56 56 55 55 55 55 55 55 55 55 57 56 58 57 56 49 43 42 42 42 42 43 45 48 50 49 50 51 52 50 48 48 45 45
56 56 56 56 56 57 56 56 56 56 55 56 54 53 50 50 53 53 51 50 49 48 46 43 41 42 43 47 51 55 56 56 56 56 56 56 56 55 55 56 56 56 58 57 57 52 47 43 42 42 42 43 43 42 43 48 49 49 52 51 51 50 49
55 55 55 55 55 55 56 56 56 56 56 56 55 56 55 55 54 53 51 50 50 49 46 41 41 42 42 44 48 53 56 56 55 55 56 56 55 55 56 55 55 56 58 60 58 55 55 54 48 44 44 44 44 45 44 41 41 49 51 52 52 51 51
55 55 55 56 56 55 55 56 56 57 56 56 56 56 54 53 53 52 51 50 49 48 46 42 41 41 42 42 45 52 57 57 56 56 56 56 55 55 55 54 54 54 56 56 55 55 55 54 53 53 53 53 53 52 46 43 41 41 44 49 51 49 51
55 56 56 56 55 56 56 56 57 57 57 57 56 55 54 53 52 51 51 50 49 47 45 40 41 41 42 44 47 51 56 57 57 57 56 55 55 54 55 55 52 53 56 57 55 53 55 54 53 53 52 53 53 54 52 51 49 49 48 49 49 51 51
55 56 54 56 56 55 56 57 56 56 56 57 57 57 56 54 53 52 52 51 50 48 45 39 41 41 42 45 49 55 56 55 55 55 56 55 55 54 54 55 54 54 54 55 48 42 44 52 53 53 52 52 52 52 50 44 39 40 44 48 49 49 48
55 55 55 56 55 56 56 56 56 56 56 56 57 57 57 56 56 54 52 51 50 48 46 41 40 41 42 45 49 55 55 55 55 55 55 56 57 57 56 56 55 54 55 50 41 40 42 49 53 53 53 52 52 52 52 47 41 38 38 39 41 41 41
54 54 54 55 55 55 56 55 55 56 56 56 56 56 57 56 56 54 53 52 51 49 46 42 40 41 42 43 48 53 54 55 54 54 55 56 56 55 52 51 53 52 51 46 39 40 43 50 53 52 52 52 52 52 52 50 47 45 41 39 40 40 40
55 55 56 55 55 55 55 56 56 57 57 57 56 56 56 54 54 53 53 52 52 50 48 44 40 41 41 43 49 53 54 53 53 53 54 55 56 54 51 48 46 45 46 42 38 39 40 47 51 51 50 50 50 50 51 51 46 44 44 45 45 46 45
54 55 55 54 54 55 54 56 56 56 56 57 56 56 56 56 56 55 55 54 51 50 48 45 43 40 42 43 46 51 51 51 51 52 53 53 53 51 49 47 44 38 38 38 38 38 38 40 47 47 48 48 49 49 51 51 49 47 46 46 46 45 45
44 47 53 54 54 54 54 55 55 55 55 55 55 55 55 55 54 54 54 53 52 50 49 46 42 41 42 43 44 46 48 49 50 51 51 50 50 49 47 46 43 39 37 38 38 38 39 37 38 45 46 46 46 43 43 48 49 46 47 46 46 46 45
41 42 41 43 51 54 54 55 54 54 54 54 54 54 53 53 53 53 52 51 50 49 49 46 43 40 40 40 41 43 46 46 46 50 49 48 47 46 46 43 42 39 37 38 38 38 38 37 38 44 40 36 36 37 41 45 47 47 47 45 45 44 43
40 42 41 40 39 42 43 48 50 53 54 54 53 53 53 53 53 52 49 48 49 48 47 44 41 40 37 38 38 38 39 41 42 49 48 46 45 44 43 42 42 40 38 38 38 37 37 38 41 39 35 36 38 38 42 45 46 47 47 47 46 45 43
35 39 41 42 40 38 37 38 40 39 41 49 53 52 51 51 51 48 48 47 47 46 46 44 41 39 38 36 35 35 35 36 37 45 47 45 43 42 41 41 40 39 38 39 36 36 37 37 38 35 36 39 40 41 44 46 47 49 46 47 47 47 46

ECMWFFLT1_sfc_dewp_093.txt.gz
Dewpoint
62 63 64 64 63 63 63 63 64 65 64 64 64 63 63 64 64 63 62 62 62 62 62 61 61 61 61 61 62 61 60 60 60 59 58 59 59 58 59 57 57 58 56 55 56 56 56 55 56 60 61 61 61 62 62 62 62 61 61 62 61 60 59
63 63 64 64 63 63 62 63 64 63 63 63 63 63 63 64 64 63 62 62 62 62 62 61 61 61 61 61 61 60 60 60 60 59 59 59 58 57 57 55 57 56 55 56 56 54 56 56 56 57 57 60 60 60 61 62 61 61 61 61 60 58 57
62 63 63 63 63 63 63 62 63 62 63 63 63 63 63 64 63 63 62 62 62 63 62 61 61 61 61 60 61 61 60 60 59 60 60 59 59 58 58 57 55 55 54 54 54 55 56 55 55 56 57 57 56 58 60 61 61 61 59 58 56 56 55
62 63 63 63 63 63 62 62 61 62 62 62 62 61 62 63 63 63 62 62 62 64 63 61 61 61 61 60 60 60 60 60 60 60 59 58 59 58 58 58 57 57 56 54 55 55 54 53 56 56 57 57 57 57 59 61 60 58 57 56 54 54 54
61 62 63 62 63 63 63 62 62 62 61 61 60 60 61 61 62 62 62 62 63 63 62 62 61 61 61 60 60 60 60 59 59 60 59 59 58 58 58 57 58 57 55 56 56 56 55 55 56 56 56 57 57 57 59 59 58 56 55 54 53 52 52
62 62 62 63 63 63 63 62 62 61 61 61 60 60 60 61 61 61 61 62 62 62 63 62 62 62 61 61 61 60 60 59 60 60 59 59 59 59 59 57 57 56 56 56 57 56 55 56 57 56 57 57 56 57 59 57 54 51 52 52 52 51 51
62 62 62 62 62 62 63 62 62 62 61 61 60 60 61 61 61 61 62 61 61 61 62 62 62 62 61 61 61 61 60 60 60 59 59 59 59 58 58 58 57 57 56 57 57 57 56 56 56 56 56 55 56 56 57 56 49 48 49 49 50 50 50
61 61 61 62 62 61 62 62 62 62 61 61 61 60 61 61 61 61 61 61 60 60 61 61 62 61 61 61 61 61 60 60 60 59 58 58 59 58 57 58 57 56 57 58 58 57 57 57 56 56 56 55 54 55 54 49 47 45 46 42 48 48 49
61 61 60 60 61 61 61 62 62 61 61 61 60 60 61 61 60 60 60 60 60 60 60 61 61 61 61 61 60 60 60 61 60 59 58 59 59 58 58 56 58 57 57 58 58 58 57 57 57 57 56 55 55 53 53 50 47 41 43 41 43 47 48
61 61 60 60 61 61 61 61 61 61 61 61 60 60 60 60 60 60 60 60 59 60 60 61 61 61 60 61 61 60 60 60 60 59 58 59 58 58 57 57 57 57 57 58 57 58 57 57 57 57 56 55 55 54 53 51 48 42 42 39 44 43 47
61 61 61 60 61 61 60 60 60 61 60 61 61 60 60 60 60 62 60 59 59 59 60 60 60 60 60 59 60 60 60 60 59 58 58 58 58 57 57 57 57 57 57 58 58 57 57 57 57 57 56 54 54 54 53 51 49 42 43 41 39 40 44
61 61 61 61 61 61 60 61 60 61 60 61 60 60 60 60 60 60 59 58 58 59 59 60 60 59 59 59 58 58 58 59 59 58 57 58 57 58 57 57 56 56 57 57 57 57 56 57 57 58 56 54 52 51 52 48 44 42 43 42 40 40 44
61 61 61 61 61 61 61 61 60 59 60 60 60 60 60 59 59 59 57 57 58 58 59 59 59 59 59 59 58 58 57 58 58 58 57 57 60 58 58 57 56 57 56 57 57 56 56 56 57 57 56 54 50 50 49 43 44 43 41 42 41 41 44
61 61 61 61 61 61 61 60 60 60 60 60 59 59 59 59 59 58 57 57 58 58 57 57 58 58 58 57 57 58 57 58 58 56 58 57 58 58 58 57 56 56 56 57 56 56 56 56 56 56 56 53 49 47 45 42 41 40 39 42 42 41 42
61 61 61 61 60 60 60 60 60 60 60 60 60 59 58 58 58 58 57 57 57 57 56 57 57 57 57 56 56 58 57 57 57 57 57 57 57 58 56 56 56 55 56 56 56 56 56 56 56 55 55 54 49 46 45 43 42 40 38 38 39 40 41
61 61 61 60 60 59 59 60 60 60 59 59 60 59 59 57 57 57 56 56 56 55 56 56 56 57 56 56 56 56 57 57 57 57 57 56 57 57 56 56 56 55 56 56 55 56 55 55 55 55 55 54 52 47 45 43 41 39 38 39 39 38 39
60 61 60 60 59 59 59 60 60 60 60 59 59 59 59 57 57 56 55 54 54 55 55 56 56 56 56 55 55 56 55 55 56 56 56 56 56 56 56 56 54 55 55 55 55 55 55 54 55 54 54 53 53 50 45 44 41 40 40 38 38 36 38
60 60 59 59 59 59 59 59 59 59 59 59 59 59 57 56 56 55 54 53 53 54 54 54 54 54 54 54 55 55 55 55 55 55 56 56 59 56 56 56 56 55 54 54 52 53 53 53 53 54 54 54 52 51 48 45 42 42 39 38 39 38 38
59 59 58 58 59 59 59 59 59 59 59 58 58 58 56 55 55 54 53 53 53 53 52 52 52 52 53 53 53 54 55 55 55 55 55 56 56 56 56 56 55 54 53 53 52 51 52 52 52 52 53 53 52 50 47 46 44 42 39 39 39 37 36
58 58 58 58 59 59 59 59 59 59 59 58 56 55 54 54 55 54 53 53 52 51 50 50 51 52 52 52 53 53 54 54 54 54 54 54 55 55 56 55 53 53 53 51 51 51 50 50 51 50 52 52 51 49 46 45 43 41 41 40 38 37 37
58 58 58 59 59 59 58 58 58 59 59 57 55 54 53 53 53 53 52 52 52 51 50 50 51 52 52 52 52 53 54 54 53 52 52 52 52 53 53 53 52 51 52 51 51 51 51 51 50 49 49 52 51 49 46 45 42 41 41 40 39 38 37
58 58 58 58 59 58 58 58 58 58 58 56 54 53 52 52 51 51 51 51 51 50 50 51 51 51 51 52 53 53 53 53 52 52 52 52 51 50 50 50 50 51 54 55 53 52 52 52 51 50 48 50 50 49 46 44 43 42 41 40 39 40 38
58 57 58 57 56 57 57 57 57 56 55 54 52 50 50 51 51 51 50 50 50 50 50 50 52 49 50 53 53 54 53 53 53 53 53 53 53 52 52 52 55 54 53 52 49 45 45 47 49 51 50 50 50 49 46 44 43 42 42 41 40 40 38
57 57 57 56 55 56 56 55 55 55 55 52 50 50 51 50 50 50 49 48 48 49 49 49 46 46 46 49 53 53 53 53 53 53 53 53 52 53 52 52 52 54 52 51 46 42 42 42 42 43 45 49 51 49 46 45 44 43 43 42 41 40 40
56 56 56 55 55 56 55 55 53 53 52 50 51 51 50 50 50 49 49 48 48 48 48 48 44 45 46 47 50 54 53 53 53 53 53 53 53 53 53 54 54 53 51 50 50 49 47 43 42 42 42 42 42 42 45 47 46 45 44 43 43 41 41
55 55 55 55 55 55 55 53 52 52 50 51 50 50 49 49 49 49 49 48 48 48 47 46 44 45 45 46 47 51 53 53 53 53 53 53 52 52 53 54 54 54 55 56 55 52 51 50 47 46 46 48 47 43 40 40 42 48 48 46 45 45 43
54 54 54 55 55 54 53 53 52 52 51 50 50 50 49 49 49 49 49 49 48 48 48 46 45 44 45 45 46 49 54 53 53 53 52 52 52 52 52 53 53 53 52 50 50 51 51 50 50 50 51 51 50 48 45 43 42 41 45 48 48 47 48
54 54 54 54 54 54 52 52 52 52 51 50 49 49 49 49 49 49 49 49 48 47 47 44 44 44 45 46 46 49 54 54 54 54 54 54 54 54 54 54 52 51 50 50 47 47 51 50 50 50 50 50 49 48 46 44 43 45 47 47 47 47 47
54 54 54 53 53 53 53 52 52 52 51 51 50 50 49 49 48 48 48 48 49 47 45 44 44 44 45 45 48 54 54 54 55 54 54 54 54 55 54 52 51 50 49 48 45 42 48 51 50 50 49 48 48 48 48 44 40 39 42 42 44 46 45
53 53 53 53 53 53 53 51 51 51 51 50 50 50 50 50 49 49 49 48 48 47 46 42 43 43 44 46 50 55 54 54 53 52 51 52 53 53 52 51 50 49 48 46 42 41 43 47 49 49 48 47 47 47 47 47 45 41 40 39 39 39 39
53 53 53 53 53 53 53 53 52 51 51 51 50 50 50 50 50 49 49 48 47 46 45 43 40 44 45 47 50 54 52 52 51 50 49 49 49 50 52 51 50 48 47 45 39 41 44 47 48 47 47 47 46 46 46 46 47 47 44 42 41 40 40
53 53 53 53 53 53 53 53 52 51 51 52 51 50 50 49 48 48 48 48 48 47 46 44 41 43 45 47 51 54 53 52 51 49 48 47 46 46 45 45 46 46 45 41 37 39 42 46 47 46 46 46 45 45 45 44 45 45 45 46 46 44 42
50 52 53 53 53 53 53 53 53 52 51 50 50 50 49 49 47 47 46 46 45 45 44 44 42 41 44 46 48 53 53 51 49 48 46 45 45 45 45 44 43 38 38 38 37 38 39 42 46 45 46 45 45 45 44 44 44 43 43 42 43 42 41
46 47 49 51 51 52 53 54 53 53 52 51 50 48 47 45 45 45 45 45 44 43 44 43 42 40 42 44 46 49 52 50 48 45 44 44 44 44 44 44 43 39 37 37 37 37 38 38 41 44 44 45 43 42 41 44 44 43 43 43 42 42 42
44 45 47 49 50 50 52 54 54 53 52 50 49 47 46 46 45 45 45 45 44 44 45 43 43 40 40 41 42 44 46 46 45 43 43 43 43 43 43 43 42 39 37 37 37 38 38 38 39 43 39 37 36 37 43 44 42 42 43 42 42 42 43
39 42 44 46 48 48 50 52 53 52 50 48 47 46 46 46 45 44 44 44 44 44 44 43 40 41 39 39 40 40 41 42 41 44 43 43 43 43 42 42 42 38 36 37 37 37 38 38 39 38 36 37 38 38 41 40 41 42 41 41 41 42 41
37 38 41 44 46 46 47 49 50 50 49 47 46 45 45 44 44 44 43 43 43 43 43 43 41 39 39 38 38 38 38 39 41 45 44 43 42 42 41 41 40 36 37 36 35 35 35 35 36 36 38 39 39 40 41 41 41 40 38 38 39 40 40

ECMWFFLT1_sfc_dewp_096.txt.gz
Dewpoint
62 63 63 63 63 63 63 63 64 64 64 64 64 64 64 64 63 63 63 62 62 62 63 62 61 61 61 62 62 62 61 61 61 60 60 60 59 59 60 59 58 59 58 57 58 56 56 55 57 60 61 61 61 62 62 62 62 62 62 62 61 60 60
62 63 64 64 63 63 62 63 64 64 64 64 64 64 63 63 64 63 63 62 62 62 63 62 62 61 61 62 62 61 61 61 61 60 60 60 59 58 58 57 58 58 57 58 58 57 56 56 56 57 57 60 60 61 62 62 62 62 61 61 60 58 58
62 63 63 63 63 62 62 62 63 63 63 63 64 63 63 64 64 64 63 62 62 62 63 62 62 61 61 61 62 62 61 61 60 61 60 60 60 59 59 58 57 57 57 57 57 57 57 57 55 56 57 57 57 58 61 61 61 60 58 57 57 56 56
62 62 62 62 62 62 61 62 62 63 63 63 63 63 63 63 63 64 63 62 63 63 62 61 62 62 61 61 62 61 61 61 60 60 60 60 60 59 59 59 58 58 57 56 57 56 56 56 56 56 57 57 57 57 59 60 58 57 55 55 55 54 55
62 62 62 62 62 62 62 61 62 62 62 62 62 62 62 63 63 63 63 62 63 63 62 61 62 62 61 61 61 61 61 61 61 61 60 60 60 59 59 59 59 59 57 57 58 57 57 57 57 56 57 57 57 58 58 58 57 55 54 53 53 53 54
62 62 63 62 63 63 62 62 62 61 61 61 61 62 62 63 63 63 62 62 62 63 62 61 61 62 61 61 61 61 61 60 61 61 60 60 60 60 60 59 59 58 58 58 58 57 57 58 57 56 57 57 56 57 58 57 54 52 52 52 52 52 52
61 62 62 62 63 63 63 63 62 62 61 62 61 62 62 62 63 63 63 62 62 63 63 62 62 61 61 61 61 61 60 61 61 61 61 60 60 60 60 59 58 58 58 58 58 58 57 58 57 57 56 56 57 57 57 56 50 53 51 49 50 50 51
61 61 61 62 63 63 63 63 63 62 62 62 62 62 62 62 62 62 62 62 62 62 62 62 62 61 61 61 61 61 61 60 61 61 60 60 60 59 59 60 58 58 58 58 58 58 58 58 57 57 56 55 56 56 54 50 49 48 50 46 49 50 50
61 61 61 61 63 63 63 63 63 62 62 63 62 61 61 62 61 61 62 61 61 61 62 62 61 61 61 61 61 61 61 60 60 60 60 60 60 60 60 59 59 58 58 58 58 59 58 58 58 58 57 56 55 54 54 53 52 48 45 46 46 48 49
61 61 61 61 62 62 62 63 63 62 62 62 61 61 61 61 61 61 61 61 60 60 61 62 62 61 61 61 61 61 60 61 60 60 59 60 60 60 59 59 59 59 58 59 59 59 59 58 58 58 57 57 56 55 54 53 54 53 44 43 48 46 48
61 62 61 61 61 61 61 62 62 62 61 61 61 61 61 61 60 62 60 60 60 60 60 61 61 61 61 61 61 61 61 61 60 59 59 60 59 59 59 58 59 59 58 59 59 59 59 58 58 58 57 57 57 55 54 53 54 50 48 44 43 44 46
61 61 62 61 60 61 61 61 60 61 60 60 60 60 60 60 60 60 60 59 59 60 60 61 61 61 61 60 60 60 60 60 60 59 59 59 59 60 59 59 58 59 59 59 58 58 58 58 59 59 59 56 55 56 55 53 51 50 48 48 45 42 46
61 61 61 60 60 61 60 60 60 60 60 61 60 60 60 60 60 60 59 59 59 59 60 60 60 60 60 60 60 60 60 60 60 59 59 59 59 59 59 59 58 58 58 58 58 58 58 58 59 59 57 55 54 55 53 49 51 48 45 48 45 43 46
60 61 61 61 60 60 60 61 61 60 61 60 60 60 60 60 60 60 59 59 59 59 59 59 60 60 60 59 59 60 59 60 60 59 59 59 59 59 59 59 58 58 58 58 58 57 57 58 58 58 57 53 52 53 51 49 46 43 43 45 45 44 45
60 60 61 61 60 60 60 60 60 60 60 60 60 60 59 59 59 59 58 58 58 59 59 59 59 59 59 58 58 59 59 59 59 59 59 60 59 59 58 58 58 58 58 57 57 56 56 57 57 56 56 53 50 51 50 47 45 45 44 43 44 43 44
60 60 60 59 59 60 60 60 60 60 60 59 60 60 60 59 59 58 58 57 58 58 58 58 59 59 58 58 58 58 59 59 59 59 59 59 59 58 58 58 57 57 57 57 57 57 57 57 57 56 56 53 50 50 47 46 46 45 43 43 44 42 43
60 60 59 59 59 59 59 60 60 60 60 60 60 59 59 59 59 58 57 56 57 57 57 58 58 58 58 58 58 58 58 58 58 59 59 58 58 58 58 57 57 57 57 57 56 56 56 57 57 56 56 55 52 48 49 47 48 46 44 42 42 39 42
60 59 59 59 59 59 59 60 60 60 59 59 59 59 59 59 58 58 57 56 56 56 57 57 57 57 57 57 58 58 57 57 58 58 58 58 59 58 58 57 57 57 57 56 56 56 56 56 56 56 56 55 54 51 49 47 46 46 45 44 43 41 43
59 59 59 58 58 59 59 59 59 59 59 59 59 59 58 57 58 57 56 55 55 56 56 56 56 56 56 56 57 57 57 57 57 57 57 58 58 58 58 57 57 56 56 56 56 55 56 56 55 55 55 54 53 52 50 48 47 46 45 44 43 40 41
59 59 58 58 59 59 59 59 59 59 59 58 58 57 57 56 56 55 54 54 55 55 55 55 55 55 55 54 55 55 55 55 56 56 57 57 57 57 57 56 56 56 55 55 55 55 55 55 55 55 56 55 53 52 50 48 45 44 45 44 42 42 41
58 58 58 58 59 59 59 58 59 59 58 58 58 57 56 56 55 54 54 53 54 54 53 53 53 54 54 54 55 55 55 55 55 54 55 55 55 55 56 56 55 55 54 54 55 54 55 54 54 54 54 55 54 52 50 48 46 45 44 44 44 42 41
58 58 58 58 58 58 59 58 58 58 58 58 57 57 56 55 53 52 52 52 51 52 52 53 53 53 53 53 54 54 54 54 54 53 53 52 52 52 52 52 53 53 56 55 52 52 52 52 53 53 51 54 53 52 49 48 47 45 44 44 43 42 41
58 58 57 57 57 57 58 58 58 57 58 58 57 55 54 53 52 51 50 50 50 51 52 52 53 50 50 53 54 54 54 53 53 53 53 52 52 53 53 54 56 55 53 51 48 44 44 46 50 52 52 53 53 51 49 48 46 46 45 44 44 42 41
57 57 56 56 56 56 56 57 57 58 57 55 54 53 53 52 51 50 49 49 49 50 51 51 46 45 46 49 53 54 53 53 53 53 52 51 51 52 52 52 52 52 50 50 47 43 43 42 42 43 44 48 51 51 49 48 47 46 45 45 44 43 43
56 56 56 55 55 55 55 56 56 55 55 53 53 52 52 51 50 49 49 49 49 50 50 48 43 44 45 47 50 54 54 53 53 52 52 52 52 53 54 55 55 55 55 53 52 51 48 45 44 43 42 42 41 41 44 49 48 46 47 46 45 45 44
55 55 55 55 54 55 55 54 54 55 55 52 51 51 50 50 49 49 49 49 49 50 49 45 43 44 45 45 47 51 53 53 53 53 53 53 54 55 55 54 53 53 54 56 55 53 53 52 47 45 45 45 43 42 40 41 42 49 49 48 47 47 46
54 54 54 54 54 54 53 53 53 52 52 51 50 50 50 49 49 49 49 49 49 49 49 45 43 43 44 44 45 49 53 53 53 53 53 54 54 54 54 54 53 52 52 53 53 53 53 53 53 53 52 51 50 47 43 41 42 43 47 51 51 51 51
53 53 54 54 53 53 52 52 52 51 50 50 49 49 49 49 49 49 49 49 49 48 47 43 43 43 43 45 46 48 53 54 54 54 54 54 54 54 53 53 52 52 52 51 51 53 53 52 52 52 51 50 50 49 48 46 45 46 48 50 50 50 51
53 53 53 53 53 52 51 51 50 50 49 50 49 49 49 49 49 49 49 49 49 47 45 41 43 44 44 45 48 54 55 54 54 54 54 54 53 52 52 52 52 51 51 50 46 45 48 52 52 51 50 50 50 49 48 47 41 40 44 45 47 47 47
52 52 52 52 51 51 50 50 50 51 50 49 49 49 49 49 49 49 49 49 49 47 46 41 41 44 45 45 49 54 54 53 53 53 52 52 52 51 51 51 51 50 50 48 42 42 44 47 51 50 49 48 48 49 48 47 45 42 40 39 39 39 39
52 52 52 52 51 51 51 51 51 51 50 49 49 49 49 49 48 48 48 48 48 48 46 42 40 44 45 46 49 53 53 52 51 50 49 49 49 48 49 50 50 48 47 45 41 42 44 47 49 48 48 47 48 48 47 47 48 47 41 40 40 39 40
50 52 52 52 51 51 50 50 50 50 50 50 49 49 48 47 47 46 46 47 48 46 46 45 42 43 44 46 50 52 52 51 49 48 47 46 46 45 45 45 44 44 44 41 39 41 42 46 49 48 48 48 48 46 45 45 46 47 48 48 48 47 46
47 49 51 51 51 51 50 49 49 48 48 48 47 47 46 46 45 45 45 45 45 45 45 45 42 42 44 44 46 52 51 49 47 47 47 46 45 45 45 44 42 38 38 38 38 39 41 43 47 48 48 48 47 46 45 45 45 46 46 46 46 46 46
45 46 48 51 52 52 51 50 50 49 48 47 46 46 45 45 45 45 45 45 45 45 45 45 43 40 42 44 45 47 50 49 48 47 46 45 46 45 45 44 42 39 38 38 38 39 40 40 43 47 48 46 45 44 42 46 45 43 45 45 45 45 45
43 45 47 49 52 52 52 51 50 49 48 47 46 45 45 45 45 45 45 44 44 43 44 44 44 40 39 40 41 43 46 46 46 45 44 44 44 44 44 44 41 39 38 38 38 38 39 39 40 43 40 38 37 39 45 44 44 44 45 44 45 44 44
42 44 45 47 49 50 51 50 49 48 47 47 46 45 45 45 45 45 44 44 44 44 43 42 40 41 39 39 39 40 40 42 40 44 43 43 44 44 43 42 41 39 37 37 37 38 39 39 40 39 37 37 38 38 41 43 42 43 43 43 43 43 42
43 42 43 45 47 48 48 48 48 48 47 47 46 45 45 45 45 45 44 43 43 44 44 43 40 39 39 38 38 38 39 39 41 45 45 44 43 45 44 42 39 37 37 37 37 37 37 38 38 38 38 38 38 39 42 42 42 41 40 40 41 41 41

ECMWFFLT1_sfc_dewp_102.txt.gz
Dewpoint
63 65 66 66 67 66 66 66 66 67 66 66 67 66 66 66 66 66 65 65 66 66 66 66 67 66 66 65 65 66 65 64 63 62 62 61 61 60 62 63 63 63 63 61 61 56 56 55 59 63 63 62 65 64 63 62 61 62 63 64 64 62 62
65 65 65 65 66 67 66 66 66 66 67 66 66 66 66 66 66 66 65 65 66 65 64 66 66 66 67 66 65 65 63 64 63 63 62 61 62 60 61 62 62 62 59 61 61 60 56 55 56 58 60 62 63 63 64 62 61 63 62 64 62 61 61
64 64 65 64 65 66 65 65 65 66 66 66 66 65 66 65 66 65 65 65 66 65 65 65 64 65 66 65 66 66 65 65 64 63 66 62 62 64 62 63 61 62 59 58 58 58 58 57 56 56 62 59 59 62 63 62 63 64 62 62 61 61 60
64 64 65 65 64 65 65 65 65 65 65 67 67 66 66 65 65 65 66 66 65 66 66 67 65 65 66 66 66 67 67 66 64 64 64 64 65 64 63 62 61 61 60 57 57 57 57 57 55 56 58 59 61 60 61 61 61 61 59 61 60 59 59
64 63 64 64 66 65 64 64 65 65 66 65 65 66 66 66 66 66 66 66 65 66 67 66 66 65 66 65 65 65 65 66 66 65 64 65 65 63 64 62 63 63 62 61 61 57 59 56 56 55 54 57 58 56 59 61 60 59 58 58 56 56 57
64 64 64 64 65 65 64 64 65 65 64 64 64 63 66 65 65 67 66 66 65 66 67 66 67 66 64 66 66 65 64 64 65 66 66 64 64 64 63 63 66 63 62 63 64 58 58 58 57 55 54 54 55 57 58 58 58 57 57 56 54 54 55
64 64 64 63 65 66 65 64 66 64 63 63 64 65 66 65 64 65 65 65 65 65 66 64 66 64 65 64 64 64 65 66 66 64 66 66 66 65 65 65 65 64 63 64 59 62 59 59 56 57 57 56 56 55 57 57 57 54 55 54 54 53 54
64 63 63 64 66 65 65 66 66 64 63 63 64 65 65 65 64 65 65 65 66 66 67 65 65 65 65 64 64 65 63 65 65 66 65 63 63 63 63 63 62 64 63 59 60 59 57 58 57 58 57 56 56 56 55 54 55 54 54 54 53 52 54
65 65 64 65 66 66 65 64 65 65 64 64 65 64 64 64 64 65 65 65 66 68 66 65 64 65 65 65 65 66 63 63 64 63 65 64 64 64 65 64 63 64 61 59 59 59 56 58 59 59 58 56 55 54 55 55 54 53 54 53 53 52 52
63 63 64 65 65 64 64 64 64 65 65 65 64 64 64 64 65 65 65 65 64 65 64 65 66 65 64 67 64 64 63 64 64 62 64 64 64 65 66 65 66 65 64 62 60 59 60 60 58 59 57 60 58 56 54 53 54 54 53 53 51 52 51
62 63 64 64 64 63 64 63 64 65 65 65 64 64 64 64 65 65 65 65 65 66 65 65 64 63 65 65 64 65 65 65 65 64 64 63 64 64 65 65 64 65 61 62 61 62 62 62 59 59 57 55 63 59 53 51 54 55 54 55 54 52 52
62 62 63 63 64 63 63 63 64 64 65 64 64 64 64 63 64 65 65 65 65 64 65 65 65 64 64 65 65 65 64 63 63 64 65 64 64 64 63 63 64 66 62 63 62 63 63 62 60 59 58 57 57 59 57 55 55 58 56 55 54 53 50
62 61 62 64 65 62 62 63 62 63 64 63 64 64 63 63 64 65 65 65 64 64 65 64 64 64 65 64 63 64 63 62 63 63 62 63 62 63 63 63 62 62 61 61 62 62 62 62 62 58 58 58 60 60 56 53 53 56 57 55 54 52 51
62 62 63 63 63 63 62 62 62 62 62 63 63 63 62 62 62 63 63 64 63 63 63 64 64 64 64 65 63 63 62 61 60 65 64 62 60 61 63 61 61 62 62 61 60 61 60 60 61 60 59 57 56 59 57 56 53 55 57 57 55 50 51
62 62 62 63 63 62 62 62 63 62 63 63 63 62 62 62 63 63 63 63 63 62 63 63 64 63 63 64 64 64 64 60 60 61 64 61 61 60 61 60 58 59 59 59 59 57 58 59 58 57 57 56 63 61 58 53 52 58 55 56 52 50 50
62 63 63 63 61 63 62 63 63 62 63 63 63 62 62 63 63 63 63 63 63 62 62 62 63 62 63 64 63 64 64 63 62 61 61 59 58 59 60 60 59 60 60 60 60 59 59 58 56 53 55 55 55 56 55 54 53 52 52 52 52 49 49
62 62 63 62 62 63 62 62 62 62 62 63 62 63 63 63 63 63 63 62 62 62 63 63 63 63 63 63 63 63 62 62 62 61 60 59 58 59 61 61 60 61 61 60 60 60 59 59 57 55 54 54 56 56 58 58 55 52 50 50 50 44 47
62 62 62 62 62 63 63 62 62 61 62 62 63 63 62 63 63 63 63 62 62 62 62 63 63 63 63 63 63 64 63 61 62 62 62 62 61 60 61 61 60 60 61 60 61 60 58 60 56 55 54 54 55 57 58 57 55 52 50 49 49 48 48
61 61 62 62 63 63 62 62 61 61 61 62 62 63 62 62 62 62 62 62 61 62 62 62 62 62 62 62 63 63 62 61 61 60 60 60 60 60 61 60 61 60 60 60 61 60 60 60 56 57 56 54 53 57 58 57 56 53 50 48 49 48 49
61 60 61 61 62 62 62 62 61 61 61 62 62 63 63 62 64 63 62 63 62 61 62 64 63 62 62 63 62 62 62 62 62 60 61 60 60 61 61 60 61 61 61 61 61 61 61 60 60 58 58 58 55 57 58 57 53 53 52 51 48 48 48
59 60 61 61 61 62 61 61 61 61 62 62 63 61 61 63 62 62 62 62 62 63 63 61 62 62 62 64 63 62 61 62 61 61 63 61 61 61 61 61 61 61 60 60 62 62 62 61 61 60 60 60 58 58 58 56 55 54 53 52 49 47 47
59 59 59 60 60 61 61 62 62 61 62 62 62 61 62 62 62 62 61 62 61 63 63 63 62 63 62 62 61 62 62 61 61 62 62 62 62 61 60 60 60 60 63 59 53 55 56 57 61 60 60 60 58 58 57 56 55 53 52 52 50 50 47
57 59 59 59 59 60 61 62 62 62 61 62 62 62 61 62 61 61 61 60 62 62 62 63 61 56 56 60 61 61 62 62 62 62 62 62 62 62 62 62 60 56 53 52 49 45 45 47 49 59 61 61 59 58 57 56 54 52 53 51 50 49 49
57 57 59 59 59 59 60 61 61 61 62 62 61 61 62 60 60 61 61 60 61 62 62 61 53 51 52 53 57 60 61 62 62 62 62 62 62 62 62 59 59 55 55 52 50 43 42 42 42 43 43 45 49 65 59 57 55 54 51 51 51 51 49
57 57 57 58 58 60 61 60 60 60 61 61 61 61 62 60 60 61 61 61 61 61 62 54 48 48 49 52 54 58 59 60 61 61 61 61 61 60 59 59 59 59 59 58 55 53 48 42 41 41 41 41 40 40 42 58 58 56 56 52 52 52 52
55 56 57 57 58 59 59 59 59 58 59 61 61 60 61 61 59 60 59 59 60 60 58 43 45 45 47 50 52 54 55 57 57 58 59 58 59 59 59 59 60 59 55 55 55 54 53 51 44 44 44 45 45 45 42 42 43 59 56 55 54 53 51
54 55 56 56 57 56 58 57 57 58 58 60 59 58 59 59 58 58 59 59 59 56 55 44 43 45 46 47 50 51 54 57 57 57 58 59 60 60 59 59 58 57 56 56 56 55 54 54 54 56 56 55 55 54 48 47 48 49 54 56 54 55 56
54 54 54 54 54 54 56 55 55 55 56 56 56 57 56 56 56 57 58 58 55 53 49 40 42 43 44 46 48 50 57 58 58 58 59 60 60 59 59 58 57 56 56 56 56 55 56 56 58 58 58 57 55 54 52 51 52 55 58 58 58 59 58
54 53 53 53 52 52 53 53 54 55 55 55 55 56 56 56 56 55 57 56 55 52 49 39 42 43 44 46 48 58 60 60 59 59 59 59 58 59 57 57 57 57 57 59 52 49 53 57 57 57 56 56 54 53 50 44 40 42 49 53 53 51 50
53 53 52 52 51 51 52 52 53 55 54 54 54 54 53 54 55 56 56 56 55 53 50 42 41 43 45 46 51 58 59 58 59 58 58 57 58 59 58 58 58 58 59 58 46 47 49 51 56 56 56 56 55 54 52 51 42 40 39 39 39 39 39
52 52 51 51 51 51 51 52 52 52 52 52 51 52 53 53 53 53 53 54 54 52 51 45 41 41 43 40 49 59 57 58 58 57 56 56 55 54 51 47 55 57 57 57 41 46 46 55 56 56 56 55 54 54 53 52 50 47 40 40 40 40 40
51 51 51 51 51 51 51 51 51 52 52 51 51 52 52 50 51 52 53 53 51 53 52 48 41 41 41 42 54 58 56 56 56 55 54 53 54 53 52 47 44 48 52 47 39 41 42 51 56 55 56 55 53 53 53 52 52 52 52 52 53 54 51
50 51 50 51 51 51 50 51 51 51 51 51 51 51 51 49 49 49 49 50 50 52 51 49 44 41 42 43 44 59 56 54 54 55 53 52 52 52 51 50 45 38 39 39 39 40 40 42 55 56 55 54 52 51 52 52 54 51 50 49 51 51 51
49 49 49 49 50 50 50 50 50 50 51 51 51 50 49 49 48 47 47 48 48 46 48 49 45 40 41 42 44 48 54 54 52 53 50 49 49 49 48 47 46 40 38 39 39 39 40 41 44 54 54 53 53 51 48 51 53 47 50 50 50 48 48
48 48 48 48 48 48 48 49 49 50 50 50 50 49 49 49 48 47 47 46 46 46 45 44 46 41 40 41 42 44 50 51 50 49 49 47 46 46 46 46 44 40 38 38 38 39 39 40 42 47 46 39 40 43 51 49 50 49 47 47 46 45 45
46 47 47 46 46 46 46 46 47 48 48 48 49 49 49 48 48 48 49 48 47 46 45 43 40 43 39 40 40 41 42 47 44 52 49 47 47 46 46 44 43 39 37 37 37 38 39 39 41 41 37 38 39 40 43 45 45 45 44 44 45 44 43
44 45 46 45 45 45 44 45 45 45 46 46 46 46 46 46 46 46 46 46 46 47 46 45 41 39 40 39 39 39 40 40 42 49 50 49 48 46 45 44 40 37 37 37 37 37 37 38 40 37 38 39 40 41 42 42 41 44 43 42 41 43 42

ECMWFFLT1_sfc_dewp_105.txt.gz
Dewpoint
64 64 65 66 66 66 66 67 66 67 68 67 66 66 66 65 66 66 66 66 66 66 67 66 66 67 66 65 66 65 66 64 64 62 61 60 61 61 65 63 63 65 64 62 62 59 57 56 57 62 62 63 64 63 62 64 64 64 63 62 63 62 63
64 64 64 64 65 65 66 66 66 66 66 66 66 66 66 65 65 66 66 66 67 66 66 66 66 66 66 65 65 66 66 67 66 64 64 63 63 62 60 61 64 62 63 63 62 61 58 57 58 58 60 63 64 63 64 63 63 64 62 63 62 61 62
63 63 64 64 64 67 65 65 66 65 65 66 66 65 66 65 65 65 66 66 66 67 67 67 66 65 67 66 66 65 66 67 67 66 66 63 63 65 63 62 62 61 60 59 61 61 61 60 57 58 60 59 60 60 62 64 63 62 61 62 62 60 60
63 63 63 65 66 65 64 64 64 64 65 65 66 66 66 65 65 65 66 66 66 66 66 66 65 65 65 67 66 66 66 66 66 65 64 64 65 64 62 63 61 61 60 59 59 60 59 58 58 57 59 57 59 59 63 63 62 59 60 62 59 59 59
64 63 63 64 65 65 65 63 63 64 65 65 66 65 66 66 66 66 66 65 66 66 66 66 66 65 66 66 67 67 66 66 65 65 65 65 64 66 65 64 62 62 62 60 61 60 58 57 58 57 56 55 56 56 59 61 60 58 59 58 57 57 57
64 63 64 64 66 64 64 64 64 64 64 64 63 64 66 66 65 66 66 67 66 67 67 66 66 65 66 66 66 65 65 65 66 64 64 65 64 63 65 65 64 63 64 63 62 61 59 60 59 58 57 56 57 57 57 58 57 58 56 56 55 54 55
64 64 65 65 63 64 62 62 64 64 63 64 63 64 65 65 65 65 66 66 66 66 66 66 66 66 65 65 64 64 64 65 65 64 65 64 64 64 67 66 63 62 62 60 61 61 61 60 57 58 58 58 57 54 56 56 56 55 55 55 54 54 54
63 63 64 63 64 65 65 64 64 64 64 62 61 63 64 66 65 65 66 67 66 66 65 66 66 66 65 64 63 64 64 65 65 65 65 65 65 66 65 65 63 63 61 60 61 61 59 60 56 58 58 56 58 56 56 54 54 54 54 54 53 53 54
63 63 63 64 65 65 65 64 64 65 63 64 64 63 63 65 65 65 65 65 65 65 65 65 66 65 66 65 66 65 64 64 65 63 65 63 65 65 65 64 64 63 62 60 60 62 60 60 60 58 59 56 55 54 55 54 54 57 54 52 52 53 54
62 62 62 63 65 65 66 65 65 65 65 64 65 64 65 65 65 65 64 65 65 65 65 65 66 66 65 65 66 66 65 65 65 65 65 65 64 65 65 64 65 63 63 63 63 61 62 62 59 59 57 58 55 55 53 53 54 56 53 52 50 52 53
62 62 62 62 63 64 65 64 64 65 64 64 64 64 65 64 65 64 64 65 65 65 66 65 65 65 65 66 65 65 65 64 64 64 65 64 64 64 65 65 64 64 63 64 63 64 64 63 61 60 64 60 58 54 53 53 55 56 54 54 52 50 52
61 61 62 62 63 63 63 63 64 64 64 63 64 65 64 64 64 65 64 65 64 64 64 66 65 65 65 65 64 64 64 64 64 63 64 64 64 64 62 62 63 63 65 65 64 63 64 61 63 60 59 59 58 59 58 57 56 57 55 54 54 50 50
60 61 60 61 62 63 63 62 62 63 63 62 65 64 64 64 63 63 65 66 65 64 63 64 64 65 65 65 65 64 64 63 63 63 63 63 63 63 63 62 63 64 64 63 63 63 62 61 62 63 60 60 59 61 59 56 57 56 60 56 56 52 50
61 61 61 62 63 63 63 63 62 64 63 62 61 63 63 62 62 64 63 63 64 65 64 64 64 65 64 63 64 63 63 62 62 62 62 64 62 63 63 62 62 62 63 63 63 63 62 60 60 62 59 63 61 61 59 58 56 56 57 57 55 51 49
61 61 62 65 65 63 63 63 62 62 63 62 61 62 62 62 62 63 64 63 64 63 64 63 63 64 62 63 63 63 62 62 62 62 63 62 62 62 63 61 60 61 61 61 62 59 60 60 58 60 59 58 59 58 63 56 56 58 55 56 53 51 49
61 61 62 63 64 63 63 63 63 62 63 63 62 62 62 62 62 62 62 64 63 63 63 63 64 63 63 63 62 63 62 63 63 62 62 62 60 61 61 62 59 60 62 61 62 60 62 59 58 55 57 56 57 59 56 55 56 57 55 54 54 49 49
61 62 61 62 62 63 63 63 63 62 61 64 64 63 63 62 62 62 63 63 63 62 62 63 64 63 62 62 61 62 63 62 62 61 62 61 61 61 61 61 61 61 61 61 61 62 61 61 60 58 58 57 57 58 58 59 56 55 53 51 50 45 47
60 61 61 62 62 62 63 63 63 62 63 62 62 64 63 62 63 63 63 63 63 62 63 62 63 62 64 64 63 62 61 61 62 61 61 61 62 61 60 61 60 61 62 60 60 62 61 61 59 58 58 56 55 58 58 57 54 52 53 50 49 48 48
59 60 61 61 61 63 64 63 62 62 61 61 62 63 64 63 64 62 63 63 62 62 61 63 62 62 62 62 63 62 61 62 62 60 62 62 60 61 62 59 61 60 61 61 62 62 60 59 59 58 55 55 56 58 58 56 53 52 50 49 49 47 48
59 59 60 60 61 61 62 63 62 61 62 62 62 62 62 62 63 62 63 63 62 63 63 63 62 63 63 62 62 62 62 61 62 62 63 62 62 62 62 60 61 62 61 61 62 62 61 62 60 63 58 59 57 57 57 55 52 50 50 49 48 48 46
58 59 59 60 60 61 61 61 62 62 62 62 62 63 62 62 62 62 62 62 61 62 62 64 63 63 63 63 63 62 62 62 62 62 63 63 63 62 61 61 62 62 61 62 63 62 62 63 62 60 62 60 59 58 57 55 54 50 50 49 47 46 46
58 59 59 59 60 60 61 61 62 61 61 61 62 61 61 61 62 62 62 63 62 63 63 63 63 63 63 62 64 63 62 61 63 62 62 62 63 62 62 63 61 62 63 59 55 57 59 58 61 62 61 61 61 60 58 56 53 51 51 50 48 48 45
57 58 59 59 59 59 59 60 61 61 61 62 61 61 62 62 62 62 62 62 63 63 63 63 62 58 60 63 63 63 63 63 62 62 61 63 62 61 62 62 60 57 54 53 50 48 48 49 54 61 61 60 60 59 58 56 53 53 52 51 49 47 47
56 57 58 58 59 59 58 60 60 60 61 62 61 61 61 61 60 62 61 61 62 63 63 62 52 51 52 55 61 63 63 63 62 61 62 60 60 61 61 60 59 56 54 53 50 44 43 43 44 44 44 45 53 64 58 62 54 59 54 52 50 47 47
55 56 57 57 57 57 58 58 59 60 60 61 61 61 61 60 61 61 62 61 62 63 63 56 48 48 49 50 56 62 62 62 61 61 61 62 60 61 62 61 61 61 61 60 56 53 48 43 42 42 42 42 42 43 45 59 59 56 56 52 56 57 53
54 55 55 56 56 56 56 56 57 58 59 60 60 60 60 60 60 61 61 61 60 60 57 42 45 45 47 48 50 56 61 62 62 61 62 61 61 61 60 59 61 61 58 59 58 57 55 52 45 44 45 47 47 46 45 44 47 61 59 60 55 57 54
53 54 54 54 55 55 55 55 56 56 57 58 58 58 59 60 60 60 60 60 59 55 52 44 40 42 44 46 49 52 57 61 60 60 60 59 60 60 60 60 59 58 58 58 58 57 55 55 55 56 56 56 56 54 49 47 48 51 55 58 58 57 59
53 53 53 53 54 53 54 54 54 54 55 55 57 56 56 56 57 57 57 57 56 54 50 41 40 41 41 43 44 49 56 57 56 59 60 59 60 60 60 60 60 58 57 56 57 55 55 55 56 57 57 55 54 52 50 49 51 56 60 60 58 57 56
52 52 52 52 52 52 53 53 53 53 54 54 55 57 56 56 56 57 57 57 54 53 50 40 41 41 42 43 43 60 60 57 57 59 60 60 61 61 61 61 60 57 56 57 49 47 51 57 57 57 55 54 53 51 48 42 41 43 50 52 52 51 50
52 52 52 52 51 52 52 52 52 53 53 53 53 54 54 54 55 55 55 55 54 53 50 43 40 40 40 39 51 59 59 57 57 58 60 59 57 56 54 58 57 57 58 56 42 40 40 52 56 55 55 55 54 52 50 49 42 40 40 40 40 40 41
51 51 51 51 51 51 52 52 52 52 52 52 52 52 53 54 53 53 52 53 53 51 50 45 40 40 41 41 45 59 58 58 59 57 58 57 56 53 50 47 56 58 56 52 39 39 41 59 56 56 56 55 54 53 52 51 50 48 41 41 41 41 41
50 50 50 51 51 51 51 51 52 52 52 52 51 51 51 50 51 50 49 49 47 50 49 46 41 40 41 42 50 58 59 59 59 59 56 55 54 54 50 47 44 44 46 43 39 41 43 54 59 55 55 55 54 53 53 53 52 52 52 52 52 52 50
49 49 49 49 50 50 51 51 51 52 51 50 50 50 50 50 49 50 49 48 47 46 47 48 43 40 41 42 45 57 59 59 55 54 53 52 51 50 49 48 45 38 38 39 39 40 41 44 57 55 54 53 54 52 53 54 55 54 53 49 50 50 49
49 48 49 49 49 49 49 49 50 51 50 50 50 50 50 49 49 49 48 48 47 46 45 46 45 39 40 41 43 47 52 52 50 50 49 47 47 47 47 45 44 39 38 38 39 39 40 41 44 50 50 50 51 52 50 52 53 48 50 50 49 48 48
48 48 48 48 48 47 48 48 48 48 48 49 49 49 49 49 49 49 48 49 48 47 45 42 45 41 40 40 41 43 49 49 48 48 46 46 46 44 44 44 43 39 37 38 39 39 39 40 41 46 44 38 38 40 51 51 51 49 48 47 45 44 44
45 46 46 45 45 45 46 46 47 47 47 46 46 46 46 47 47 47 47 48 48 48 47 45 40 42 39 39 40 40 41 45 44 48 46 46 46 45 45 44 42 39 37 37 37 38 39 40 41 41 38 38 38 39 43 47 47 48 47 44 44 43 41
42 43 44 44 43 43 44 45 45 45 45 45 44 44 44 44 44 45 45 46 47 47 47 46 42 39 39 38 39 39 39 39 41 45 45 45 44 43 43 43 41 38 38 38 38 38 38 38 40 38 38 38 39 41 46 45 46 46 43 40 40 40 41

ECMWFFLT1_sfc_dewp_108.txt.gz
Dewpoint
65 67 68 69 69 68 67 67 68 69 68 66 67 66 66 66 66 66 66 65 65 66 66 65 65 66 66 65 66 66 65 64 64 63 62 64 61 62 64 63 64 64 63 62 62 59 58 57 58 61 63 63 63 63 63 64 63 62 63 63 63 63 65
66 67 67 67 68 67 66 67 67 67 67 68 66 66 66 65 66 66 66 66 66 65 65 65 65 65 65 65 65 65 65 65 65 64 64 63 63 62 63 63 63 63 62 63 62 62 60 57 57 58 59 62 62 63 63 64 63 64 63 63 64 63 64
66 67 66 68 67 67 67 68 67 68 67 68 67 66 66 65 66 66 66 66 66 66 65 65 65 65 65 64 64 64 64 64 65 64 63 64 63 64 64 63 63 62 61 61 61 61 61 61 58 57 59 59 59 60 63 63 63 63 62 64 64 64 64
65 65 66 65 66 66 65 66 67 66 67 66 67 67 67 66 66 66 66 66 67 67 67 67 65 65 65 65 65 64 64 64 65 64 64 64 64 64 64 64 62 61 59 60 60 60 59 59 59 58 58 58 59 59 62 63 63 62 65 63 63 63 61
65 65 65 64 64 63 64 65 67 67 65 65 66 67 67 66 66 67 66 66 67 66 66 67 66 65 65 66 65 65 64 65 65 64 64 63 64 63 63 63 63 63 62 61 60 61 59 60 59 57 58 57 58 59 62 62 62 62 63 62 60 60 58
66 66 65 65 65 63 62 64 65 64 65 65 65 64 65 65 65 66 66 66 66 66 66 66 66 66 66 66 65 64 65 64 65 64 64 64 64 63 63 64 64 63 62 63 64 61 62 64 61 59 57 58 57 57 60 61 60 59 61 60 58 57 56
65 65 67 64 64 65 64 63 64 64 64 64 65 63 64 65 65 66 66 66 66 65 66 66 66 66 66 66 65 65 65 65 65 65 65 65 64 64 65 63 63 63 63 64 64 63 62 61 60 59 58 57 59 56 58 59 58 57 58 56 56 55 55
65 65 65 65 65 65 65 64 64 65 65 64 65 65 64 64 63 65 66 66 66 65 64 65 66 66 65 65 65 65 65 65 65 65 65 65 64 63 64 64 64 64 64 63 63 62 62 60 60 60 60 57 57 56 57 58 56 56 55 55 54 54 55
64 64 64 64 65 67 66 65 65 65 65 65 65 64 64 64 64 64 65 65 66 65 65 65 65 65 65 65 65 65 64 65 65 64 65 64 64 63 64 65 65 64 64 63 62 63 62 64 64 60 61 58 55 54 56 55 55 55 55 53 52 53 55
64 63 63 63 64 64 65 66 65 65 65 65 65 64 62 63 64 64 64 64 65 65 64 64 65 64 65 65 65 65 64 64 64 64 64 64 63 64 65 64 63 64 64 64 65 65 63 63 63 65 62 60 57 55 54 53 54 55 54 52 51 52 53
63 62 63 63 64 64 64 65 65 65 64 65 64 63 63 63 64 64 64 64 64 64 64 64 64 64 64 64 64 64 64 64 63 63 64 64 63 65 65 64 64 64 64 65 64 63 66 63 63 62 62 62 62 59 55 53 54 56 54 53 52 52 53
62 62 62 63 63 63 63 63 64 64 64 64 64 63 62 61 63 64 64 63 64 64 64 64 64 65 64 64 64 65 63 63 62 62 63 63 64 64 64 64 64 64 64 65 64 64 64 63 62 61 62 63 60 59 59 56 54 56 55 54 52 53 52
61 62 62 62 63 62 63 63 62 63 63 63 64 63 62 62 63 64 64 63 64 63 64 65 65 64 65 64 64 64 64 64 63 63 63 63 63 63 63 63 63 63 63 64 64 64 63 63 63 61 62 61 61 60 60 59 56 55 60 56 53 52 52
61 61 62 62 63 63 63 63 63 64 63 63 63 63 63 62 62 63 63 62 62 63 64 64 65 64 64 64 63 63 63 63 62 63 63 63 63 63 62 62 62 63 63 63 63 63 62 63 63 63 61 60 60 61 58 57 56 57 59 59 57 51 51
61 61 61 62 62 62 62 63 63 64 64 63 63 63 63 62 63 62 62 63 63 64 64 63 63 64 63 63 63 62 63 63 62 62 63 62 63 62 63 62 62 63 63 63 63 62 61 62 62 61 61 60 61 62 59 57 57 56 56 57 57 56 52
59 60 60 61 62 62 62 62 62 62 62 62 63 63 63 63 62 62 63 63 63 63 64 62 64 64 63 62 62 63 63 62 61 62 62 62 62 62 63 62 62 62 63 62 63 62 62 61 60 60 60 60 60 61 60 58 57 56 55 56 55 51 50
59 59 60 60 61 62 62 63 63 63 63 63 62 63 63 62 62 63 63 63 63 63 63 64 64 64 63 63 63 62 63 62 63 62 62 62 62 62 62 62 62 62 62 61 62 63 62 63 63 61 61 60 60 62 62 60 57 56 55 54 52 48 50
58 59 59 60 61 62 62 63 63 62 63 63 62 62 64 64 63 64 63 63 63 63 63 63 62 63 63 62 62 62 62 62 63 62 62 62 63 62 61 61 62 61 61 62 61 62 61 63 62 62 61 61 60 61 61 61 58 58 55 54 53 51 50
58 59 59 60 61 61 61 62 62 62 62 62 63 64 63 62 63 63 62 62 63 63 63 63 64 63 63 63 63 62 63 63 63 63 62 62 62 63 62 62 62 63 62 62 62 60 61 60 61 61 61 62 61 60 60 60 59 56 55 53 52 49 49
58 59 60 60 61 60 60 62 62 62 62 62 62 61 62 62 63 63 63 63 63 63 62 62 63 62 63 63 63 62 62 62 64 62 63 63 63 63 63 62 60 61 61 61 62 62 61 62 60 60 61 60 61 61 59 57 55 53 54 52 50 49 50
58 58 60 60 60 60 60 60 62 62 63 62 62 61 62 63 63 63 63 63 63 63 63 63 63 63 63 63 63 63 62 62 63 64 63 62 63 62 62 62 61 61 61 61 62 61 62 61 61 61 60 61 61 59 60 58 55 52 52 52 49 48 49
57 57 58 58 58 58 58 59 60 61 62 62 62 61 62 63 63 63 63 63 63 63 64 63 63 64 64 64 63 62 63 63 62 62 63 63 63 62 62 63 62 62 62 62 58 58 60 59 60 60 60 61 60 59 60 58 57 53 51 52 49 50 49
55 56 56 56 57 57 57 58 58 58 60 61 60 60 60 61 61 62 62 62 63 63 63 63 61 57 58 63 62 62 62 62 62 62 62 63 61 61 62 63 62 61 57 56 55 53 52 54 57 60 60 61 61 60 60 60 57 55 51 51 49 49 47
54 54 55 55 56 55 55 55 55 56 57 58 60 60 60 61 61 61 61 61 61 62 58 50 43 44 49 54 62 63 63 62 62 62 62 62 61 61 62 60 57 56 55 53 52 47 45 46 46 45 46 51 58 62 59 58 59 57 58 57 54 50 48
53 54 54 54 54 54 54 54 54 54 55 56 58 59 60 60 60 61 59 57 56 55 53 45 41 42 42 43 48 60 62 62 62 61 62 62 61 61 61 60 59 59 58 55 52 49 47 44 43 44 44 44 44 44 48 57 58 57 58 55 57 57 54
53 53 53 53 53 53 53 53 53 53 54 55 56 57 57 57 57 57 57 56 54 53 50 42 41 42 41 41 40 50 61 62 62 61 60 60 61 61 61 61 61 61 59 57 56 52 50 48 46 46 47 48 47 45 43 44 49 59 60 59 56 56 58
52 52 53 52 52 52 52 52 53 53 53 54 54 55 55 55 55 56 55 54 53 51 47 42 41 42 42 42 41 47 58 62 62 62 61 61 61 62 61 61 61 60 59 59 56 54 52 52 54 57 55 53 51 49 46 46 49 51 55 58 58 57 58
52 52 52 51 51 51 52 52 52 52 52 52 53 53 53 54 54 54 54 54 52 50 46 40 41 41 41 42 44 51 58 60 60 60 60 60 61 62 62 61 61 60 60 59 57 54 54 56 56 54 52 50 48 46 46 47 51 55 56 57 53 52 51
51 51 51 51 51 51 52 52 52 52 51 51 52 51 50 49 49 50 51 52 51 50 47 40 40 42 42 42 49 58 59 59 60 60 56 54 53 53 58 60 59 59 57 53 47 49 54 56 54 52 51 50 48 47 45 43 42 45 50 50 49 47 46
50 50 50 50 50 51 51 52 52 51 51 51 51 50 49 48 48 47 47 48 49 48 46 42 40 41 42 44 52 57 57 59 59 56 54 53 51 49 48 54 59 56 53 51 44 46 48 51 54 53 52 51 50 48 47 47 42 41 41 41 41 41 41
49 49 49 49 50 50 51 51 51 51 51 50 50 50 49 49 49 48 46 46 46 47 46 43 41 42 43 47 52 58 57 58 57 53 52 51 50 49 47 45 48 48 50 49 42 44 47 53 55 54 52 51 50 50 49 49 48 45 41 41 41 42 42
48 49 48 49 49 49 49 50 51 51 51 50 50 49 49 48 48 48 46 46 45 45 45 43 40 41 42 44 53 57 56 55 54 53 50 49 48 47 47 45 43 42 44 42 39 41 45 53 57 55 54 52 51 51 51 52 51 51 51 51 51 51 48
47 47 47 47 48 48 49 48 48 49 50 50 49 49 48 48 47 46 46 45 44 44 45 44 41 40 41 43 45 51 51 49 48 48 48 47 45 44 44 44 43 38 38 38 38 39 40 42 50 52 54 53 52 52 54 54 55 53 51 50 50 49 48
46 46 46 47 47 47 47 47 47 47 47 47 48 48 48 47 47 46 46 45 44 43 43 43 42 39 40 41 43 46 49 49 47 46 46 45 44 42 42 42 42 39 38 38 38 38 38 39 41 45 45 45 47 49 49 50 49 47 49 49 49 48 47
44 45 45 46 46 46 46 46 46 45 45 45 45 45 45 46 46 46 46 46 45 45 43 42 42 39 38 39 40 42 46 46 46 45 44 44 44 43 43 42 41 39 38 38 38 38 38 39 39 43 40 38 39 41 47 47 48 47 46 46 44 43 42
41 42 42 43 43 43 44 44 43 43 43 42 42 43 43 44 44 44 45 46 46 46 45 43 40 40 38 38 38 39 40 42 41 45 43 42 43 42 43 42 42 40 38 38 38 38 38 38 40 40 39 39 38 40 43 46 45 46 44 43 42 43 43
39 39 40 41 41 41 42 43 42 41 41 40 40 41 41 42 42 43 43 43 44 45 46 45 42 40 40 38 38 38 38 38 40 43 43 42 42 42 42 42 41 38 39 39 39 39 38 38 39 38 40 40 41 41 43 42 43 45 44 42 44 44 43

ECMWFFLT1_sfc_dewp_111.txt.gz
Dewpoint
64 64 65 65 65 65 65 66 66 66 66 66 66 66 65 64 63 63 64 63 64 65 65 65 65 65 65 64 64 65 65 64 64 62 61 62 61 60 62 62 62 63 62 60 58 58 57 57 58 61 62 62 61 62 63 63 62 63 62 63 64 64 64
64 64 65 65 65 65 64 65 65 66 66 65 65 65 65 63 64 64 64 63 63 64 65 65 64 65 64 64 64 64 64 64 63 63 62 62 61 61 61 61 62 61 61 62 60 59 57 57 57 58 59 61 62 62 61 63 63 62 63 63 64 64 63
64 64 65 65 64 64 63 63 64 65 64 65 64 64 64 64 63 63 64 63 63 64 65 64 64 64 65 64 64 64 64 63 63 63 62 62 62 62 62 62 60 60 60 60 59 59 59 59 57 58 59 59 58 60 62 62 61 62 62 63 64 64 64
63 63 63 63 62 62 62 63 63 64 65 64 63 62 63 64 64 64 64 63 64 65 63 63 64 63 64 64 64 64 64 62 63 63 62 62 63 62 62 62 61 60 59 58 59 59 57 57 58 57 58 59 59 59 61 61 61 62 63 63 63 63 63
65 63 63 62 62 61 61 61 63 64 64 63 62 63 63 63 62 63 64 64 64 65 64 63 64 64 63 64 63 64 63 63 64 63 63 62 62 62 62 63 62 62 61 61 61 60 57 57 58 57 58 59 59 59 61 60 61 62 63 62 62 62 62
65 65 64 64 63 62 62 61 61 62 62 62 61 61 61 62 63 62 62 63 64 64 63 63 64 64 64 64 64 63 63 62 63 63 63 62 62 62 62 62 63 62 61 61 61 61 59 59 58 57 58 59 57 58 60 60 60 61 62 62 61 61 61
64 63 62 64 63 63 62 62 61 61 62 62 61 61 61 62 63 63 64 63 63 63 63 63 63 64 64 64 64 63 63 63 63 63 63 63 62 62 62 62 62 62 62 62 61 61 60 60 58 58 58 58 58 58 59 60 60 59 61 61 61 60 59
62 61 62 63 64 64 63 63 63 62 62 62 61 62 62 62 62 62 62 62 63 63 63 63 63 63 64 64 64 64 63 63 63 64 63 62 62 62 62 62 62 62 62 62 62 62 61 60 59 59 58 56 57 58 58 59 59 58 58 59 60 58 57
61 61 61 62 62 62 62 62 62 62 62 62 62 62 62 62 62 62 62 62 62 63 63 64 63 63 64 64 64 64 63 64 63 63 63 63 63 62 62 62 62 62 62 62 62 62 61 61 60 60 60 58 56 54 57 56 57 57 58 57 58 56 58
62 61 61 61 62 62 61 61 62 61 62 62 61 61 62 62 62 62 62 62 62 63 63 63 64 64 64 63 63 63 63 63 63 63 63 63 62 62 63 63 62 62 63 63 62 62 62 62 62 61 61 59 57 56 55 55 55 56 56 56 55 54 58
61 61 62 62 62 61 61 61 61 61 61 61 62 61 61 62 62 63 62 62 62 62 62 62 62 62 62 63 64 63 63 63 62 63 63 63 62 62 62 63 63 63 63 63 63 62 61 62 62 61 61 61 59 56 55 54 54 55 55 55 53 54 58
60 61 61 61 61 61 61 61 60 60 60 61 62 61 61 62 62 61 62 62 62 62 63 63 62 62 62 63 64 63 63 63 62 62 62 62 62 62 62 62 62 63 63 63 62 62 62 61 61 61 61 61 60 58 56 55 53 55 55 53 53 56 58
60 60 60 61 61 61 61 61 61 60 61 61 61 62 62 62 62 61 62 62 62 62 62 63 62 62 62 63 63 61 62 62 62 61 62 63 63 62 62 63 63 62 63 63 62 62 62 62 61 61 61 60 60 60 59 57 55 54 56 53 53 56 58
58 59 59 60 60 60 60 61 61 61 62 61 61 61 61 61 61 61 61 62 62 61 60 61 63 63 63 63 62 62 63 62 62 62 62 62 63 62 62 63 62 62 63 63 62 62 62 62 61 60 61 61 60 60 58 56 55 55 57 58 54 56 57
58 58 58 59 59 60 60 60 60 61 61 61 61 61 61 61 61 61 61 61 61 62 61 62 62 62 61 62 62 63 62 61 62 62 62 62 62 62 62 62 62 62 62 62 62 63 61 61 61 61 60 59 60 59 58 56 56 56 55 56 53 54 56
58 58 58 58 58 59 60 60 61 61 61 61 62 62 61 62 62 62 61 61 61 61 62 62 62 61 61 61 62 61 61 61 61 61 61 62 62 62 62 61 61 62 62 62 62 62 62 61 62 61 60 61 60 60 59 58 56 55 55 54 53 52 52
58 58 58 59 59 60 61 61 61 61 60 61 61 61 61 61 62 61 61 62 61 61 62 61 61 62 62 62 61 61 61 61 61 61 61 62 62 62 62 61 61 61 62 61 62 61 61 61 60 59 60 60 60 60 60 60 58 55 54 53 51 50 49
57 58 58 59 60 60 61 60 61 61 61 61 61 61 61 62 62 62 62 61 62 62 61 61 61 61 61 61 62 61 61 61 61 61 61 62 62 62 61 61 61 61 61 61 60 60 60 60 61 60 60 60 60 60 60 60 59 57 54 53 52 50 50
57 57 58 59 59 59 59 60 60 60 61 61 62 62 61 61 61 61 61 61 61 61 61 61 61 60 61 61 61 61 61 61 61 61 61 61 61 61 61 60 61 61 60 60 60 60 60 60 60 60 59 60 60 59 59 59 60 58 58 56 51 49 49
56 56 57 57 57 57 57 57 57 59 60 61 61 61 61 61 61 61 60 61 61 61 61 61 61 61 61 61 61 61 61 60 60 60 61 62 61 61 61 61 61 61 60 60 60 60 59 59 59 59 60 60 60 58 58 58 59 58 57 56 54 49 48
55 55 56 56 55 55 55 55 55 56 58 59 59 59 60 61 61 62 61 61 61 62 61 61 61 61 61 61 61 60 60 60 61 61 61 61 61 61 61 61 60 61 61 61 60 60 60 59 59 59 59 60 59 58 58 57 57 57 56 56 51 48 48
55 55 55 54 54 54 54 54 54 55 56 57 58 58 59 60 59 59 58 58 59 59 59 61 61 61 60 61 60 61 60 60 61 61 61 61 61 61 61 61 60 61 61 62 58 58 59 58 59 59 59 59 58 58 57 57 56 57 55 54 49 49 48
54 54 54 53 53 53 53 53 54 54 55 55 56 57 57 57 56 55 55 55 55 53 52 51 49 51 55 60 61 61 60 60 60 60 60 60 61 61 60 61 62 61 59 58 56 55 53 53 56 59 59 59 58 58 58 57 56 55 54 51 48 48 46
53 53 52 52 53 53 53 53 53 53 53 54 55 55 55 55 55 55 53 53 52 52 50 48 43 41 42 48 60 60 59 59 59 60 60 60 59 59 59 58 57 58 57 57 55 51 50 51 51 52 53 55 57 58 57 57 57 55 51 49 48 47 45
52 52 52 52 52 52 52 52 52 52 52 52 52 52 52 53 53 53 52 51 50 50 49 45 40 42 43 43 50 60 60 59 59 60 60 60 60 59 58 57 57 58 57 56 53 51 47 45 46 46 48 48 51 51 52 56 56 54 53 52 50 48 45
52 52 52 52 52 52 52 51 51 51 50 50 49 49 48 48 49 51 52 51 50 48 47 43 40 42 42 43 48 56 60 60 59 59 59 59 59 59 58 58 59 58 57 56 55 52 51 50 46 45 46 46 45 43 44 49 52 57 57 54 55 54 54
51 51 52 52 52 52 51 51 51 51 50 49 48 48 47 46 47 47 49 50 50 49 46 43 40 43 46 46 49 54 58 56 54 53 54 55 58 59 59 59 58 57 58 56 55 55 56 55 54 52 51 50 49 48 46 46 47 49 53 57 55 53 52
50 51 51 51 51 51 51 51 50 50 50 49 48 48 47 46 46 46 47 48 49 48 47 41 42 47 48 49 49 51 54 53 52 50 50 50 50 53 57 59 58 57 57 57 57 56 56 54 52 50 48 48 47 46 47 49 53 53 51 51 51 51 51
49 50 50 50 50 51 51 50 50 50 49 48 48 47 46 46 45 44 45 46 47 47 47 41 42 47 48 48 49 53 53 51 50 49 48 48 47 48 50 52 53 53 53 54 52 49 51 54 52 49 48 47 46 46 45 44 43 45 48 47 47 46 45
49 49 49 49 49 49 50 50 50 49 48 48 47 46 45 45 44 44 44 44 45 46 45 42 41 46 47 48 49 52 51 50 48 47 47 47 46 46 46 48 48 48 48 47 43 44 47 49 52 49 49 48 47 47 46 46 42 41 41 40 40 40 40
48 48 48 48 48 48 48 49 50 49 48 47 46 45 45 44 44 44 43 43 44 44 44 42 41 44 45 46 49 51 50 49 48 47 46 46 46 45 45 45 47 45 44 44 41 43 46 50 52 50 49 48 47 47 47 48 47 45 42 42 41 41 41
47 47 47 47 47 47 47 47 48 48 48 48 47 46 45 44 44 43 43 43 44 43 42 42 40 41 42 44 48 50 48 47 46 46 45 44 45 44 44 43 43 42 43 41 39 39 41 50 53 52 49 48 48 48 48 49 50 49 48 46 45 45 44
46 46 46 46 46 46 46 46 46 46 46 46 46 46 45 45 44 43 43 42 42 42 42 41 40 39 41 42 43 49 48 46 44 44 44 45 44 43 43 43 42 38 38 38 38 39 39 41 48 50 52 51 49 49 51 52 50 47 45 45 45 45 44
43 44 44 45 44 44 44 44 44 44 44 45 44 44 44 44 44 43 43 42 42 42 42 41 40 38 39 40 40 43 45 45 44 43 43 42 43 42 42 42 42 38 38 38 38 39 39 40 42 46 46 47 46 47 47 48 47 46 46 45 44 43 43
42 43 43 43 42 42 42 43 43 43 43 43 43 43 43 43 43 43 43 43 42 42 42 42 42 39 38 39 39 40 42 43 43 43 42 42 42 42 42 42 41 39 37 37 38 38 39 39 40 45 42 39 40 41 47 45 44 43 43 43 42 41 42
40 42 42 41 41 41 41 41 41 41 41 40 41 41 41 41 41 41 42 42 43 42 42 42 40 41 39 38 38 38 39 41 40 43 41 41 41 42 42 42 42 39 37 37 37 38 38 39 41 41 39 39 40 41 44 46 44 44 44 43 43 42 42
37 38 40 40 41 40 41 41 40 40 40 40 40 39 40 40 40 40 40 40 41 42 42 42 41 40 40 39 39 38 38 38 39 42 42 41 42 42 42 41 40 38 38 38 38 38 38 39 40 38 39 40 40 42 46 46 45 44 42 42 42 42 42

ECMWFFLT1_sfc_dewp_114.txt.gz
Dewpoint
62 63 64 64 65 65 64 64 64 64 65 65 65 64 64 63 63 63 63 63 63 63 64 65 65 65 65 65 65 65 65 64 64 62 61 61 60 60 61 61 61 62 61 60 58 57 56 55 57 61 62 62 62 62 62 61 61 61 62 62 62 62 62
63 63 64 64 63 63 62 63 63 63 63 63 63 64 63 63 63 63 63 63 63 63 64 64 65 65 65 65 65 65 64 64 63 63 62 61 61 60 60 60 61 60 60 60 60 59 58 57 57 58 58 60 61 62 62 62 62 62 62 62 63 63 62
61 62 63 63 62 62 62 62 62 62 63 63 63 63 63 63 62 62 62 62 62 63 63 63 64 64 65 65 65 65 64 64 64 63 62 62 62 62 61 60 60 60 59 59 59 58 58 58 57 58 59 58 57 60 62 62 62 61 62 62 63 63 63
62 62 62 61 61 60 59 60 61 62 62 62 62 62 61 61 61 62 62 62 62 63 63 63 63 64 64 65 65 65 64 64 63 63 62 62 62 62 61 61 60 60 59 57 58 58 57 56 57 58 59 59 58 58 61 62 62 62 62 62 63 63 63
64 63 62 61 61 61 60 60 60 61 62 61 61 61 60 61 61 62 62 62 63 62 62 63 63 64 64 64 64 63 64 64 63 63 62 62 62 62 62 62 61 61 61 59 59 59 58 57 57 57 58 59 59 59 61 61 62 61 62 62 63 63 63
65 65 64 62 62 61 61 61 60 60 60 61 60 60 61 61 61 61 61 62 62 63 63 63 64 64 63 63 63 63 62 63 63 62 62 62 62 61 61 62 62 61 61 61 61 59 59 58 58 57 58 59 58 59 60 61 60 61 62 62 62 63 63
64 63 63 63 63 62 62 61 60 60 60 60 60 60 61 61 61 61 61 61 62 62 62 62 63 64 63 63 63 62 62 63 63 62 62 62 62 62 62 62 62 62 62 61 62 60 59 58 58 57 58 59 58 58 60 60 60 59 61 62 62 62 62
62 62 62 62 62 62 62 62 61 60 61 61 61 61 61 61 61 60 61 61 62 62 62 62 62 63 63 63 63 63 62 62 62 63 63 62 62 62 61 62 62 62 62 62 61 61 60 59 58 58 58 57 57 58 58 59 59 59 59 61 61 60 61
61 60 60 60 60 59 60 60 60 60 61 61 61 61 61 61 61 60 60 61 61 62 62 62 62 62 63 62 62 63 62 63 63 63 62 63 62 62 61 62 62 62 62 62 62 62 61 61 59 59 59 58 56 55 57 57 58 58 60 59 60 60 59
59 59 59 59 60 60 60 60 59 60 59 60 61 60 61 61 61 61 61 61 61 62 62 62 62 62 63 62 62 62 62 63 63 62 63 62 62 62 62 61 61 61 62 62 62 62 62 61 60 60 59 58 57 57 55 56 57 57 58 59 58 59 58
60 60 60 60 60 60 60 60 59 60 59 60 60 60 61 61 61 62 61 61 61 62 62 62 63 63 62 62 62 62 63 63 63 62 62 63 62 62 62 62 62 62 62 62 62 62 62 61 61 60 60 60 59 57 57 56 56 57 57 57 57 56 59
58 58 58 58 58 59 59 59 59 59 60 60 60 60 60 60 60 61 61 62 61 61 62 62 62 61 61 61 61 62 62 62 62 62 62 62 62 62 62 62 62 62 62 62 62 62 61 61 61 61 61 60 59 58 57 56 54 55 57 56 56 57 59
57 58 58 57 58 58 59 59 59 59 60 60 60 60 60 60 61 61 62 62 62 62 62 62 62 62 62 61 61 62 62 62 62 62 62 62 63 62 62 61 62 62 62 62 62 61 60 61 61 61 60 60 59 59 58 56 55 55 56 56 55 58 59
57 57 57 57 57 58 60 60 59 60 60 60 60 60 60 60 60 60 61 61 61 61 61 61 62 62 62 61 62 62 62 62 62 61 61 61 62 62 61 61 61 62 62 62 62 61 61 61 61 61 59 59 58 58 58 56 55 55 55 56 56 58 59
58 58 58 58 58 59 60 60 60 60 59 59 59 60 60 60 60 60 60 60 60 60 61 61 61 61 62 62 62 62 62 61 61 61 61 61 61 61 61 61 61 62 62 62 61 62 62 61 61 60 60 60 59 59 59 57 56 56 55 54 56 58 59
58 58 59 59 59 59 59 59 60 59 60 60 60 60 61 61 61 60 60 60 61 61 62 62 62 62 62 62 62 62 61 61 61 61 60 61 61 61 61 60 61 62 62 61 61 62 62 61 61 60 60 60 60 59 60 60 57 56 55 54 56 57 58
57 57 57 57 56 57 57 58 59 59 59 60 60 60 61 61 61 61 61 61 61 61 61 61 62 62 62 61 62 62 61 61 61 61 61 61 61 61 61 60 60 60 61 61 61 61 61 61 61 60 60 59 60 59 59 59 59 57 55 54 54 56 57
56 56 55 55 55 55 55 56 57 58 59 59 59 60 60 60 61 61 61 60 60 61 61 62 62 61 61 61 61 61 61 60 60 61 61 61 62 62 61 60 60 60 60 60 60 60 60 60 60 60 59 60 60 59 59 59 59 58 57 55 54 55 56
55 54 54 54 54 54 54 55 55 56 57 58 58 59 59 59 60 59 60 60 60 61 61 62 61 61 60 60 61 61 60 60 60 60 60 61 61 62 62 61 61 61 60 60 60 60 60 59 60 59 59 59 59 59 59 59 58 58 58 56 55 52 55
54 53 53 53 53 53 54 54 55 55 56 57 56 57 57 56 56 57 57 57 58 60 61 61 61 61 61 61 61 60 60 60 60 60 60 61 60 60 61 61 60 61 60 60 59 59 59 59 59 59 59 59 59 59 58 58 58 58 57 56 55 53 52
53 53 53 52 53 53 53 53 54 54 55 55 55 55 55 55 54 54 55 55 55 55 55 56 57 58 60 60 60 60 60 60 60 60 60 60 60 60 60 60 60 60 59 60 60 60 60 59 59 58 58 59 59 58 57 57 57 57 57 56 55 53 50
53 52 52 53 52 52 52 52 52 52 52 52 53 53 53 54 53 52 52 52 53 52 52 52 52 51 55 60 59 59 58 59 59 59 59 59 60 60 60 60 59 60 61 60 58 58 58 58 59 58 58 59 58 58 57 57 57 57 56 55 54 51 48
52 52 52 52 51 51 51 51 50 50 49 49 49 50 50 50 51 52 51 51 51 51 51 50 49 46 45 55 60 60 59 59 59 59 59 59 60 60 60 60 60 61 59 58 55 53 53 53 55 58 59 59 58 58 57 57 57 57 56 54 53 51 48
52 52 52 52 51 51 51 50 49 49 48 48 48 48 48 48 48 49 50 51 50 50 50 48 43 41 43 51 60 60 59 59 59 59 59 58 58 59 58 58 57 59 58 57 55 50 50 50 50 52 53 55 56 58 57 56 56 56 55 54 53 50 48
52 52 52 51 51 50 50 50 49 48 48 47 47 47 46 46 46 47 49 50 50 49 48 46 42 44 47 48 52 57 56 56 57 58 58 59 58 57 57 57 57 58 57 57 54 52 52 49 48 46 46 49 52 53 51 55 56 56 55 54 52 52 48
51 51 51 51 51 50 49 49 48 48 47 47 46 45 45 45 45 46 47 48 49 49 47 44 44 45 45 45 46 50 51 51 51 50 51 53 56 57 57 57 56 56 56 57 57 54 53 51 45 44 44 45 45 44 41 42 46 55 55 54 53 52 51
50 50 51 51 50 49 48 48 47 47 46 46 45 45 45 44 45 45 46 48 49 48 46 44 44 44 44 44 45 47 50 49 48 48 48 48 50 51 56 57 55 54 55 55 55 55 55 54 53 52 52 52 52 50 47 46 44 48 53 56 54 52 52
49 49 50 50 50 49 48 47 46 46 45 45 44 44 44 44 44 45 46 47 47 47 45 42 43 43 43 44 44 46 49 48 48 47 47 47 47 48 49 52 55 55 55 54 53 53 54 53 52 50 50 48 47 47 47 48 51 52 52 51 51 51 50
49 49 49 49 49 49 48 47 46 46 45 44 44 44 43 43 43 44 45 45 45 45 44 40 41 42 43 43 44 49 48 47 47 47 46 46 46 47 48 49 50 51 52 51 47 44 48 52 51 49 48 48 47 46 44 43 41 44 47 48 48 48 46
48 48 48 47 47 48 48 47 47 46 45 44 43 43 43 42 43 43 43 44 44 43 43 40 39 41 42 43 45 48 47 47 46 46 45 46 46 45 46 47 48 48 48 47 44 43 44 48 50 49 48 47 47 46 46 45 42 40 40 40 40 40 40
47 47 46 46 46 46 46 47 47 46 44 43 43 42 42 42 42 42 42 43 43 42 42 41 39 40 41 42 45 48 47 47 46 45 45 45 45 45 45 45 47 45 45 44 41 43 45 49 50 50 49 48 48 48 48 48 47 45 41 41 41 40 41
45 45 45 46 46 45 45 45 45 45 44 43 43 42 42 41 41 41 42 42 43 41 41 41 39 39 40 41 45 46 46 46 45 45 45 44 44 44 44 44 43 42 42 41 39 40 43 49 52 51 50 50 49 48 49 48 45 45 46 46 46 45 45
44 44 44 44 45 45 45 44 44 44 43 43 42 42 42 41 41 41 41 41 41 41 41 40 39 38 39 40 41 44 44 44 43 43 43 43 43 43 43 43 42 38 38 39 39 39 40 42 47 48 50 49 48 47 48 47 46 45 43 44 44 44 44
42 43 43 43 43 43 43 43 43 42 42 42 42 42 41 41 41 41 41 41 41 41 41 40 39 38 38 39 39 41 42 42 42 42 42 41 42 41 42 42 42 39 38 38 38 39 39 40 42 45 45 45 45 46 44 45 44 43 44 44 44 44 42
42 43 42 41 41 41 41 41 41 41 41 40 40 40 40 40 40 40 41 41 41 41 42 42 41 39 38 38 38 39 41 41 42 41 40 40 41 41 41 42 41 39 38 38 38 38 39 39 40 45 43 40 40 41 46 46 45 44 44 43 43 44 44
41 42 41 41 40 40 40 40 40 40 39 39 39 39 39 39 39 39 40 40 41 41 41 41 40 40 38 38 38 38 38 39 39 41 40 40 40 40 41 42 42 40 38 38 38 38 38 39 40 40 38 39 40 41 43 46 44 45 44 44 43 43 43
39 40 41 40 40 39 39 39 39 39 39 39 39 38 38 38 38 38 38 38 39 40 41 41 40 39 39 38 38 37 37 37 38 40 40 40 40 40 40 41 40 38 38 38 38 38 38 39 40 38 39 39 40 41 45 44 44 43 42 42 43 43 43

ECMWFFLT1_sfc_dewp_117.txt.gz
Dewpoint
60 60 61 62 63 63 63 63 62 63 63 63 63 63 63 63 63 62 63 63 63 63 63 63 63 65 65 66 65 65 65 65 63 61 61 62 60 59 61 61 61 61 61 60 59 57 55 55 57 60 61 61 61 62 62 62 61 61 60 61 61 60 60
61 61 62 62 62 63 63 62 62 62 62 62 62 63 63 63 63 62 62 63 63 63 63 63 63 64 64 64 65 65 65 64 64 64 62 62 61 60 60 60 60 60 60 60 60 59 56 55 55 57 58 61 61 61 62 62 62 61 61 61 61 61 61
60 60 60 61 60 60 62 62 61 61 61 62 61 62 62 62 62 62 61 61 61 61 63 63 63 63 63 64 64 65 64 64 64 64 63 62 62 61 61 60 59 59 59 59 59 58 57 57 55 56 57 58 57 59 62 62 62 61 61 61 62 62 61
60 61 60 60 60 59 59 59 61 61 61 61 61 61 61 62 61 62 61 61 61 62 62 61 62 62 63 63 63 64 64 64 64 64 63 63 63 61 61 61 60 59 58 57 58 58 58 56 55 56 57 58 58 58 60 62 62 61 61 62 62 62 62
62 62 61 60 60 60 59 59 60 62 62 62 62 62 62 61 61 61 61 61 61 61 62 62 62 62 63 63 63 63 63 63 63 63 62 62 62 62 61 61 60 60 60 59 59 59 58 58 57 56 57 58 58 58 60 61 62 62 62 62 62 63 62
64 63 63 61 61 61 60 59 59 60 61 61 62 61 61 61 60 60 60 60 61 61 62 62 62 63 63 63 63 62 62 62 62 61 61 62 62 61 61 61 61 61 60 61 61 60 60 59 58 57 58 59 58 58 60 61 60 61 62 62 62 63 63
61 61 61 61 61 61 61 60 60 60 59 59 59 59 61 60 60 60 61 60 60 60 61 61 62 62 63 63 63 63 62 62 62 62 62 62 62 62 62 61 61 61 61 61 61 61 60 59 58 57 57 59 58 58 60 60 60 60 61 62 62 63 63
60 59 59 60 60 60 59 58 59 58 58 60 60 61 61 60 60 60 60 60 60 61 61 62 62 62 62 63 63 63 63 62 62 62 62 62 62 62 62 61 61 61 61 62 62 61 61 60 59 58 58 56 57 58 58 60 60 60 59 61 62 62 63
60 59 59 58 58 58 58 58 59 58 59 59 60 60 61 60 60 60 60 60 61 62 62 62 62 62 62 62 62 62 62 63 62 62 62 61 61 62 62 62 61 61 62 62 62 62 62 61 61 60 59 57 56 55 57 57 58 59 60 60 61 62 62
59 58 57 57 57 58 57 58 57 58 58 58 59 60 60 60 60 60 60 61 61 62 62 62 62 62 62 62 62 62 62 62 62 62 62 62 62 62 62 61 61 61 61 62 62 62 62 61 61 61 60 58 57 56 55 55 56 57 59 60 59 60 61
58 58 57 56 57 57 57 58 58 58 58 59 59 59 60 60 60 61 60 60 61 61 62 62 62 62 62 62 62 62 62 62 62 62 62 62 62 62 62 61 61 61 61 62 62 62 62 61 61 60 60 60 59 56 56 55 56 58 58 60 60 59 60
58 57 57 58 57 57 57 58 58 58 58 59 59 59 59 59 59 59 60 61 60 60 61 61 62 62 62 62 62 62 62 62 62 62 62 62 62 62 61 61 61 60 61 61 62 62 62 62 61 61 61 60 59 58 57 56 55 57 59 58 59 59 59
57 56 56 56 57 58 60 59 59 59 59 59 59 59 60 60 60 60 61 61 60 61 61 62 62 62 62 61 61 61 61 61 61 61 62 62 62 62 61 61 61 61 61 61 61 62 62 61 61 61 61 60 60 59 58 56 55 55 58 58 58 58 59
57 58 58 58 58 58 58 58 59 59 60 60 60 60 60 60 60 61 61 61 61 61 61 61 62 62 61 61 61 61 61 61 61 61 61 61 62 62 62 61 61 61 62 61 61 61 61 61 61 61 61 60 59 59 59 57 55 54 55 57 57 57 59
58 57 56 56 56 56 56 57 58 58 58 60 60 60 60 61 61 61 61 61 61 61 61 61 62 62 61 61 61 62 62 62 61 61 61 61 61 62 61 61 61 62 62 62 62 61 61 61 61 60 60 60 59 59 59 57 56 55 55 54 56 58 59
56 55 55 55 54 54 55 55 57 57 58 59 59 59 60 60 60 61 61 61 61 60 61 61 62 62 61 61 61 62 62 62 61 61 61 60 60 61 60 61 61 61 62 61 61 61 61 61 61 60 60 60 59 59 59 59 57 56 55 54 56 57 58
54 53 53 53 53 53 53 54 56 56 57 58 57 58 58 57 57 57 58 58 59 60 60 61 62 62 62 62 62 62 62 61 61 61 60 61 61 61 61 60 60 61 61 61 61 61 61 61 60 60 60 60 59 59 59 59 58 57 55 55 56 57 58
53 52 52 52 52 53 54 54 55 55 56 56 56 56 56 55 55 55 55 55 56 56 58 61 61 61 61 61 61 61 61 61 60 60 60 61 61 61 60 60 60 60 60 60 60 60 60 60 60 60 60 60 59 59 59 59 58 58 57 56 56 57 58
52 51 52 52 52 53 53 53 53 53 54 54 54 54 54 54 54 53 53 53 53 54 55 57 58 59 61 61 60 61 60 60 60 60 59 60 61 61 61 61 60 60 60 59 59 59 60 60 60 59 59 59 59 59 58 58 58 58 57 56 56 55 57
52 51 52 52 52 52 52 51 51 50 51 51 51 50 51 51 52 52 52 52 52 52 53 53 54 55 57 60 60 59 57 59 59 59 59 60 60 60 61 61 61 60 59 59 59 59 59 59 60 59 59 59 59 59 58 58 58 57 57 56 55 55 56
52 52 52 51 51 51 51 50 50 49 49 49 49 49 48 49 49 50 51 52 51 52 52 52 52 52 53 57 59 58 59 59 59 59 60 60 60 59 60 60 60 60 60 60 59 59 59 59 59 59 59 59 59 58 58 57 57 57 56 55 55 54 56
52 51 51 51 51 50 50 49 49 49 48 48 48 48 47 48 48 49 50 51 51 51 51 51 51 51 51 55 59 58 58 59 58 59 59 59 60 60 60 60 59 60 61 61 58 57 58 58 59 58 58 59 58 58 57 57 57 56 56 55 54 53 54
52 51 51 50 50 50 49 49 48 48 47 47 46 47 46 47 47 48 49 49 49 50 49 50 50 48 48 54 59 59 58 57 57 58 58 58 59 59 59 59 60 60 59 58 56 53 53 54 56 58 58 58 58 58 57 57 57 56 56 55 54 53 52
51 51 51 50 49 49 48 48 47 47 46 46 46 46 46 46 46 48 49 48 48 48 47 46 43 43 43 47 53 52 52 52 52 52 53 54 56 57 57 57 57 59 58 58 56 51 48 50 51 52 53 55 57 58 57 57 57 56 56 55 55 53 52
51 51 50 49 48 48 47 47 46 46 45 45 45 45 45 45 47 48 48 48 46 47 46 45 42 42 43 44 47 50 49 49 49 49 50 50 51 54 56 56 56 57 57 58 57 55 51 49 49 50 50 49 47 46 51 56 57 56 56 55 54 53 52
51 50 49 48 47 47 46 46 45 45 44 45 44 44 44 45 45 47 47 47 46 45 44 42 41 42 42 42 43 47 48 47 47 47 47 48 49 50 53 55 55 55 55 57 56 54 53 50 45 44 45 46 46 44 41 42 48 56 57 56 55 54 53
50 49 48 48 47 46 46 45 45 45 44 44 43 43 44 44 44 45 46 46 46 44 43 41 40 41 42 42 42 45 47 47 47 46 46 47 47 48 50 52 53 52 52 53 55 55 54 54 54 51 49 48 47 45 44 43 45 50 53 56 55 53 52
49 49 48 48 47 46 46 45 44 44 43 43 43 43 43 43 43 44 44 45 45 44 42 40 40 40 41 42 43 44 47 46 46 46 46 46 46 47 48 49 50 50 50 51 50 52 53 52 50 48 47 47 46 45 44 43 45 50 53 54 52 51 51
48 47 47 47 47 46 45 44 44 43 43 42 42 42 42 42 42 42 42 42 43 42 42 39 39 40 40 41 43 47 46 46 45 45 45 46 46 47 47 47 47 48 48 48 45 43 47 51 49 48 47 47 47 47 45 43 41 41 44 45 46 45 44
47 46 46 45 45 45 44 44 43 43 42 42 41 41 41 41 41 41 41 41 41 41 41 39 39 39 40 41 44 46 46 45 45 45 45 45 45 45 45 46 46 46 46 45 43 43 44 47 49 48 47 47 47 47 47 48 43 41 41 40 40 40 40
46 46 45 45 44 44 44 43 43 43 42 41 41 41 41 40 41 41 41 41 41 40 40 39 38 39 39 40 43 44 44 44 44 44 44 44 44 44 45 45 47 45 45 44 41 42 45 48 49 48 47 46 45 45 46 47 47 47 43 42 42 41 41
46 45 45 44 44 43 43 43 43 42 42 41 41 41 41 40 40 40 40 41 42 40 39 39 38 38 38 39 42 43 43 43 42 43 43 43 43 43 43 43 43 42 43 42 40 41 42 47 48 48 47 45 45 44 45 46 46 46 46 46 46 46 45
44 44 43 43 43 42 42 41 41 41 41 41 40 41 41 40 40 40 40 40 40 40 39 39 39 38 38 38 39 42 42 42 41 42 42 43 42 42 42 42 42 38 38 38 39 39 40 42 46 47 47 46 45 45 46 46 46 46 45 45 45 45 45
42 42 42 42 42 41 41 40 40 40 40 40 40 40 40 40 40 40 40 40 40 40 41 39 39 37 38 38 38 40 40 40 41 41 41 41 41 41 41 41 41 39 38 38 38 38 39 40 42 45 45 44 45 45 45 46 45 44 45 45 45 45 45
42 42 42 41 40 40 40 40 40 39 39 39 38 38 39 39 38 39 39 40 40 40 41 41 39 38 37 38 37 38 39 40 40 40 40 40 41 41 41 41 40 39 37 38 38 38 38 39 39 43 41 39 39 40 46 46 46 45 45 45 44 44 44
41 41 41 40 39 39 39 39 39 39 38 38 38 38 38 38 37 37 38 38 39 39 40 40 39 38 37 37 37 37 37 38 38 40 38 38 39 40 41 41 41 39 37 37 37 38 38 39 40 40 38 38 39 40 42 44 43 44 44 44 44 43 43
40 40 40 39 39 38 38 38 39 39 38 38 38 38 38 38 37 37 37 37 37 38 39 38 38 37 37 36 36 36 36 36 37 38 38 37 38 38 38 38 38 37 37 37 37 37 37 38 39 38 38 39 39 40 44 43 43 43 41 42 42 42 43

ECMWFFLT1_sfc_dewp_123.txt.gz
Dewpoint
64 65 66 67 67 66 66 66 66 66 66 65 66 65 65 65 65 65 64 65 64 65 65 65 65 65 64 64 65 66 66 66 65 63 63 63 62 62 63 62 63 63 63 62 62 59 58 57 60 62 63 63 64 64 64 63 63 63 63 64 63 61 61
66 66 66 66 65 66 65 65 66 66 66 66 65 65 65 65 65 65 65 65 65 64 64 65 65 64 64 64 64 64 64 65 64 65 64 63 63 62 63 61 62 62 62 62 61 61 59 57 58 59 59 63 63 64 63 64 64 64 63 64 64 61 62
66 65 65 65 65 65 66 66 66 65 65 66 66 65 65 64 65 65 65 65 65 64 64 64 63 63 63 63 63 64 64 63 64 65 64 64 64 64 64 62 61 61 61 61 60 61 60 60 58 58 59 59 59 63 63 63 63 64 62 65 64 63 62
65 65 64 64 64 65 64 64 64 64 65 65 65 65 65 64 64 64 65 64 64 64 64 64 63 64 63 63 62 62 62 62 62 63 64 63 63 63 63 63 63 61 60 59 60 60 60 59 59 57 59 60 60 61 63 64 63 62 63 63 64 64 63
65 64 64 64 64 64 64 63 63 63 64 64 64 64 64 64 64 64 64 64 63 64 64 64 63 63 62 63 63 63 63 63 63 63 63 63 63 63 63 63 62 63 63 62 61 61 60 59 59 58 59 61 60 61 63 64 65 64 64 63 63 63 63
65 65 64 64 64 63 62 62 62 61 61 61 62 62 63 63 63 63 63 63 63 63 63 63 63 63 63 63 62 62 62 61 62 63 63 63 63 62 62 63 64 62 61 62 61 61 62 61 60 59 60 61 59 60 61 62 61 63 63 64 63 63 64
63 63 63 63 63 62 62 62 61 61 61 61 62 62 62 62 62 62 63 63 62 62 62 62 62 62 63 62 62 62 61 62 63 64 63 62 64 62 63 63 63 62 62 62 63 62 62 61 60 60 59 60 60 59 62 61 60 61 63 63 64 64 64
63 62 62 62 62 61 61 61 61 61 61 61 61 61 61 61 61 62 62 62 61 61 61 62 61 62 62 62 62 62 62 63 62 64 64 63 61 62 62 62 63 63 63 63 64 63 62 62 61 60 60 58 58 59 58 61 60 59 58 61 63 64 64
62 62 61 61 61 61 61 61 61 61 61 61 61 61 60 61 62 62 62 62 61 61 61 61 61 62 62 62 63 62 62 62 62 62 63 63 63 63 62 63 63 63 62 63 63 63 62 62 62 62 61 60 57 55 58 58 60 59 59 60 63 64 64
61 61 61 61 61 61 61 60 60 60 61 62 61 61 60 60 61 61 61 61 61 61 61 61 61 62 62 62 62 62 62 63 63 61 63 63 63 64 64 63 64 62 62 63 64 63 61 62 63 63 62 60 59 56 56 57 59 59 59 60 59 62 63
60 60 60 60 60 60 60 60 60 59 60 60 60 60 60 60 60 60 60 60 61 61 61 61 61 61 62 62 62 62 62 63 62 62 62 63 64 64 64 64 63 63 63 64 64 64 64 63 63 63 63 62 61 58 57 57 58 60 60 61 60 59 61
59 59 59 59 60 59 58 58 58 59 59 59 60 59 58 57 58 59 59 59 59 60 60 61 62 62 62 63 63 63 62 63 62 62 62 62 63 64 63 63 64 64 64 63 63 64 64 63 63 63 62 62 61 60 59 58 56 60 62 60 60 59 60
57 57 58 58 57 57 57 57 57 57 58 59 57 57 57 57 56 57 57 57 58 58 58 59 60 61 62 62 62 63 63 63 62 61 61 62 63 63 62 61 61 62 63 63 62 63 63 63 63 63 62 61 61 61 60 59 58 58 61 61 61 59 60
57 57 56 56 56 56 56 57 56 57 57 57 56 56 56 55 55 55 55 56 56 56 57 57 58 60 62 62 62 62 62 62 62 62 62 62 62 62 62 62 61 62 62 62 62 62 62 62 62 63 62 61 60 60 60 59 57 58 60 64 64 60 60
55 55 56 56 56 55 55 55 56 55 55 54 55 55 54 54 55 55 55 55 54 54 55 55 56 58 59 60 61 62 61 61 61 61 62 61 62 62 62 61 62 61 62 62 62 62 62 63 62 62 62 61 60 60 61 59 59 58 57 61 62 60 62
54 54 55 54 54 54 54 54 54 54 53 54 53 53 53 53 54 53 53 54 53 53 53 54 55 56 57 57 58 60 61 61 61 61 61 61 60 61 61 62 61 62 62 62 62 62 62 62 62 62 62 62 61 60 60 60 59 57 58 59 61 61 62
54 54 54 53 53 53 53 53 53 52 52 52 51 52 52 52 52 52 52 52 52 52 52 53 53 54 55 56 57 59 61 61 61 61 60 60 60 61 60 60 60 61 62 61 61 62 63 62 62 62 61 62 61 61 60 60 60 59 59 58 60 61 61
52 53 52 52 52 52 52 51 51 51 51 50 50 50 51 51 51 51 51 50 50 50 50 51 51 52 54 55 57 59 60 60 61 61 61 61 61 61 61 61 61 61 61 61 61 62 63 62 62 62 61 62 61 61 61 61 60 60 59 58 58 60 62
52 52 52 52 51 51 50 50 50 50 49 49 49 49 50 50 50 49 49 49 49 49 49 49 50 51 54 56 58 58 59 59 59 60 60 60 60 60 61 61 61 61 61 61 61 61 62 62 62 62 62 61 62 61 61 61 61 60 59 60 59 59 61
51 51 51 51 50 50 49 49 48 48 49 49 49 49 49 48 48 48 48 48 48 48 48 48 49 50 54 54 55 55 55 56 57 58 58 58 58 58 58 58 59 60 61 61 62 62 62 61 61 62 63 62 62 61 60 60 60 60 60 59 60 61 60
51 50 50 49 49 49 48 48 47 48 48 48 48 48 48 47 47 47 47 47 47 48 47 47 47 48 51 52 53 53 53 53 54 55 55 55 56 57 57 57 58 58 59 60 60 61 62 61 61 61 61 61 61 61 60 60 60 60 59 59 59 58 59
50 49 49 48 48 48 47 47 47 47 47 48 48 47 48 47 47 46 47 47 46 47 47 47 47 47 50 51 51 51 51 51 51 52 52 53 54 55 55 55 56 56 58 54 50 51 51 53 58 60 61 61 61 60 60 59 59 59 59 59 58 59 58
49 48 48 47 47 47 47 47 47 46 46 46 46 47 47 47 46 46 46 46 46 46 46 46 46 44 45 49 50 50 50 50 49 50 50 51 52 53 53 53 54 55 55 51 47 44 43 44 47 49 50 53 57 60 60 60 59 59 58 58 58 57 56
48 48 47 47 47 46 46 47 46 46 46 46 46 45 45 45 46 46 45 45 45 45 45 45 42 41 41 43 49 49 48 48 48 48 49 49 50 51 52 52 53 54 54 54 50 44 43 42 42 42 43 44 46 49 55 59 59 59 59 58 59 58 57
47 47 47 46 46 45 45 45 45 45 45 45 45 45 46 45 45 45 45 45 45 45 45 43 40 41 41 42 45 48 48 47 47 47 48 48 49 50 51 51 52 52 53 52 52 51 48 44 43 42 42 42 41 41 41 46 52 58 59 58 58 57 58
47 46 46 45 45 45 44 44 44 44 44 45 45 46 46 46 45 45 45 44 44 44 44 40 40 41 41 41 42 46 47 47 47 46 47 47 48 48 49 50 50 50 50 52 52 51 50 50 46 44 44 44 44 43 40 41 41 48 55 58 58 57 57
46 46 45 45 44 44 44 43 44 44 45 46 46 45 46 45 45 45 44 44 43 43 42 40 39 40 41 41 41 44 47 47 46 45 45 46 47 47 47 48 47 47 48 48 49 50 50 49 49 48 47 47 47 45 43 42 43 43 46 49 50 49 47
45 45 44 44 44 43 43 43 43 44 44 46 46 46 45 45 44 44 44 44 43 43 41 38 38 39 40 41 41 44 47 47 46 45 45 45 46 46 46 47 47 46 46 46 46 47 49 48 48 48 47 47 46 46 45 45 45 46 47 47 46 45 46
45 44 44 43 43 43 43 43 43 43 44 44 44 44 44 44 43 44 44 44 44 42 41 38 38 38 39 40 42 46 46 46 45 45 44 44 44 45 45 46 46 46 45 45 43 41 45 48 48 47 47 47 47 47 47 44 41 42 45 46 46 45 44
44 43 43 43 42 43 43 43 43 43 43 43 43 42 44 43 42 42 42 43 43 43 42 39 37 38 39 39 43 46 46 45 44 44 44 44 43 43 44 44 44 44 44 44 41 40 41 45 46 46 46 46 46 46 47 48 44 41 41 41 41 41 41
44 43 43 43 43 43 43 42 42 43 42 42 42 42 42 41 42 42 42 41 42 42 41 39 37 38 38 38 42 45 44 44 44 43 43 43 43 42 42 43 45 43 43 42 39 39 41 45 46 45 45 45 45 45 46 47 47 46 43 42 42 41 41
43 42 42 42 42 42 42 42 42 42 42 42 42 41 41 40 41 41 41 42 41 41 40 39 37 37 37 38 43 45 43 43 43 43 42 42 42 42 41 40 41 40 41 40 38 39 40 44 45 45 45 45 44 43 44 47 47 46 47 45 46 46 45
43 42 41 41 42 42 41 41 42 41 41 40 40 40 40 40 40 40 41 41 41 41 40 39 38 36 37 37 39 43 43 42 41 41 41 40 40 40 40 39 38 36 36 37 37 37 38 40 44 45 45 44 43 43 45 46 46 46 46 46 46 46 46
43 42 42 41 41 41 41 41 42 41 41 41 40 40 40 40 40 40 40 40 40 40 40 39 38 36 36 37 37 39 42 42 41 40 39 38 38 38 38 37 37 36 35 36 36 37 38 39 40 43 44 43 44 45 43 44 45 44 45 45 45 46 46
43 43 42 42 42 41 41 42 42 41 40 40 40 40 40 39 39 39 39 39 40 39 39 39 39 36 36 36 36 37 39 40 40 39 38 37 37 37 37 36 36 35 35 35 35 36 37 37 39 43 43 38 39 40 45 44 44 43 44 44 45 45 44
42 42 43 43 42 42 41 41 41 41 40 40 39 39 39 39 39 38 38 37 38 39 38 37 37 37 36 35 35 35 35 37 36 39 38 37 37 36 37 37 36 36 34 34 34 34 35 36 38 39 37 38 39 39 41 43 43 42 42 42 42 43 43
42 42 42 42 42 41 41 40 39 40 39 38 37 37 37 38 37 37 36 36 37 37 38 37 37 36 36 35 35 35 35 35 36 38 38 36 36 35 35 36 35 34 34 34 34 34 34 34 36 35 36 37 38 40 41 41 40 41 41 40 41 40 41

ECMWFFLT1_sfc_dewp_129.txt.gz
Dewpoint
63 63 64 65 66 65 65 66 65 66 66 65 65 64 65 65 65 66 66 65 64 64 63 63 64 64 64 63 63 64 64 63 63 62 61 61 59 59 61 64 64 64 65 64 63 61 57 55 56 63 63 64 64 65 65 64 64 67 66 65 65 64 67
64 65 64 65 64 65 65 65 64 64 65 65 64 64 65 64 64 64 64 64 65 65 62 63 64 64 64 64 64 63 63 63 63 63 61 60 61 59 60 60 61 61 61 63 64 64 59 57 57 56 58 64 64 65 64 65 66 66 65 66 66 65 67
63 64 64 64 64 65 65 65 65 64 64 64 65 64 64 63 63 63 63 63 64 63 63 63 63 62 63 63 63 64 63 63 63 62 62 61 61 60 60 61 61 60 60 61 63 63 61 59 57 56 58 58 60 63 64 66 65 66 66 65 65 66 66
65 64 64 64 63 64 64 64 63 63 64 64 63 64 64 63 64 63 63 63 63 63 62 62 62 62 62 62 62 63 62 62 62 63 63 62 62 61 60 60 60 60 59 58 58 60 61 58 58 57 56 55 58 60 63 65 65 65 65 65 65 63 65
65 64 63 64 63 63 63 63 63 62 62 62 63 62 63 63 63 62 63 63 61 62 62 62 62 61 61 62 62 62 63 63 63 62 62 62 62 60 60 59 60 61 60 60 60 61 61 61 59 59 59 57 59 56 56 66 66 64 65 65 65 63 64
65 64 64 64 63 63 62 62 62 61 60 60 61 61 62 62 61 62 62 61 61 62 62 61 62 61 62 61 61 62 62 62 62 63 60 61 61 60 59 60 61 61 60 61 63 62 62 63 62 58 56 59 58 56 55 60 65 65 64 65 60 62 62
65 65 64 63 62 62 62 62 61 61 60 60 60 61 61 60 61 61 62 62 62 61 61 61 61 61 61 60 61 61 62 62 62 63 62 62 62 62 61 60 62 61 62 63 63 63 61 61 59 58 59 58 58 55 56 57 59 62 63 64 63 63 62
64 63 62 63 63 62 62 62 61 60 59 60 60 61 60 61 61 61 61 60 59 60 60 61 61 61 61 62 61 62 62 62 62 61 61 62 61 60 61 61 61 61 62 62 63 63 61 61 60 60 59 55 57 58 57 56 57 54 60 63 64 66 64
62 62 62 62 63 63 62 61 61 61 60 60 61 60 61 60 60 60 59 59 60 61 61 61 61 61 61 62 62 62 62 62 62 62 62 61 61 62 62 62 62 62 62 61 63 63 63 62 63 62 59 57 56 54 54 55 57 54 53 58 63 63 64
63 63 62 62 62 62 62 61 60 60 59 60 61 60 60 59 59 59 59 60 60 60 60 60 61 61 62 62 62 62 61 61 62 62 62 61 61 62 62 63 62 62 62 63 64 64 62 64 64 63 62 60 59 57 55 55 55 55 56 57 60 62 62
62 62 62 62 62 61 60 60 59 59 59 59 59 59 59 57 58 58 58 59 59 59 59 60 60 60 60 60 61 61 62 62 62 61 61 61 62 63 63 63 62 61 63 64 63 64 63 64 64 62 62 62 61 59 58 57 55 57 61 61 62 62 63
61 61 60 60 60 60 59 58 58 58 59 58 58 58 57 56 57 57 57 57 57 58 58 59 59 60 60 60 61 60 60 61 61 61 61 61 61 62 63 62 63 63 63 64 63 63 63 63 65 63 62 62 61 61 60 58 56 59 60 60 61 63 64
59 59 60 60 59 58 58 58 58 58 57 57 57 56 56 55 56 56 56 57 57 58 58 58 59 59 60 60 60 60 60 61 60 60 60 60 61 61 61 61 60 61 62 63 63 63 63 64 63 64 63 62 62 64 63 60 57 58 61 60 60 63 63
59 59 59 59 58 58 58 57 57 57 56 57 56 56 55 55 55 56 56 56 56 57 57 58 58 59 59 59 59 60 60 60 60 60 61 61 60 61 61 60 60 62 63 63 63 63 63 64 64 63 63 63 62 62 61 60 58 57 58 59 61 62 64
58 58 58 57 57 56 57 56 57 56 56 56 56 55 55 56 56 56 56 55 56 56 56 57 57 58 58 58 59 60 60 59 59 60 61 60 60 60 61 60 60 59 60 61 62 61 62 63 63 63 63 62 62 62 62 61 60 59 57 59 60 62 65
57 57 57 56 56 56 56 56 55 55 55 55 55 55 55 55 55 55 55 55 55 55 56 56 57 57 58 58 57 58 58 58 59 59 58 58 58 58 58 58 57 57 59 59 60 62 63 63 63 62 62 62 63 63 63 62 61 60 58 58 59 60 62
57 56 55 55 56 55 55 55 55 55 54 55 54 55 55 54 54 54 54 54 54 54 55 55 55 55 56 56 56 57 57 57 58 57 57 57 56 56 55 54 54 54 56 57 58 59 60 61 63 63 61 62 62 62 62 62 62 61 60 57 59 59 61
56 55 55 55 55 55 55 54 54 53 54 54 54 54 54 54 54 53 54 53 53 53 53 53 53 54 55 56 56 56 56 56 57 56 56 56 56 55 54 52 51 51 52 53 54 55 56 58 60 63 62 61 62 62 61 62 62 61 60 60 60 62 63
55 55 55 55 55 54 54 54 54 54 54 53 54 54 54 54 53 52 52 52 52 52 52 52 51 52 53 55 55 55 55 55 55 55 55 55 55 55 53 51 51 50 50 50 51 51 53 55 58 59 58 58 60 61 61 62 61 62 62 61 58 60 61
54 54 54 54 54 53 53 54 53 53 53 53 53 53 53 52 53 52 51 52 51 51 51 50 50 51 52 54 54 54 54 54 54 54 54 54 54 54 53 52 51 50 48 48 48 48 50 52 54 54 54 55 57 59 60 61 60 60 61 61 61 61 60
53 53 53 53 53 53 54 54 53 53 53 53 53 52 52 51 51 51 51 51 51 50 50 49 49 48 49 52 54 53 53 53 53 53 54 53 53 53 53 53 52 50 48 47 47 47 47 48 50 50 50 51 53 56 58 59 59 61 60 59 60 61 60
53 53 52 53 53 53 53 53 53 53 53 53 52 51 51 51 51 50 50 51 50 50 49 49 48 46 47 49 54 53 52 52 52 52 52 52 52 52 52 53 52 51 51 50 47 46 46 46 47 47 47 48 50 52 54 57 58 59 59 59 59 61 60
52 52 52 52 53 53 53 53 53 53 52 52 51 51 51 51 50 50 50 50 50 50 49 48 44 42 43 46 53 52 52 51 51 51 51 51 51 51 52 52 52 52 50 49 46 44 44 44 45 46 46 46 47 48 50 52 53 55 56 57 56 58 58
51 51 52 52 53 52 52 53 53 52 52 51 52 51 51 50 50 50 50 50 50 49 48 45 40 39 39 41 48 53 51 51 50 50 50 51 50 51 51 51 51 51 51 52 47 44 43 43 42 43 43 44 45 46 47 48 50 52 53 54 52 52 53
50 51 51 51 51 52 52 52 52 51 52 52 52 52 51 50 50 51 51 50 49 49 48 41 38 39 39 39 41 49 51 50 50 50 50 49 49 50 50 51 51 51 50 50 50 50 48 44 43 43 42 43 42 42 42 45 47 49 49 50 49 48 49
50 50 50 50 51 52 51 51 51 51 51 52 52 51 50 51 50 50 51 49 49 48 47 39 38 39 38 38 38 45 49 50 49 49 49 49 49 49 50 50 50 50 50 51 49 48 50 50 46 44 44 44 44 43 41 41 42 48 49 48 47 47 46
50 50 50 50 51 51 51 50 51 51 51 51 51 50 50 50 50 50 50 50 49 47 45 40 37 38 38 38 38 41 48 48 48 47 47 48 49 49 49 49 48 48 49 49 47 45 50 49 49 49 48 47 46 46 44 43 43 43 46 48 47 45 46
50 49 49 50 50 50 50 50 50 50 50 50 50 49 49 50 50 49 50 50 49 47 45 37 37 37 38 38 38 43 49 48 47 46 45 45 45 46 47 48 48 48 48 47 46 42 45 48 48 49 48 48 47 47 47 47 47 48 48 48 48 48 47
49 49 49 49 49 49 49 50 50 50 50 49 49 49 49 49 49 49 49 50 49 47 45 37 37 37 37 37 39 49 48 48 47 46 45 44 43 44 45 46 47 47 47 46 42 38 40 45 47 47 47 47 47 48 48 45 42 43 47 48 49 49 48
49 48 48 49 48 49 49 49 50 49 49 49 48 48 49 48 48 48 48 48 49 47 45 39 36 37 37 37 43 48 48 46 46 45 45 44 42 42 42 43 44 45 45 44 39 37 38 43 47 46 46 47 46 46 46 50 44 41 41 41 41 42 42
48 48 48 48 49 49 49 49 49 48 48 47 47 48 47 47 47 47 47 47 46 46 45 40 36 36 37 37 40 49 46 46 45 44 43 43 42 41 41 42 43 41 42 41 37 37 38 47 47 46 46 45 45 44 45 46 47 48 42 42 41 41 42
48 48 47 48 49 48 48 48 48 48 47 47 47 46 46 46 46 47 47 46 46 45 43 41 37 36 37 37 41 49 44 44 43 44 42 41 42 41 40 40 40 38 38 38 35 36 37 42 46 46 45 45 43 43 44 45 45 44 45 45 45 45 45
48 48 47 48 48 48 47 47 47 47 46 45 44 44 44 44 44 44 44 44 44 45 44 41 38 36 36 37 37 44 44 42 41 41 41 40 40 40 39 38 38 35 35 35 35 35 36 37 45 45 44 43 42 42 43 43 44 45 44 43 44 44 44
48 48 48 48 47 47 47 47 47 46 46 45 45 44 44 44 43 42 42 41 41 41 42 42 39 35 36 36 36 39 43 41 40 39 39 38 38 38 37 36 36 36 34 34 34 35 35 36 37 42 42 42 43 45 42 42 44 42 42 43 43 43 43
49 49 47 47 47 47 47 46 46 46 44 45 45 44 43 41 40 39 39 39 40 39 39 40 40 36 35 36 36 36 41 43 43 40 40 38 37 37 36 34 35 37 35 34 34 34 34 35 36 39 43 35 35 36 41 41 41 40 40 40 39 39 40
48 48 48 47 46 46 46 46 46 46 45 45 44 42 42 40 39 37 37 36 37 37 38 37 37 38 35 35 35 35 35 38 36 42 40 39 38 37 36 35 36 38 35 35 34 34 34 35 36 38 34 35 35 36 38 39 38 38 37 37 39 39 38
47 47 47 46 46 45 45 45 44 44 43 41 40 39 38 38 36 36 35 34 36 34 34 34 36 36 36 35 35 34 34 35 35 39 38 37 36 35 35 36 36 34 35 35 34 34 34 34 37 34 35 35 35 37 38 38 36 37 36 35 35 36 37

ECMWFFLT1_sfc_dewp_132.txt.gz
Dewpoint
64 65 66 68 69 68 68 68 69 70 69 68 69 69 68 68 69 69 69 68 68 66 65 66 67 67 66 66 66 65 65 65 64 63 62 62 61 60 62 62 63 64 64 63 62 60 58 56 57 62 64 62 64 64 64 63 64 65 65 65 65 65 66
66 66 66 66 68 67 67 68 68 67 69 68 67 69 68 68 68 69 67 67 67 67 64 65 66 65 66 65 65 65 65 64 65 64 63 62 61 61 61 61 61 61 62 62 62 61 59 57 57 58 58 62 64 64 63 65 65 65 65 65 66 66 65
63 64 67 66 67 67 67 67 67 69 68 69 71 69 67 65 65 65 65 64 65 65 65 64 64 64 64 64 64 65 65 64 65 64 64 63 63 62 62 62 60 60 59 59 60 61 60 59 57 57 58 58 58 60 63 64 64 64 65 65 65 65 65
62 63 66 66 66 66 66 66 67 67 69 68 71 67 66 65 65 64 64 63 64 65 65 64 64 63 64 64 64 64 64 64 64 64 64 63 63 63 62 61 60 59 58 58 58 59 59 58 58 57 58 58 57 58 61 63 63 63 65 66 66 65 64
63 63 63 65 65 65 65 66 66 68 68 68 67 67 65 64 65 65 64 64 63 64 64 64 64 62 62 63 63 63 63 63 63 63 63 63 63 62 62 62 62 62 61 61 61 61 60 59 59 58 58 58 58 58 59 64 65 65 65 64 65 65 65
64 64 65 66 65 66 67 65 66 67 68 67 64 64 64 64 63 64 64 65 64 64 64 63 63 62 63 63 62 62 62 62 62 63 62 62 63 62 62 62 62 61 62 63 63 61 61 61 60 58 58 58 57 57 58 59 61 63 64 65 65 66 65
65 63 65 66 65 65 65 65 64 64 63 64 64 63 63 62 64 65 64 64 64 64 63 63 63 62 63 61 61 62 62 63 63 63 63 63 63 62 62 61 61 61 62 64 62 62 61 61 60 58 58 58 58 57 57 57 57 60 62 64 66 65 65
65 65 66 66 65 64 64 63 63 64 64 62 63 62 62 65 64 64 63 62 63 62 62 62 62 62 62 62 62 63 63 63 63 63 63 63 62 62 62 62 62 62 63 62 63 63 63 62 60 60 59 57 57 57 56 57 58 58 60 63 63 63 64
63 64 65 64 64 65 64 63 63 63 62 63 63 64 64 64 63 62 62 61 61 61 61 61 61 60 61 61 61 62 62 63 63 62 63 63 62 63 62 64 62 62 62 62 63 63 63 63 62 62 61 58 57 55 56 56 56 55 60 60 63 64 65
64 65 64 64 64 64 64 63 63 62 62 64 63 63 62 62 62 61 62 62 62 62 61 60 60 60 60 61 61 61 61 61 62 62 63 62 62 63 63 63 63 62 62 63 63 63 63 63 63 63 62 60 59 57 55 55 55 56 58 63 60 62 62
63 63 64 63 63 63 63 62 63 62 61 62 61 63 62 61 61 60 61 61 61 60 59 60 59 60 60 61 61 61 60 61 61 61 62 62 61 62 62 63 64 63 62 63 62 63 63 63 62 62 62 62 61 58 57 55 55 57 58 60 62 62 65
62 62 62 62 63 62 61 61 60 61 61 61 61 62 61 59 60 59 59 58 59 58 59 59 59 59 60 60 60 60 60 60 60 61 61 62 61 61 61 61 63 61 62 62 63 64 63 63 62 62 62 61 62 60 59 58 56 58 60 59 62 63 63
61 61 61 62 61 60 59 59 59 60 61 60 61 60 57 56 57 58 57 57 57 58 57 59 59 59 59 59 59 60 60 59 59 60 59 59 59 59 57 57 56 57 58 59 61 62 62 62 62 62 62 61 62 61 61 59 57 56 60 60 60 61 63
60 60 60 61 60 59 59 61 61 59 57 57 57 56 56 56 55 56 56 56 56 57 57 58 59 59 58 59 59 59 58 58 58 58 57 57 57 56 55 54 53 54 55 56 58 59 60 61 62 62 62 62 61 61 61 59 58 57 59 61 61 61 63
59 59 59 59 58 58 59 58 59 57 56 56 58 55 54 56 56 56 55 55 55 56 56 56 56 57 57 57 57 58 58 57 58 56 57 56 55 54 53 52 51 52 53 54 54 54 55 56 58 61 61 61 61 61 61 60 59 58 58 60 60 61 62
59 58 58 58 57 56 56 56 57 58 55 55 55 55 55 55 55 55 54 55 54 54 54 54 55 55 56 56 56 56 57 57 57 56 55 55 53 52 51 51 50 50 52 51 51 52 52 53 55 59 59 60 60 61 61 61 59 58 58 58 60 60 60
58 57 56 56 56 56 56 55 56 55 54 55 54 55 55 54 54 54 54 53 53 52 52 52 53 54 54 55 55 55 55 55 55 55 55 54 53 52 51 50 49 49 49 49 49 49 50 51 53 55 55 55 56 58 60 61 60 59 59 58 59 60 60
56 56 56 56 56 55 55 56 56 54 55 54 54 55 54 54 54 52 53 51 51 51 51 51 51 52 54 55 55 54 54 54 55 54 54 54 54 52 51 50 49 49 49 48 48 48 49 49 50 51 50 51 52 54 57 60 61 60 59 58 58 60 61
55 55 55 55 55 55 55 55 54 55 54 54 54 54 54 53 52 51 51 51 50 50 50 50 50 50 52 54 54 54 54 54 54 53 53 53 54 53 51 50 49 49 48 48 47 47 47 47 48 47 48 48 49 51 55 58 60 60 60 59 58 58 59
55 55 55 55 55 54 53 54 53 53 54 54 54 53 52 52 52 51 51 50 50 50 49 49 48 48 49 51 53 53 53 53 53 54 53 53 53 53 52 51 50 49 48 48 47 47 46 46 47 46 47 47 48 50 52 54 56 57 58 58 57 58 58
54 55 54 54 54 54 54 54 54 54 54 54 53 52 51 51 51 51 50 50 50 49 48 47 46 45 47 48 54 52 52 52 52 52 53 53 53 53 52 52 51 49 48 47 47 47 47 46 46 46 46 46 47 48 50 52 52 53 56 53 53 53 56
54 54 53 54 54 54 54 54 53 53 53 53 53 52 51 51 50 50 50 49 49 49 48 47 45 43 44 46 48 52 51 51 51 52 52 52 52 52 52 52 52 50 50 49 47 47 47 47 46 45 46 46 47 47 48 49 49 49 51 50 49 50 51
52 53 54 53 53 53 53 54 54 53 52 52 52 52 51 51 50 50 50 49 49 49 47 46 43 41 41 43 46 52 52 51 51 51 51 51 51 51 51 51 52 52 50 49 47 44 43 44 46 46 46 46 46 46 47 48 47 47 48 47 47 47 47
52 52 53 53 53 53 52 53 53 52 52 52 52 51 51 51 51 50 49 49 49 48 46 43 39 38 39 40 45 53 51 50 50 50 50 50 49 50 50 50 50 51 52 51 47 44 43 43 43 43 44 45 47 46 46 47 47 47 47 46 46 46 46
51 52 52 52 52 53 53 52 52 52 52 52 52 52 51 51 51 51 50 48 48 47 44 40 38 38 39 39 42 49 49 48 49 48 48 49 49 49 49 50 50 51 50 48 47 47 47 43 42 42 42 43 43 42 43 46 47 47 46 46 45 45 45
51 51 52 52 53 52 52 51 51 51 51 52 51 51 50 51 51 51 49 48 47 45 42 39 38 38 38 38 39 45 46 46 45 45 46 47 47 48 48 49 49 50 48 48 46 44 44 49 45 44 44 45 44 43 41 42 43 48 47 47 46 45 45
50 51 52 52 52 51 51 51 52 52 52 51 51 51 51 51 50 50 49 48 47 44 41 39 37 38 38 38 38 42 46 46 45 43 43 44 45 45 46 48 47 47 46 45 43 41 43 48 49 48 48 48 47 46 44 43 44 44 46 48 47 46 46
50 51 51 51 51 51 51 52 51 51 51 51 50 50 50 50 51 50 49 49 48 46 42 37 37 37 37 38 38 48 48 47 45 44 43 42 42 43 43 45 46 45 43 43 41 39 43 46 50 48 47 48 47 46 46 46 46 47 47 47 47 47 46
50 51 51 51 50 50 51 51 51 51 50 50 50 50 50 50 49 49 49 49 48 46 42 37 37 37 37 37 38 49 48 46 45 44 43 41 40 39 41 41 42 42 41 40 39 37 40 48 46 46 46 46 48 48 46 45 43 44 46 46 46 45 45
50 50 50 50 50 50 51 51 51 50 50 49 49 48 48 48 48 47 47 47 47 45 42 38 36 37 37 37 42 49 47 44 44 44 43 42 40 39 40 40 38 38 39 38 37 35 36 42 46 46 45 45 45 46 49 49 43 41 41 40 40 41 41
49 49 49 49 50 51 51 50 50 50 49 48 48 48 48 47 47 46 46 45 45 43 41 39 36 37 37 37 42 49 45 45 43 42 42 42 41 39 39 42 42 37 37 37 35 35 36 43 44 44 45 44 44 43 44 48 49 48 42 41 41 40 41
49 49 49 50 50 50 50 50 50 51 49 48 48 47 46 46 46 45 44 44 46 43 40 39 36 36 37 37 43 48 43 42 42 42 41 40 39 38 37 39 41 38 37 37 34 35 36 40 44 43 44 44 43 43 45 42 46 44 44 43 43 43 43
49 49 49 49 50 49 49 49 50 49 48 45 45 45 44 43 42 41 41 41 43 43 41 39 37 36 36 37 39 45 43 42 40 40 39 38 37 37 36 36 38 36 35 35 34 34 35 36 41 43 42 42 42 40 46 43 43 45 43 43 42 43 43
49 49 49 49 49 49 49 49 50 48 46 46 45 44 44 43 42 41 40 40 39 40 41 40 38 36 36 36 37 40 42 43 41 39 38 36 35 35 35 36 37 37 35 35 34 34 35 35 37 42 41 40 41 42 42 41 42 42 42 42 41 41 41
49 50 49 49 49 49 49 48 47 47 45 46 45 43 42 40 39 38 38 38 38 37 39 41 38 36 35 36 35 36 40 41 43 40 39 36 35 36 36 38 37 36 35 34 34 34 35 35 36 39 37 35 36 36 41 42 41 40 39 39 38 38 39
49 49 49 49 48 48 48 47 47 47 46 45 43 42 41 40 38 37 36 35 36 36 37 37 36 36 35 35 35 35 35 37 37 40 38 36 36 37 39 38 38 38 34 34 35 34 34 35 36 35 35 35 36 36 38 40 40 40 38 37 38 37 37
48 49 49 48 48 47 47 46 46 46 45 43 42 40 38 38 37 36 34 34 35 34 35 35 36 35 34 34 34 34 34 34 35 37 37 37 38 40 39 39 37 35 34 34 35 35 35 36 34 34 35 36 36 37 39 38 38 39 37 36 36 36 36

ECMWFFLT1_sfc_dewp_135.txt.gz
Dewpoint
62 62 63 63 65 67 67 67 66 66 66 66 65 64 64 65 65 65 65 64 64 64 64 63 62 63 64 64 63 63 62 62 61 60 60 60 59 60 60 60 60 61 61 61 60 59 58 56 56 58 60 60 61 61 62 62 62 63 63 63 63 64 64
64 63 64 64 64 63 62 64 66 66 65 65 66 65 64 64 64 63 62 63 63 63 63 63 62 63 63 62 62 62 61 62 61 62 60 60 60 60 61 60 60 59 59 59 60 60 57 56 56 57 57 58 60 61 62 62 63 63 63 64 64 64 64
62 62 63 63 64 64 63 63 65 65 65 65 65 64 63 63 62 62 62 62 62 63 63 62 62 62 62 61 61 61 61 60 61 61 61 61 61 61 60 61 60 59 58 57 57 58 57 58 57 57 57 57 57 58 59 60 61 62 63 64 64 64 64
61 61 61 61 62 62 62 63 64 65 65 65 64 62 62 62 62 63 62 62 62 63 62 61 61 60 60 60 60 61 61 60 60 61 61 60 61 61 61 60 60 60 59 58 58 58 57 58 57 57 57 58 58 58 59 59 61 62 63 64 64 64 64
62 61 60 60 62 63 63 63 63 63 64 63 62 61 61 61 62 61 61 61 61 61 61 61 61 61 61 61 60 60 60 60 60 61 60 60 60 61 60 61 61 61 61 60 60 60 59 58 58 57 58 59 59 58 59 59 61 61 62 63 64 64 64
62 62 61 61 62 62 62 62 63 62 62 61 61 60 60 60 61 60 60 60 60 61 61 61 61 61 61 61 61 61 61 61 61 61 61 61 61 61 61 62 62 61 61 62 61 60 60 60 59 58 58 59 57 58 58 58 58 60 61 62 63 64 64
62 62 62 62 62 62 63 62 61 61 60 60 60 60 60 60 60 60 60 60 60 61 61 60 60 60 61 60 60 61 61 62 62 62 62 63 62 62 62 62 61 61 61 62 61 61 60 59 59 59 58 58 59 58 58 57 57 58 59 61 63 64 64
62 62 62 63 63 63 62 61 60 60 60 60 60 60 60 59 59 59 59 59 59 60 60 59 60 60 60 60 60 60 60 61 61 61 62 62 62 61 62 62 62 61 61 61 61 61 61 61 60 60 59 57 57 58 57 56 56 57 58 60 63 63 64
63 62 62 63 63 62 61 60 60 60 60 60 60 59 59 59 59 58 58 57 58 59 59 59 59 59 59 59 59 60 60 61 60 60 62 62 61 62 62 62 61 60 61 61 61 61 61 61 60 61 60 59 57 55 57 56 56 56 58 58 60 63 63
62 62 63 62 61 60 60 60 60 60 59 59 59 58 58 58 58 58 58 58 59 58 58 58 59 59 60 60 59 59 59 60 60 61 62 61 60 60 60 58 58 58 58 59 60 61 61 61 61 61 61 60 59 56 55 55 56 56 57 60 56 59 62
63 62 62 61 60 59 59 59 59 58 58 59 59 58 58 58 57 59 57 58 58 58 57 58 59 59 60 59 60 60 60 60 60 60 60 58 56 56 55 55 55 55 55 56 58 59 61 61 61 61 61 61 61 58 57 55 56 57 57 58 59 58 61
61 61 61 61 60 59 59 59 58 58 58 59 57 57 56 56 57 57 57 57 57 57 58 59 59 59 59 59 59 59 58 58 58 57 57 56 55 53 52 51 52 52 53 55 55 56 57 58 58 60 61 61 61 60 59 58 56 57 59 57 58 62 61
60 60 59 59 58 58 57 57 58 58 56 56 56 56 56 56 57 57 56 57 57 58 59 59 59 58 58 58 58 58 58 58 57 56 55 54 54 52 51 50 50 51 51 51 51 52 53 54 56 58 60 60 61 61 60 58 57 57 59 58 59 60 61
59 59 58 57 56 57 57 58 57 56 56 56 56 56 56 56 55 57 57 58 56 55 55 56 56 57 57 57 57 57 57 57 56 55 54 52 52 51 50 49 49 50 49 49 49 50 51 51 53 56 56 57 57 58 58 58 57 57 58 59 59 60 61
58 57 57 57 56 55 55 56 56 55 55 56 56 56 55 56 57 57 55 54 53 53 54 54 55 56 56 56 56 57 57 56 55 55 53 51 51 51 50 49 49 49 48 48 48 48 49 49 50 52 52 52 54 54 56 56 57 57 57 59 59 60 60
56 56 56 55 55 55 55 55 56 55 55 55 56 56 56 57 56 53 52 52 52 52 52 53 54 55 56 55 54 55 56 55 55 54 52 51 51 50 50 49 49 48 48 47 47 47 47 47 48 48 49 49 50 52 53 55 56 56 57 57 58 58 58
55 55 55 55 55 55 55 55 55 55 55 55 55 57 55 54 53 52 51 51 51 51 51 52 52 54 55 54 54 54 55 55 54 54 53 52 51 51 50 49 48 48 47 46 46 46 47 47 47 47 47 48 49 50 52 55 57 56 58 56 57 57 58
55 55 55 55 55 55 55 55 55 54 55 55 56 55 54 53 52 51 51 51 51 50 50 50 50 50 53 54 54 54 54 54 54 54 53 52 52 51 50 49 48 47 47 46 46 46 46 47 47 47 47 47 48 49 52 54 54 55 54 52 52 54 56
54 54 55 54 54 55 55 55 54 55 55 55 55 53 52 52 51 50 50 51 50 48 47 47 47 48 50 53 54 54 54 54 54 53 53 52 52 51 50 49 48 47 47 46 46 46 46 46 47 47 47 47 47 48 50 50 51 52 51 51 50 50 52
54 54 54 54 54 55 54 54 54 54 55 54 52 52 51 51 51 50 51 50 48 47 46 45 45 46 48 51 54 53 54 54 54 53 53 53 52 52 51 49 48 47 47 47 46 46 46 46 47 47 47 47 47 48 48 48 48 49 49 48 48 49 49
54 55 55 55 54 54 54 54 54 55 54 52 52 51 51 51 50 50 50 49 48 47 45 43 43 44 46 48 51 51 52 52 53 53 53 53 53 52 52 50 49 48 47 47 47 46 46 46 46 46 47 47 47 47 47 47 47 47 47 47 47 47 48
54 54 54 53 53 53 53 54 54 53 52 52 52 51 51 50 50 49 49 48 46 45 44 43 43 42 43 46 48 51 51 50 51 52 52 51 51 51 52 51 49 49 49 49 47 47 47 47 46 46 46 47 47 47 47 46 46 46 46 46 45 46 46
54 54 53 53 53 53 53 53 53 52 51 51 51 51 51 50 50 49 48 48 46 44 42 42 42 42 43 45 48 50 49 48 48 48 49 50 50 50 50 52 52 51 50 49 47 44 43 44 46 46 46 46 46 46 47 46 46 46 45 45 44 44 44
53 53 53 53 53 53 54 53 51 51 51 51 51 51 50 50 49 49 48 46 44 43 42 41 40 39 42 45 46 46 45 45 46 46 47 46 46 48 50 49 48 47 47 47 47 44 44 42 43 43 43 45 47 46 46 46 46 46 45 45 45 44 44
53 53 53 53 53 53 53 51 51 50 50 51 51 51 50 49 49 48 46 44 42 42 40 40 38 39 41 42 44 44 43 43 43 44 44 44 44 45 47 47 45 46 45 45 43 42 46 44 42 42 42 42 42 42 43 46 46 45 45 45 44 44 44
52 53 53 53 53 53 51 51 51 50 50 50 50 50 49 49 48 47 45 43 41 40 39 39 38 39 39 41 41 42 41 41 41 41 41 42 42 43 44 45 43 43 42 44 43 41 44 46 44 45 45 45 44 43 41 41 42 46 46 45 45 44 44
52 52 53 53 52 51 50 50 50 50 50 50 50 50 49 49 48 47 46 43 41 40 38 39 38 38 39 41 41 41 40 40 39 38 38 39 39 40 41 41 40 40 39 39 40 41 45 47 47 47 46 46 46 46 44 42 42 42 44 45 45 44 45
52 52 52 52 50 50 50 50 50 50 50 49 49 49 49 48 48 48 46 44 42 40 39 38 37 38 40 42 41 42 42 41 39 38 37 37 38 38 38 39 38 37 37 37 40 41 46 49 46 46 45 45 45 45 45 45 44 44 44 45 44 45 45
52 52 51 51 50 50 50 50 50 49 49 48 48 47 47 47 46 46 46 43 40 39 38 37 37 38 40 42 42 45 43 41 40 38 38 38 38 38 38 36 36 36 36 37 38 37 41 45 45 45 44 43 45 45 44 45 42 42 44 43 43 43 43
52 51 51 50 50 50 49 49 48 48 47 47 46 46 46 45 45 44 44 42 39 38 38 37 37 38 41 41 41 43 42 41 41 40 39 38 38 38 40 39 35 35 35 35 37 36 38 42 41 41 42 43 44 46 47 46 42 40 40 40 40 40 40
51 50 50 49 49 49 49 48 48 47 47 47 46 46 45 44 44 44 43 41 39 37 37 38 37 39 41 42 43 42 40 39 37 37 36 36 36 36 39 42 43 35 35 36 35 35 37 42 41 40 41 41 42 43 43 46 46 46 41 41 40 40 40
50 49 50 50 49 49 48 48 48 48 47 47 46 44 43 41 41 41 42 42 42 38 37 38 37 38 39 40 41 41 41 40 38 37 36 35 35 36 35 38 41 38 37 36 35 35 36 40 40 40 40 39 38 39 42 42 44 42 42 42 42 43 42
50 49 49 49 49 49 49 48 47 46 45 43 42 41 39 38 37 38 38 39 40 38 36 36 37 37 39 40 41 41 39 36 35 35 35 36 34 34 35 35 37 35 35 35 35 35 35 36 39 38 38 38 37 37 40 39 42 42 41 41 41 42 42
49 49 49 48 48 48 47 45 44 43 43 42 41 41 40 38 36 36 36 36 37 38 38 36 36 36 37 38 39 40 39 37 36 35 34 35 34 35 35 35 35 36 35 35 35 35 35 35 37 38 37 37 37 38 39 38 39 41 40 41 41 41 41
49 50 49 48 48 46 45 44 44 43 42 41 39 37 37 37 37 36 35 35 35 35 39 38 35 36 36 36 36 37 37 38 37 35 35 34 34 35 35 35 36 36 34 35 35 35 35 35 36 38 36 35 36 37 41 41 39 37 38 39 39 40 41
49 50 48 47 46 46 45 44 44 43 41 39 38 38 37 34 32 32 32 33 33 34 34 36 36 35 35 35 35 35 35 35 36 37 35 34 34 34 35 35 37 37 34 35 34 34 35 35 35 34 35 35 35 36 38 38 38 38 37 37 38 39 40
49 48 47 47 46 45 45 44 43 42 40 39 38 36 36 36 34 32 32 33 33 33 33 33 35 35 34 34 34 34 35 35 36 38 37 35 35 35 33 33 35 35 35 35 34 34 34 35 35 34 34 35 35 36 37 37 36 37 36 36 36 38 39

ECMWFFLT1_sfc_dewp_138.txt.gz
Dewpoint
61 61 62 63 64 65 64 64 65 66 65 65 64 64 65 64 63 62 62 62 62 62 62 61 60 60 61 61 61 60 60 60 59 59 58 57 58 58 59 59 59 60 60 60 60 59 58 57 57 58 58 58 59 59 60 60 61 61 62 62 62 63 63
62 62 63 64 63 63 63 62 63 64 65 65 63 62 62 63 63 61 61 61 61 62 62 61 60 60 60 60 60 59 59 59 59 60 59 58 58 58 58 57 58 57 57 59 59 59 58 57 57 57 57 58 59 59 60 60 61 61 62 62 62 63 63
62 62 62 62 62 62 62 61 62 63 63 63 62 62 62 62 62 62 61 61 60 61 61 60 60 60 60 59 59 59 59 59 58 59 59 59 59 59 59 59 58 57 57 55 57 58 59 59 57 57 57 57 57 58 59 59 59 60 60 61 62 62 63
62 62 61 61 61 61 61 61 61 63 63 61 61 61 61 62 62 62 61 61 61 61 61 60 59 59 59 59 59 59 59 59 59 59 59 58 59 58 59 58 59 59 59 58 59 59 59 58 58 57 58 58 58 58 59 59 59 59 60 61 61 62 63
62 62 61 61 61 61 61 61 61 62 61 60 60 60 60 61 60 60 60 60 60 59 59 59 59 59 59 59 59 59 59 59 60 60 59 60 60 60 59 59 60 61 61 60 60 60 60 59 58 58 58 58 59 58 59 60 60 60 60 60 61 62 63
62 62 62 61 61 61 61 61 62 61 60 59 59 59 59 59 59 58 59 59 59 59 58 59 58 59 59 59 58 58 58 59 59 60 61 62 62 61 61 62 61 61 60 60 61 61 61 60 59 58 58 59 58 58 59 59 58 58 59 59 60 62 62
61 61 61 61 61 61 61 61 61 60 59 59 59 59 59 59 58 58 58 58 58 58 58 58 58 58 58 58 58 58 58 59 60 61 62 62 61 60 59 60 61 60 59 59 60 61 61 60 59 59 58 59 59 58 58 57 57 57 57 58 60 61 62
61 61 61 61 61 61 61 60 60 59 59 59 59 59 59 58 58 57 58 58 58 58 58 58 58 58 58 58 58 58 58 60 60 61 60 59 58 56 55 56 57 56 56 57 59 59 60 60 60 60 59 57 57 58 57 56 56 57 57 57 59 60 61
62 61 61 62 62 61 60 59 59 59 59 59 58 58 58 57 57 57 58 57 57 57 57 57 57 58 57 58 57 58 58 60 60 59 57 56 54 53 53 54 54 54 54 54 56 56 58 59 59 59 59 58 56 55 56 56 56 56 57 57 58 59 60
61 61 62 61 61 60 59 59 59 58 58 57 57 58 57 58 57 57 57 57 57 57 57 57 57 58 59 59 58 57 58 59 58 56 55 53 52 52 52 52 52 51 51 52 52 54 55 56 57 58 59 58 58 56 55 55 55 56 55 57 56 57 60
62 61 61 60 59 59 59 58 58 58 57 57 57 57 57 57 57 58 56 57 57 57 56 56 58 59 59 59 58 58 58 57 55 55 54 52 51 51 51 50 50 50 50 50 51 52 53 54 55 56 58 58 58 56 56 55 55 56 55 55 57 57 59
61 60 59 59 59 58 57 57 57 57 56 56 57 56 56 56 56 56 56 56 57 58 58 58 58 58 58 58 58 58 58 56 54 53 53 52 51 51 50 49 49 48 49 49 50 51 52 53 53 55 56 55 56 56 55 55 54 56 58 57 56 58 59
60 59 59 58 58 57 57 56 55 55 56 56 56 56 56 55 55 55 56 55 55 56 56 57 57 57 57 57 57 57 57 55 53 52 51 51 52 50 49 48 48 48 48 48 48 49 49 49 51 52 52 52 53 54 54 53 53 54 57 58 58 58 59
58 58 57 57 57 57 56 55 55 56 55 55 55 55 54 55 55 55 54 55 54 55 55 56 56 57 56 56 57 56 56 54 53 52 51 51 50 50 49 48 47 47 47 47 47 48 48 48 49 49 50 50 51 52 53 52 52 53 55 59 59 58 58
57 56 55 55 56 55 55 55 55 55 55 54 54 54 55 54 53 53 53 53 53 53 54 54 55 56 55 55 56 56 56 54 52 51 51 50 50 50 49 48 47 47 47 47 47 47 47 48 48 48 48 49 50 51 52 53 53 53 54 56 56 56 55
55 55 54 54 55 55 55 55 55 54 54 54 55 55 53 52 52 52 51 51 52 52 52 52 54 55 54 55 55 55 55 54 52 51 51 50 50 49 48 48 47 47 47 46 47 47 48 47 48 48 48 48 49 50 51 53 52 51 51 52 53 52 52
55 54 54 54 54 54 55 55 55 54 54 54 53 53 52 52 51 51 50 50 50 50 50 51 52 54 54 55 55 54 54 54 53 52 51 51 50 49 48 47 47 47 47 46 46 46 47 47 47 48 48 48 48 49 50 51 51 50 50 49 50 50 51
54 54 54 54 54 54 54 54 54 54 54 54 52 52 52 51 51 50 50 49 48 48 48 49 51 51 54 55 54 55 54 54 53 52 52 51 51 49 48 47 47 47 46 46 46 46 46 47 47 47 47 47 48 48 48 48 49 49 48 48 48 49 50
54 53 54 54 54 54 54 54 53 54 54 52 51 51 51 51 50 50 49 48 47 47 47 47 48 49 50 54 54 54 54 53 53 52 52 51 50 49 48 47 47 47 46 46 46 46 46 46 47 47 47 47 47 47 47 47 47 48 47 47 47 47 48
54 53 54 54 54 54 54 54 54 55 53 51 51 50 50 50 50 49 48 48 46 46 46 46 46 47 49 51 54 53 53 53 53 53 52 51 51 50 49 48 47 47 46 46 46 46 46 46 47 46 47 47 47 47 46 46 46 46 46 46 46 46 47
53 53 54 54 54 53 53 54 54 53 52 51 50 50 50 50 50 48 47 46 45 45 44 44 44 45 47 49 51 51 52 53 53 53 53 52 51 50 50 49 49 48 47 46 46 46 46 46 46 46 46 47 47 46 46 46 46 46 45 45 45 45 46
54 54 54 54 53 53 54 53 52 52 51 51 50 50 50 50 48 47 46 45 43 43 43 43 43 44 45 49 48 48 48 48 49 49 49 49 51 51 50 49 49 49 49 48 47 46 46 47 46 45 45 46 46 46 46 46 46 45 45 45 45 45 45
53 53 53 53 53 53 53 52 52 51 51 50 50 50 50 49 48 47 45 43 42 42 42 43 45 44 47 47 46 46 46 46 46 46 46 46 47 50 50 48 49 47 48 48 47 45 43 44 46 46 45 45 45 45 45 45 45 45 45 44 44 44 44
53 53 53 53 52 53 52 51 51 51 50 50 50 50 49 48 46 45 43 42 41 41 42 42 42 41 41 43 45 44 44 44 44 44 44 44 44 45 46 45 44 45 46 46 45 43 42 43 42 43 43 44 45 45 44 45 45 45 45 44 44 44 44
53 53 52 52 53 53 51 51 50 50 50 49 49 49 47 46 45 43 42 41 41 41 41 42 40 40 40 40 43 43 42 42 42 42 42 42 42 42 42 42 42 43 44 47 45 43 44 45 43 42 43 43 42 40 41 44 45 44 44 44 44 43 43
52 52 52 53 53 52 51 50 50 50 49 49 49 47 46 45 44 43 41 40 40 40 40 40 40 39 39 39 39 41 39 39 39 39 39 39 39 39 39 40 40 40 41 46 46 43 43 44 46 45 44 44 44 43 39 40 41 45 44 44 43 43 43
51 52 53 53 52 50 50 50 50 50 50 49 48 47 46 45 44 43 41 40 39 39 39 40 40 39 39 38 38 38 37 37 37 37 37 37 37 37 37 38 37 38 38 40 41 43 46 45 45 45 44 43 43 44 43 41 41 41 43 44 43 42 43
51 52 53 52 50 50 50 50 50 50 49 48 47 47 46 45 44 43 42 40 39 39 39 39 40 39 38 38 38 39 39 39 38 38 38 38 38 37 36 38 37 37 37 38 40 41 45 44 43 43 42 43 42 42 42 42 43 43 43 43 42 42 42
52 52 51 50 50 50 50 49 49 49 48 47 46 46 45 45 43 42 41 39 39 39 39 39 40 39 39 39 39 41 40 38 38 37 37 37 38 39 38 36 36 36 36 37 39 38 41 43 42 42 42 41 42 42 42 44 40 41 42 42 42 42 41
52 51 50 50 50 49 49 48 47 47 46 45 44 44 43 42 42 40 40 39 38 39 40 40 40 40 40 39 40 40 39 37 36 36 36 36 36 39 40 39 36 36 36 36 38 37 38 41 40 40 41 41 42 41 43 45 42 40 40 39 39 39 39
51 50 50 50 49 49 48 47 46 46 45 44 43 43 43 42 41 41 39 39 39 40 40 41 40 39 39 38 39 37 37 36 35 35 35 35 36 36 39 42 42 36 36 37 36 37 38 41 39 39 38 39 39 40 41 42 43 42 40 40 40 39 39
51 50 50 50 49 48 47 47 47 46 45 44 42 42 41 40 39 40 40 40 42 40 41 41 39 39 39 39 40 38 37 35 34 34 35 34 35 35 35 39 41 38 38 37 35 36 37 39 37 38 37 37 37 38 38 40 41 41 41 41 41 41 40
50 50 49 49 49 48 47 47 46 43 41 40 39 39 38 38 37 37 38 37 38 39 39 39 40 38 38 38 37 37 36 35 35 34 35 36 34 34 34 34 37 35 35 35 35 35 36 37 37 37 37 37 37 37 38 40 42 41 40 41 40 40 40
50 49 49 49 49 48 47 44 42 40 39 38 37 37 36 36 36 36 36 37 37 38 39 39 39 38 38 37 37 37 35 35 34 34 34 34 34 34 34 34 35 36 35 35 35 35 35 36 37 37 37 36 35 38 38 39 40 42 40 40 40 40 40
50 49 49 48 47 46 44 42 40 39 38 36 35 35 35 35 34 34 34 35 36 37 40 40 38 37 37 37 37 37 36 36 36 35 34 33 33 33 34 34 35 35 34 34 34 35 35 35 36 38 36 36 36 37 40 40 38 38 39 40 39 39 39
49 49 47 46 45 43 42 41 40 37 36 35 35 33 32 32 32 32 32 33 33 34 35 38 37 36 36 36 36 36 36 36 36 37 34 33 32 31 32 33 36 36 34 34 34 34 35 35 36 34 34 35 36 36 37 37 37 37 38 39 39 38 38
48 47 45 45 44 43 42 40 39 38 37 35 32 31 31 32 31 31 31 32 33 33 34 34 36 36 35 35 36 36 35 36 36 37 36 34 33 33 33 33 35 34 34 34 34 34 34 35 34 34 34 35 35 36 37 36 35 36 36 37 38 38 38

ECMWFFLT1_sfc_dewp_141.txt.gz
Dewpoint
62 61 61 62 62 63 63 63 63 64 65 65 65 64 64 63 63 63 63 63 62 62 62 61 61 60 59 60 60 59 59 58 57 57 57 56 56 57 57 58 57 58 57 59 60 58 57 56 57 57 57 57 57 58 59 59 59 60 60 60 60 61 61
61 61 62 63 62 63 62 62 64 64 64 63 63 62 62 62 62 62 61 61 61 61 61 60 59 58 58 58 58 58 58 57 58 59 57 57 56 56 56 55 55 55 56 57 58 59 58 57 57 57 57 58 58 58 58 58 59 59 60 60 60 61 61
62 62 62 62 62 62 62 62 63 63 62 62 61 61 61 61 61 61 61 60 60 60 60 58 58 58 57 57 57 57 57 57 57 57 58 57 57 57 58 59 58 57 58 57 57 58 59 59 56 57 58 58 57 58 58 58 58 59 60 60 60 60 60
61 62 61 61 61 61 62 62 62 62 61 61 61 61 61 61 61 61 60 60 60 61 59 58 58 57 57 57 57 57 58 58 57 57 57 58 59 59 59 58 58 60 59 58 59 59 59 58 58 58 58 58 58 58 58 58 59 59 60 60 59 60 60
62 62 61 61 61 61 61 62 62 61 60 60 60 60 59 59 60 60 60 59 59 58 58 58 57 57 57 57 57 57 57 57 57 58 58 60 60 60 61 61 60 60 59 58 58 59 59 59 58 58 58 59 59 58 58 59 59 59 59 59 59 59 60
62 62 62 61 61 62 61 62 61 59 59 59 58 58 57 57 59 58 58 58 58 58 57 57 57 56 56 57 56 56 57 58 58 58 59 58 56 56 57 59 58 57 56 58 58 58 59 59 59 57 58 59 58 58 58 58 57 57 58 58 59 60 60
62 62 61 61 61 62 61 62 60 59 58 58 58 58 57 57 58 58 58 58 57 57 57 56 56 56 56 57 56 57 58 58 58 56 56 54 54 53 54 55 55 54 54 55 56 57 57 57 57 57 57 58 58 57 57 56 55 56 56 56 58 59 60
61 61 61 61 61 61 61 61 60 59 59 59 58 58 57 57 57 57 57 57 56 56 56 56 57 56 55 56 57 57 59 57 56 55 54 52 52 51 51 52 52 51 51 52 54 54 55 55 55 56 56 54 56 57 56 55 55 56 56 57 57 58 59
61 60 60 61 60 61 61 60 59 58 59 58 58 57 56 57 57 57 57 56 56 56 56 56 56 57 56 57 56 57 57 56 53 52 52 51 51 51 50 51 50 50 50 50 51 52 53 53 54 55 56 56 54 52 54 55 55 54 56 56 55 55 58
60 60 61 60 60 59 59 59 59 58 58 58 57 57 57 56 56 56 56 55 55 55 55 56 56 57 59 58 57 56 56 55 53 52 51 50 50 50 49 49 49 48 48 49 50 51 52 53 53 54 56 55 54 53 52 53 53 55 56 57 56 55 59
61 61 60 60 59 59 58 58 58 57 57 57 57 57 57 56 56 58 55 55 54 56 56 56 58 58 58 58 57 56 54 53 52 52 52 51 50 49 49 48 48 48 48 48 48 50 51 52 52 53 53 53 54 53 53 51 52 55 56 55 55 57 59
61 60 60 59 59 58 57 57 57 56 57 57 57 56 56 55 55 55 55 55 55 56 56 57 58 57 58 57 57 55 54 52 51 51 51 51 50 49 47 47 47 47 47 48 48 49 49 50 50 51 51 52 52 52 52 52 51 55 55 54 57 59 57
60 59 59 58 57 57 56 56 56 56 56 57 56 56 55 55 55 54 54 55 55 55 56 57 57 57 57 57 57 55 53 52 51 50 50 50 50 48 47 47 47 47 47 48 48 49 49 49 49 50 50 51 51 52 52 51 51 51 54 55 57 55 55
59 58 58 57 56 55 56 56 56 56 56 55 55 55 55 54 54 54 54 55 55 55 55 56 56 56 56 56 56 54 52 51 51 51 50 49 49 48 48 47 47 47 47 47 47 48 48 48 49 49 49 50 51 51 52 51 50 50 52 55 55 53 52
58 57 57 56 55 55 55 55 55 55 54 55 55 54 53 53 53 53 53 53 53 54 54 54 55 56 56 56 55 54 53 52 51 50 50 49 49 49 48 47 46 46 47 46 47 47 48 48 48 48 48 49 50 50 51 50 49 49 49 50 51 51 51
56 56 55 55 55 55 55 55 55 54 54 54 53 52 52 52 52 52 52 52 52 52 53 53 54 55 55 55 54 54 53 52 51 50 50 49 49 48 47 47 46 46 47 46 46 47 47 47 48 47 47 48 48 49 49 50 49 48 48 48 50 49 50
55 55 54 54 54 54 54 54 55 54 53 52 52 52 51 51 51 50 50 51 51 51 52 53 53 54 55 55 54 54 52 51 51 51 50 49 49 48 47 46 46 46 46 45 46 46 47 47 47 47 47 47 47 47 48 48 49 48 48 47 48 48 49
54 54 54 54 54 54 54 54 54 52 52 51 51 51 51 50 50 49 48 49 49 49 51 51 51 52 54 55 54 53 51 50 51 51 51 50 50 48 48 47 46 46 46 45 45 45 46 46 47 47 46 47 47 48 48 48 48 47 47 47 47 47 48
54 54 54 54 53 53 54 53 53 52 51 51 51 50 50 50 49 48 47 48 48 48 48 48 48 49 51 54 53 52 51 51 52 51 51 50 49 49 47 47 46 46 45 45 45 45 45 45 46 46 46 46 46 47 47 47 47 47 46 46 46 46 47
54 54 54 53 53 53 53 53 52 51 51 50 50 50 49 48 48 47 47 47 47 47 47 47 47 48 50 51 51 51 51 52 52 52 51 50 49 48 47 47 46 46 45 45 45 45 45 45 45 45 46 45 46 46 46 46 46 46 46 45 45 46 46
54 54 53 53 53 54 54 52 52 51 51 50 50 49 48 47 47 46 46 46 46 47 46 45 46 48 49 49 51 51 51 51 51 52 52 50 49 48 47 47 47 46 45 45 45 44 44 45 44 44 44 45 45 45 45 46 45 45 45 45 45 45 45
54 54 53 53 53 54 53 52 51 51 50 50 50 49 47 46 45 45 44 44 44 45 45 45 46 47 48 47 48 47 46 46 47 47 47 47 48 47 46 45 46 47 48 49 49 47 46 46 45 43 43 43 44 44 45 45 45 45 45 45 44 44 44
53 53 53 53 53 52 51 51 50 50 49 49 49 48 47 46 45 44 44 43 43 44 44 44 47 46 47 47 46 46 45 45 45 45 45 44 44 44 44 44 46 48 47 48 48 44 43 43 45 45 44 43 43 43 44 44 44 44 44 44 43 43 43
53 52 52 53 52 52 51 50 50 49 49 49 48 47 45 44 43 43 43 42 42 42 42 43 42 41 42 44 45 44 43 43 43 42 42 41 41 43 42 42 42 44 46 49 45 44 42 43 43 43 43 44 45 43 43 43 44 44 44 43 43 43 43
52 52 52 52 51 51 51 50 50 49 49 48 47 45 43 43 42 42 42 42 41 41 41 42 39 40 40 41 43 44 42 41 41 40 39 39 39 39 40 40 41 42 43 47 45 42 44 44 43 43 42 42 42 40 40 42 43 43 43 43 43 42 42
52 52 52 51 51 51 50 50 49 49 48 47 45 44 43 42 41 41 41 41 41 41 40 39 38 39 39 38 39 40 39 38 38 37 37 37 37 37 38 40 40 40 41 46 46 42 43 43 46 44 43 43 43 42 39 39 40 43 43 42 42 42 42
52 52 52 51 50 50 50 49 49 49 47 46 44 43 42 42 41 41 41 40 40 40 39 39 38 38 38 37 37 38 37 38 38 38 38 37 37 36 37 38 38 39 39 41 41 41 44 42 41 42 42 42 42 42 42 41 40 40 42 42 42 41 42
52 52 51 50 50 50 50 49 49 48 46 45 44 43 42 41 41 41 41 40 40 40 40 38 37 37 37 37 37 38 38 38 38 37 38 38 38 38 36 37 38 38 38 39 42 41 42 42 41 42 41 41 41 41 41 41 41 41 41 41 41 41 42
52 52 51 50 50 50 49 49 48 47 46 45 44 44 42 41 40 40 40 41 40 39 38 38 37 38 38 38 38 39 37 36 36 36 36 36 38 39 38 37 37 37 38 38 40 39 42 43 42 41 40 40 40 41 41 43 40 40 41 40 40 41 41
52 51 50 50 50 49 49 48 47 47 45 44 43 42 40 40 40 40 41 41 40 40 38 38 38 38 38 37 37 37 37 36 35 35 35 35 36 38 40 39 36 36 37 37 38 37 38 41 39 39 39 39 39 39 40 41 41 40 39 39 39 39 39
51 50 50 49 50 49 49 48 47 46 44 43 42 41 40 40 39 39 41 41 41 40 39 39 39 38 37 37 38 36 36 35 35 35 34 35 35 36 40 42 42 36 36 37 37 37 38 40 38 38 39 39 38 38 39 40 41 41 40 40 39 39 39
51 50 49 49 49 48 47 47 46 44 43 42 42 41 40 38 38 39 39 42 46 42 41 40 39 37 37 38 39 36 35 35 34 34 34 34 34 35 35 38 41 39 38 37 36 36 37 39 38 37 37 38 37 37 38 39 39 39 39 39 39 40 39
51 51 49 49 48 48 48 47 45 43 42 41 39 39 38 38 37 37 38 42 43 42 41 39 38 38 38 37 38 38 36 34 35 34 35 36 33 33 34 34 37 35 35 35 35 36 36 37 37 36 37 37 36 36 37 39 41 39 38 39 38 39 39
50 50 49 49 48 48 47 45 43 41 40 39 38 37 37 37 37 37 38 38 40 39 40 39 38 37 37 37 37 36 34 34 33 33 33 34 33 33 33 34 34 36 35 35 35 35 36 37 38 38 36 36 36 37 38 38 40 41 38 39 39 39 39
50 49 48 47 47 45 44 43 42 40 38 38 36 36 36 36 36 36 36 38 38 39 41 40 37 37 37 37 37 37 36 35 34 34 33 33 32 32 32 32 34 35 35 35 35 35 35 36 37 39 35 36 37 37 40 38 38 38 38 38 38 38 38
49 49 48 46 44 42 41 41 39 37 36 36 35 34 34 34 35 35 35 35 35 36 36 38 38 36 36 36 36 36 36 35 36 36 33 32 30 30 31 31 35 36 34 34 34 35 35 35 36 35 35 36 36 36 38 37 37 37 37 37 37 37 37
48 47 46 44 42 40 38 37 37 37 36 36 35 33 33 34 34 34 34 34 34 34 34 34 37 37 36 35 36 35 35 36 36 36 35 33 31 31 31 31 33 34 34 34 34 34 34 35 34 35 35 35 36 37 38 37 36 37 36 36 37 36 36

ECMWFFLT1_sfc_dewp_144.txt.gz
Dewpoint
62 62 62 62 62 63 63 63 64 64 65 65 65 65 65 65 64 64 63 63 63 63 63 62 62 62 62 62 61 60 60 60 57 58 58 56 58 59 59 60 60 61 60 60 60 58 57 56 56 59 60 60 60 61 61 61 61 62 61 62 62 63 63
62 62 63 63 63 63 63 63 64 64 64 64 64 64 64 64 64 63 63 62 62 62 62 60 60 60 59 59 59 60 59 59 60 60 59 58 57 59 60 60 60 59 59 60 59 59 58 56 56 57 57 60 60 61 61 61 61 61 61 61 62 63 63
62 62 62 62 62 63 63 63 63 63 62 62 62 62 62 62 62 62 62 61 61 62 61 59 59 59 59 59 59 59 58 59 58 58 59 59 58 60 60 60 59 59 59 59 59 60 59 59 56 57 58 57 56 58 60 61 60 60 61 62 62 62 63
62 62 61 61 62 62 62 62 62 61 61 61 61 61 62 61 62 62 61 61 61 61 60 59 59 59 59 59 58 58 58 58 59 59 60 60 61 61 61 60 59 59 58 58 57 58 58 57 57 57 57 57 58 58 59 60 60 59 61 62 62 61 62
62 61 61 61 62 62 62 62 61 61 60 60 61 60 61 61 61 60 60 59 59 59 59 58 58 58 58 58 58 59 59 59 59 58 56 56 56 58 58 58 56 56 56 55 56 57 57 57 57 56 56 57 58 57 57 60 61 61 61 61 60 60 61
62 62 62 62 62 62 62 61 60 60 60 59 60 59 60 60 60 59 59 59 59 59 58 58 58 58 58 58 58 58 58 57 56 55 54 53 54 54 55 55 54 53 53 54 55 55 56 56 56 55 56 57 56 55 56 57 59 59 59 60 60 60 61
62 62 62 62 62 62 62 61 60 60 59 59 59 59 59 59 59 59 59 59 58 59 59 58 58 58 58 58 58 57 56 55 55 54 53 52 52 52 52 52 51 51 51 52 52 53 53 54 54 54 53 54 55 54 55 55 57 57 59 59 60 61 61
62 62 62 62 62 62 61 60 60 59 59 59 58 59 59 59 59 58 58 58 57 57 57 57 57 57 58 58 57 56 55 54 53 52 51 51 51 50 50 50 50 49 49 50 51 51 52 52 52 52 52 51 53 54 53 54 54 54 55 59 59 60 59
62 61 61 61 61 62 61 60 59 59 59 58 58 58 59 58 58 58 57 57 57 57 57 57 57 57 57 57 56 55 54 53 52 51 50 50 50 49 49 50 49 49 49 49 50 50 52 52 52 53 53 53 51 50 52 52 53 53 58 57 59 58 59
61 61 61 61 61 61 60 59 59 58 58 58 58 58 58 58 58 57 56 56 56 56 57 57 58 58 57 56 55 54 53 52 52 50 50 49 49 49 49 49 49 48 49 50 50 51 51 52 52 53 53 52 51 51 50 50 51 52 54 56 55 58 56
61 61 61 60 60 60 59 59 58 58 57 58 58 58 57 57 58 58 56 56 56 57 57 57 58 58 56 55 54 53 53 52 51 50 50 49 49 49 49 48 48 48 48 49 50 50 50 51 51 51 51 52 53 51 50 49 50 53 54 54 55 56 55
61 60 60 60 60 59 58 58 57 57 57 58 58 57 57 57 57 57 56 56 56 56 57 58 58 58 56 54 53 52 52 51 50 50 50 50 49 49 48 48 48 48 48 49 50 50 50 50 50 50 50 51 52 52 51 50 49 53 53 52 54 53 52
61 60 59 59 59 58 57 57 57 57 57 57 57 57 56 56 57 56 56 55 56 56 57 57 57 57 56 54 53 52 51 51 50 49 50 50 49 49 48 47 47 47 48 48 49 49 49 49 50 50 50 50 51 51 52 50 49 49 51 51 51 50 51
59 59 58 58 57 57 57 57 57 57 56 56 56 56 56 56 55 56 55 56 55 55 56 57 57 56 55 54 53 52 51 50 50 50 49 49 49 48 48 47 47 47 48 48 48 48 48 48 49 49 49 49 50 50 50 49 48 48 50 52 51 50 51
58 58 57 56 56 56 56 56 56 55 55 56 56 55 55 55 55 54 54 54 54 55 55 56 56 56 55 54 53 53 52 51 50 49 49 48 49 49 48 47 47 47 47 47 47 47 48 48 48 48 48 49 48 48 49 49 48 48 47 48 49 50 50
57 56 56 56 55 55 55 55 55 55 54 54 54 54 54 53 53 53 53 53 53 54 55 55 56 55 54 53 53 52 52 51 50 50 49 48 48 48 47 47 46 47 47 47 47 47 47 47 47 47 47 48 48 48 49 49 48 47 47 47 48 48 48
56 55 55 55 55 55 54 54 54 54 53 53 52 53 52 52 52 52 52 52 52 53 53 54 55 55 54 53 52 51 51 51 51 50 49 48 48 47 47 46 46 46 47 46 46 46 46 46 46 46 47 47 47 47 48 48 48 47 47 46 47 46 47
55 55 55 54 54 54 54 53 53 52 52 52 52 51 51 50 50 50 51 51 51 52 52 52 53 54 54 53 52 52 51 51 51 50 50 49 49 47 47 46 46 46 46 45 45 45 45 45 45 45 45 46 46 47 47 47 47 47 46 45 45 46 47
54 54 54 54 54 53 53 53 52 52 52 51 51 50 50 50 50 49 49 50 50 49 49 50 51 53 53 53 52 52 52 52 51 51 50 49 49 49 48 47 47 46 46 45 45 45 45 45 45 44 45 45 45 46 46 46 46 46 45 45 45 44 45
54 54 54 54 54 53 52 52 52 51 51 50 50 49 49 48 49 48 48 49 49 48 48 49 51 52 53 52 52 51 51 52 51 50 50 49 49 49 48 48 49 47 46 46 46 46 46 45 45 44 44 45 45 45 46 45 45 45 45 44 44 44 44
54 54 54 53 53 52 52 51 51 51 51 50 49 48 48 48 48 47 48 47 48 49 48 49 50 51 52 52 52 51 51 52 51 51 50 49 49 48 47 47 48 48 49 48 48 47 46 46 45 44 44 44 44 44 45 45 44 44 44 44 43 43 44
54 54 53 53 52 52 51 51 51 51 51 50 49 48 47 47 46 46 46 46 46 47 48 48 50 51 50 49 49 48 49 49 49 48 47 45 45 45 45 45 46 49 50 50 48 46 46 46 46 44 44 43 44 44 44 44 44 43 44 43 43 43 43
53 53 53 53 52 51 51 51 51 50 49 48 48 47 46 46 46 46 46 45 46 46 47 48 49 48 49 48 47 47 47 47 47 46 45 44 43 44 43 44 46 48 49 49 48 44 43 44 45 45 44 43 43 43 43 43 43 43 43 43 42 42 42
53 53 53 52 51 51 50 50 50 49 48 48 47 47 45 45 45 45 45 44 44 44 44 45 43 42 43 45 46 46 45 44 43 42 42 41 42 43 42 42 43 46 48 49 48 43 43 42 42 42 42 43 43 43 43 42 43 43 43 43 43 42 42
53 53 52 51 51 50 50 49 49 48 47 46 45 45 44 44 44 44 43 43 43 43 43 42 40 41 41 42 44 44 43 42 41 40 40 39 39 41 41 42 43 43 46 49 48 45 47 44 42 42 41 41 40 40 40 42 42 42 42 42 42 42 41
53 52 52 51 50 50 49 49 48 47 46 45 44 44 43 43 43 43 42 42 42 42 41 40 39 39 39 39 39 41 40 40 40 39 39 39 38 39 40 42 43 42 43 47 48 44 46 46 44 43 42 43 43 41 38 39 40 42 42 41 41 42 41
52 52 51 51 50 49 49 49 48 46 45 44 43 43 43 42 42 42 41 41 40 40 40 40 38 38 38 38 38 39 39 40 40 40 40 40 40 39 39 40 41 41 42 43 44 44 45 44 43 43 43 43 43 43 41 40 40 40 41 42 41 41 41
52 51 51 50 50 49 49 48 46 45 44 43 43 42 42 42 42 42 41 40 39 39 40 38 37 37 37 38 38 38 40 39 39 39 39 40 41 40 39 40 41 41 41 42 44 45 44 43 43 43 42 42 42 42 43 42 41 42 41 41 41 41 41
51 51 50 50 49 49 48 47 46 45 44 44 43 43 42 42 41 41 41 40 39 38 39 37 37 37 37 37 38 39 39 38 38 38 38 39 40 41 41 39 40 40 40 41 41 40 42 43 42 42 41 41 41 42 42 43 40 40 42 41 41 41 41
51 50 50 49 49 49 48 47 46 45 44 43 42 41 41 41 41 40 40 39 39 38 39 39 37 37 37 36 37 38 38 37 37 37 37 37 38 41 43 41 38 39 39 40 39 38 39 41 41 41 41 41 41 41 41 42 40 39 39 39 39 38 38
50 50 50 49 49 49 48 47 46 45 43 43 42 42 41 41 41 41 40 39 39 39 39 40 37 37 37 37 38 37 37 36 36 37 36 37 37 38 41 42 42 38 39 40 37 38 38 42 41 41 41 40 40 40 40 41 41 41 40 39 39 38 38
50 50 50 49 49 48 47 46 46 45 43 43 42 42 43 41 41 41 40 40 43 40 40 41 37 37 37 37 39 37 36 36 36 35 36 35 36 36 37 39 40 39 39 39 36 37 38 41 41 41 41 41 40 40 40 41 41 40 40 40 40 41 40
50 50 49 49 48 48 47 45 44 43 42 41 41 41 43 42 41 41 42 42 42 41 41 40 40 37 37 37 38 39 37 36 36 36 37 37 36 35 36 36 38 36 35 36 36 36 37 38 40 40 41 41 40 39 40 41 41 41 40 40 40 40 40
50 50 49 49 48 47 46 45 43 41 41 40 40 41 41 41 41 41 42 42 41 41 41 39 39 37 37 37 36 36 35 35 35 35 35 35 34 35 35 35 36 37 35 36 36 36 37 37 38 41 41 41 40 41 40 40 40 40 40 40 40 40 39
50 50 49 48 47 46 45 44 43 42 41 41 40 40 40 40 41 40 40 41 41 41 42 40 38 37 37 37 36 36 36 37 36 35 35 34 34 34 35 36 36 36 35 35 35 36 36 37 38 42 40 37 37 37 41 40 40 39 39 39 38 38 38
49 49 48 47 46 44 44 43 41 40 39 38 38 38 38 39 40 40 39 38 38 39 39 40 38 38 37 36 36 36 36 37 36 39 35 34 34 34 35 35 37 37 35 35 35 35 36 36 38 38 36 36 36 37 39 39 39 39 39 38 38 38 38
49 48 47 45 43 42 41 40 39 39 38 37 37 37 38 39 39 39 38 37 37 36 36 37 38 37 37 36 36 36 36 36 36 37 36 34 34 34 35 35 36 34 34 34 34 35 35 36 36 35 35 36 36 37 39 39 38 39 38 37 37 37 37

ECMWFFLT1_sfc_dewp_150.txt.gz
Dewpoint
62 64 66 67 67 66 66 67 67 69 69 70 70 69 69 69 68 66 66 66 65 65 64 64 64 64 64 64 64 64 63 62 62 60 58 58 57 57 59 60 59 60 61 60 60 58 55 53 53 55 58 59 60 59 61 60 60 60 61 61 61 60 60
64 64 65 65 65 66 67 69 67 68 70 70 69 70 69 68 67 66 66 66 65 65 63 65 64 64 64 64 64 63 63 62 62 61 60 58 58 58 58 58 58 58 56 58 59 59 55 54 52 52 54 57 58 58 59 60 59 60 60 59 59 61 60
64 64 64 64 65 66 68 69 67 67 68 69 70 69 68 68 67 66 65 65 65 65 63 64 64 64 64 64 63 63 63 62 62 61 60 60 60 60 59 58 57 56 56 56 56 55 55 56 52 51 52 55 54 55 58 58 58 58 58 59 61 59 60
64 65 63 65 65 68 67 67 67 66 67 69 70 69 68 68 68 66 66 65 66 66 64 64 63 63 63 63 63 62 62 62 60 61 61 61 60 59 58 56 55 55 55 54 54 54 55 54 52 52 53 51 53 55 57 57 57 55 56 58 58 57 59
66 65 65 65 67 68 68 67 65 67 67 68 69 68 69 68 68 66 66 65 65 65 64 64 64 63 62 61 60 61 61 61 61 60 59 59 59 57 57 56 55 56 55 55 54 55 54 53 53 52 50 52 53 50 52 55 56 55 56 55 54 55 58
66 67 66 66 66 67 67 67 67 65 66 66 69 68 69 69 67 67 65 65 65 65 64 63 63 63 62 61 60 60 59 59 58 59 57 59 58 57 55 55 55 55 54 55 55 54 54 54 53 50 50 51 51 52 51 51 52 52 53 52 52 56 54
66 68 67 67 68 67 67 67 66 65 65 67 66 68 68 67 66 66 66 66 65 64 64 63 63 62 62 58 60 58 59 59 59 58 58 58 58 57 57 56 56 54 54 54 54 54 53 53 52 52 52 51 53 51 51 49 47 51 51 49 51 54 53
67 68 68 67 67 67 67 66 66 67 67 66 66 67 67 66 66 66 66 65 64 64 63 63 62 62 61 59 58 59 58 58 58 57 57 57 56 56 57 56 56 55 53 53 53 54 53 53 53 52 52 50 50 52 51 49 47 49 48 52 50 54 50
66 68 68 68 67 68 67 66 67 68 67 67 68 67 66 67 66 65 65 64 64 63 62 62 61 60 59 58 58 58 58 58 57 57 56 57 56 57 56 56 55 53 54 53 53 53 52 53 53 53 52 51 49 47 50 50 50 48 49 48 48 49 50
66 66 67 67 68 69 69 68 68 67 66 67 66 66 66 66 66 65 64 64 63 62 62 61 60 59 59 58 58 57 57 56 56 56 55 56 57 56 55 55 54 53 53 54 53 53 53 53 53 52 52 51 51 49 47 48 50 49 48 47 48 47 48
65 66 67 66 67 68 68 68 68 66 65 67 66 66 66 65 65 64 63 62 62 62 61 60 59 58 59 57 57 57 56 56 55 55 55 56 56 56 55 55 54 52 53 53 52 53 53 53 52 52 51 52 52 49 49 47 48 49 49 49 49 46 49
65 65 67 67 68 68 67 68 65 66 65 65 65 65 64 63 63 63 62 61 62 61 61 59 58 57 57 57 56 55 55 55 54 54 55 56 55 55 55 54 54 52 53 52 53 53 53 52 51 50 50 51 51 51 50 48 46 49 50 48 48 47 49
65 65 66 67 65 66 66 65 65 65 65 64 64 65 63 62 62 62 61 61 60 60 59 57 57 57 57 56 56 55 55 54 53 53 54 54 54 54 54 53 53 53 52 52 52 52 51 52 52 50 51 51 50 51 50 48 47 47 48 47 47 47 48
64 65 65 65 64 65 65 65 64 64 64 64 64 64 63 61 61 61 60 60 59 59 58 57 57 57 56 55 55 54 53 52 52 52 52 54 53 53 52 51 51 52 52 52 51 51 50 50 51 50 51 50 49 50 50 49 46 47 48 49 47 47 47
64 65 64 65 65 65 65 65 64 63 63 63 63 62 60 61 61 60 59 59 58 57 57 56 56 56 55 54 54 54 53 52 52 51 52 51 52 53 52 50 50 50 51 51 51 49 50 50 50 48 48 49 48 49 50 49 47 45 46 48 46 47 47
64 64 64 64 64 64 64 65 63 63 63 63 63 63 62 60 60 59 59 58 57 56 55 55 56 56 55 54 53 54 53 52 52 52 51 50 48 49 50 51 50 50 51 51 50 50 50 50 50 49 49 49 49 50 50 50 48 46 47 45 47 46 46
64 64 63 64 64 64 64 63 62 63 63 63 63 62 61 59 59 59 58 57 56 55 55 56 56 55 54 53 52 52 52 52 51 50 49 48 48 49 49 49 50 50 50 49 48 47 48 49 48 48 49 48 48 49 49 49 49 48 46 45 46 44 46
64 64 63 63 63 64 63 63 63 63 63 63 61 62 60 59 59 58 59 56 55 55 55 55 54 54 54 53 52 53 51 51 51 50 50 50 49 49 49 49 48 47 47 47 47 47 47 48 47 48 48 47 46 47 48 47 47 47 46 45 45 46 46
63 63 63 63 63 63 63 62 62 62 62 61 61 61 59 59 58 57 56 55 54 54 54 54 53 52 52 53 53 52 52 51 50 49 49 49 49 49 49 47 47 47 45 46 45 46 47 48 48 48 48 47 46 47 47 47 47 46 46 45 46 45 46
64 63 63 63 62 61 61 61 61 61 62 61 60 60 59 58 58 57 55 55 54 54 53 53 53 53 52 52 51 51 51 50 50 50 49 48 49 49 48 48 48 47 45 44 43 44 45 47 46 46 48 48 47 48 47 46 46 46 46 46 45 45 44
62 63 62 62 61 61 61 60 60 60 61 60 59 58 58 58 57 56 55 53 54 54 53 52 52 52 51 52 52 51 51 51 51 50 51 49 49 48 47 47 47 46 44 43 44 43 44 45 45 45 46 48 48 48 47 46 46 45 45 45 43 42 43
62 61 60 60 61 60 59 59 59 59 59 58 58 57 57 57 56 55 54 53 53 53 53 53 53 52 51 50 51 51 50 50 50 50 50 49 49 47 47 47 47 46 48 47 46 46 45 46 45 44 46 47 48 47 47 46 45 44 44 44 43 44 43
60 60 60 60 60 59 58 58 58 58 57 57 57 57 57 56 55 55 53 53 53 54 54 53 54 49 49 51 51 51 51 51 50 49 49 48 48 47 47 48 49 48 48 47 46 43 42 43 44 46 45 47 47 47 46 45 44 44 44 42 43 43 43
60 59 59 58 58 58 57 57 57 57 56 56 57 56 56 55 55 54 53 53 54 55 54 55 46 45 46 47 51 52 51 50 49 48 48 47 47 47 48 47 50 49 48 47 47 43 42 42 41 41 41 42 44 47 47 45 44 44 42 42 43 44 43
59 59 59 57 57 57 57 56 56 56 56 57 57 56 56 54 54 53 53 53 54 55 55 47 44 45 46 47 48 53 51 49 49 48 48 48 47 46 47 47 48 48 46 48 48 46 45 42 41 41 40 40 40 40 41 45 46 44 45 43 43 44 44
58 58 58 57 57 56 55 55 55 56 56 56 56 55 54 54 54 53 53 52 53 54 53 42 43 44 45 45 46 49 49 49 48 47 48 48 47 47 47 47 48 46 46 48 43 42 47 46 43 42 42 42 41 40 38 39 40 46 46 45 45 44 44
58 57 57 56 55 55 54 54 56 56 56 56 55 54 55 54 54 53 52 52 52 53 53 43 41 42 42 43 44 44 48 48 48 46 47 47 47 47 47 46 45 46 47 44 43 42 41 42 45 47 47 45 45 48 41 40 40 40 43 46 45 44 45
57 56 55 55 54 54 54 55 55 55 55 55 54 53 53 53 53 52 52 52 52 52 53 40 40 40 40 40 42 41 49 48 47 48 48 47 46 47 46 47 46 46 44 41 41 45 46 44 45 45 44 45 44 44 45 46 46 46 46 47 46 45 46
57 56 55 54 54 54 54 54 54 55 55 54 54 53 53 52 52 51 52 52 52 52 48 38 38 39 39 39 40 48 48 48 47 47 47 47 46 47 46 45 45 43 41 39 42 39 43 48 42 42 43 44 45 45 45 43 40 40 45 45 46 45 45
56 55 54 54 53 54 53 53 54 54 54 53 52 51 52 52 51 51 51 51 52 51 48 40 37 38 38 38 41 49 49 47 46 46 47 47 46 46 46 43 43 42 41 39 42 38 38 41 43 41 41 43 44 44 44 46 41 39 39 39 39 38 38
55 54 54 53 53 53 53 54 54 54 53 52 51 51 51 51 51 51 51 51 50 50 49 41 37 38 38 38 43 48 47 47 47 45 46 46 46 44 48 47 50 42 41 42 38 38 38 47 42 41 41 41 41 43 44 46 47 46 39 39 39 38 38
55 54 53 53 53 53 53 53 53 55 53 52 51 51 50 50 50 50 50 50 48 48 47 42 37 37 37 38 44 47 45 45 46 46 45 44 43 40 41 45 42 44 47 45 37 37 37 44 42 40 40 40 39 42 44 44 45 45 45 47 47 49 46
55 54 53 54 54 55 54 53 53 54 52 50 50 49 49 49 49 48 48 46 47 47 46 45 41 37 37 38 38 49 45 44 45 44 43 40 40 41 40 41 41 36 36 37 37 37 37 38 44 40 39 38 38 40 45 45 43 45 45 43 43 43 43
55 56 57 57 54 53 53 53 52 53 52 50 49 48 49 49 47 46 45 44 45 46 46 44 42 36 37 37 37 39 44 44 43 42 40 38 39 40 40 38 40 37 36 36 37 37 37 38 39 40 39 38 40 46 42 44 47 45 44 44 44 43 42
56 55 55 53 52 52 53 52 52 51 51 50 49 48 48 46 44 44 45 45 46 45 44 45 42 38 36 36 36 37 42 43 43 41 40 39 38 40 40 39 41 39 36 36 36 37 37 38 39 38 43 36 37 37 49 41 41 41 40 41 39 39 40
56 55 54 53 52 52 52 52 51 51 50 49 48 47 47 45 45 44 44 43 43 43 43 41 39 41 36 36 36 37 38 41 37 45 40 40 40 40 41 41 40 38 35 36 36 36 37 37 40 40 36 36 36 36 39 37 38 39 38 38 39 40 39
54 54 54 53 52 53 52 50 50 49 49 51 49 47 46 45 44 42 41 40 41 40 40 41 39 39 39 36 36 36 36 36 37 42 41 40 39 39 41 42 39 35 35 36 36 36 36 37 41 35 36 36 36 37 37 37 37 38 36 35 36 37 38